<?xml version="1.0" encoding="UTF-8" standalone="no" ?>
<gpx xmlns="http://www.topografix.com/GPX/1/1" xmlns:xsi="http://www.w3.org/2001/XMLSchema-instance" xsi:schemaLocation="http://www.topografix.com/GPX/1/1 http://www.topografix.com/GPX/1/1/gpx.xsd" version="1.1" creator="VisuGPX - https://www.visugpx.com">
  <metadata>
    <name>circuit 2 hauterives</name>
    <desc><![CDATA[beau circuit très ombragé pas très technique difficulté moyenne]]></desc>
  </metadata>
  <trk>
    <name><![CDATA[20180525193443-XCRAN]]></name>
    <trkseg>
      <trkpt lat="45.25631" lon="5.0292">
        <ele>299.7</ele>
        <time>2018-05-25T14:14:28 02:00</time>
      </trkpt>
      <trkpt lat="45.2561" lon="5.02907">
        <ele>299</ele>
        <time>2018-05-25T14:14:38 02:00</time>
      </trkpt>
      <trkpt lat="45.2559" lon="5.02892">
        <ele>299</ele>
        <time>2018-05-25T14:15:22 02:00</time>
      </trkpt>
      <trkpt lat="45.25572" lon="5.0287">
        <ele>299</ele>
        <time>2018-05-25T14:19:04 02:00</time>
      </trkpt>
      <trkpt lat="45.25548" lon="5.02873">
        <ele>299</ele>
        <time>2018-05-25T14:19:16 02:00</time>
      </trkpt>
      <trkpt lat="45.25528" lon="5.02893">
        <ele>299</ele>
        <time>2018-05-25T14:19:24 02:00</time>
      </trkpt>
      <trkpt lat="45.25517" lon="5.02926">
        <ele>298.7</ele>
        <time>2018-05-25T14:19:31 02:00</time>
      </trkpt>
      <trkpt lat="45.2552" lon="5.02962">
        <ele>298.6</ele>
        <time>2018-05-25T14:19:37 02:00</time>
      </trkpt>
      <trkpt lat="45.25522" lon="5.02995">
        <ele>298.9</ele>
        <time>2018-05-25T14:19:43 02:00</time>
      </trkpt>
      <trkpt lat="45.25533" lon="5.03026">
        <ele>299</ele>
        <time>2018-05-25T14:19:49 02:00</time>
      </trkpt>
      <trkpt lat="45.25548" lon="5.03055">
        <ele>300</ele>
        <time>2018-05-25T14:19:56 02:00</time>
      </trkpt>
      <trkpt lat="45.25566" lon="5.03077">
        <ele>300</ele>
        <time>2018-05-25T14:20:06 02:00</time>
      </trkpt>
      <trkpt lat="45.25573" lon="5.03112">
        <ele>300.4</ele>
        <time>2018-05-25T14:20:15 02:00</time>
      </trkpt>
      <trkpt lat="45.25592" lon="5.03135">
        <ele>300.9</ele>
        <time>2018-05-25T14:20:24 02:00</time>
      </trkpt>
      <trkpt lat="45.25606" lon="5.03168">
        <ele>301</ele>
        <time>2018-05-25T14:20:30 02:00</time>
      </trkpt>
      <trkpt lat="45.25612" lon="5.032">
        <ele>300.8</ele>
        <time>2018-05-25T14:20:36 02:00</time>
      </trkpt>
      <trkpt lat="45.25611" lon="5.03232">
        <ele>300</ele>
        <time>2018-05-25T14:20:43 02:00</time>
      </trkpt>
      <trkpt lat="45.25609" lon="5.03267">
        <ele>300</ele>
        <time>2018-05-25T14:20:51 02:00</time>
      </trkpt>
      <trkpt lat="45.25606" lon="5.033">
        <ele>300</ele>
        <time>2018-05-25T14:20:59 02:00</time>
      </trkpt>
      <trkpt lat="45.25629" lon="5.03315">
        <ele>300.1</ele>
        <time>2018-05-25T14:21:07 02:00</time>
      </trkpt>
      <trkpt lat="45.25648" lon="5.03332">
        <ele>300</ele>
        <time>2018-05-25T14:21:12 02:00</time>
      </trkpt>
      <trkpt lat="45.25669" lon="5.03343">
        <ele>300.1</ele>
        <time>2018-05-25T14:21:18 02:00</time>
      </trkpt>
      <trkpt lat="45.25693" lon="5.03353">
        <ele>300.3</ele>
        <time>2018-05-25T14:21:30 02:00</time>
      </trkpt>
      <trkpt lat="45.25713" lon="5.03369">
        <ele>300.5</ele>
        <time>2018-05-25T14:21:36 02:00</time>
      </trkpt>
      <trkpt lat="45.25727" lon="5.03394">
        <ele>300.2</ele>
        <time>2018-05-25T14:21:43 02:00</time>
      </trkpt>
      <trkpt lat="45.25742" lon="5.03421">
        <ele>300</ele>
        <time>2018-05-25T14:21:50 02:00</time>
      </trkpt>
      <trkpt lat="45.25759" lon="5.03446">
        <ele>300.4</ele>
        <time>2018-05-25T14:21:58 02:00</time>
      </trkpt>
      <trkpt lat="45.25776" lon="5.03469">
        <ele>300.2</ele>
        <time>2018-05-25T14:22:04 02:00</time>
      </trkpt>
      <trkpt lat="45.25792" lon="5.03495">
        <ele>300.9</ele>
        <time>2018-05-25T14:22:11 02:00</time>
      </trkpt>
      <trkpt lat="45.25799" lon="5.03529">
        <ele>302</ele>
        <time>2018-05-25T14:22:19 02:00</time>
      </trkpt>
      <trkpt lat="45.25804" lon="5.03566">
        <ele>303.4</ele>
        <time>2018-05-25T14:22:26 02:00</time>
      </trkpt>
      <trkpt lat="45.25813" lon="5.036">
        <ele>303.7</ele>
        <time>2018-05-25T14:22:31 02:00</time>
      </trkpt>
      <trkpt lat="45.25829" lon="5.03626">
        <ele>303.2</ele>
        <time>2018-05-25T14:22:39 02:00</time>
      </trkpt>
      <trkpt lat="45.25846" lon="5.03649">
        <ele>302.5</ele>
        <time>2018-05-25T14:22:46 02:00</time>
      </trkpt>
      <trkpt lat="45.25859" lon="5.03683">
        <ele>302.7</ele>
        <time>2018-05-25T14:22:51 02:00</time>
      </trkpt>
      <trkpt lat="45.25858" lon="5.03719">
        <ele>304</ele>
        <time>2018-05-25T14:22:56 02:00</time>
      </trkpt>
      <trkpt lat="45.25867" lon="5.03754">
        <ele>304.7</ele>
        <time>2018-05-25T14:23:04 02:00</time>
      </trkpt>
      <trkpt lat="45.25867" lon="5.03786">
        <ele>305.6</ele>
        <time>2018-05-25T14:23:10 02:00</time>
      </trkpt>
      <trkpt lat="45.25869" lon="5.0382">
        <ele>305.7</ele>
        <time>2018-05-25T14:23:16 02:00</time>
      </trkpt>
      <trkpt lat="45.25876" lon="5.03854">
        <ele>305.9</ele>
        <time>2018-05-25T14:23:24 02:00</time>
      </trkpt>
      <trkpt lat="45.2589" lon="5.0388">
        <ele>306</ele>
        <time>2018-05-25T14:23:31 02:00</time>
      </trkpt>
      <trkpt lat="45.25906" lon="5.03911">
        <ele>306</ele>
        <time>2018-05-25T14:23:37 02:00</time>
      </trkpt>
      <trkpt lat="45.25915" lon="5.03946">
        <ele>306.9</ele>
        <time>2018-05-25T14:23:43 02:00</time>
      </trkpt>
      <trkpt lat="45.25935" lon="5.03968">
        <ele>307.6</ele>
        <time>2018-05-25T14:23:51 02:00</time>
      </trkpt>
      <trkpt lat="45.2596" lon="5.03973">
        <ele>307.5</ele>
        <time>2018-05-25T14:23:56 02:00</time>
      </trkpt>
      <trkpt lat="45.25984" lon="5.03983">
        <ele>306.8</ele>
        <time>2018-05-25T14:24:01 02:00</time>
      </trkpt>
      <trkpt lat="45.26004" lon="5.03999">
        <ele>306.2</ele>
        <time>2018-05-25T14:24:07 02:00</time>
      </trkpt>
      <trkpt lat="45.26024" lon="5.04017">
        <ele>307.6</ele>
        <time>2018-05-25T14:24:13 02:00</time>
      </trkpt>
      <trkpt lat="45.26023" lon="5.0405">
        <ele>308.9</ele>
        <time>2018-05-25T14:24:18 02:00</time>
      </trkpt>
      <trkpt lat="45.26022" lon="5.04081">
        <ele>309.9</ele>
        <time>2018-05-25T14:24:25 02:00</time>
      </trkpt>
      <trkpt lat="45.26038" lon="5.04111">
        <ele>311</ele>
        <time>2018-05-25T14:24:31 02:00</time>
      </trkpt>
      <trkpt lat="45.26052" lon="5.04138">
        <ele>311</ele>
        <time>2018-05-25T14:24:36 02:00</time>
      </trkpt>
      <trkpt lat="45.26062" lon="5.04169">
        <ele>311.8</ele>
        <time>2018-05-25T14:24:41 02:00</time>
      </trkpt>
      <trkpt lat="45.26074" lon="5.04205">
        <ele>311.3</ele>
        <time>2018-05-25T14:24:46 02:00</time>
      </trkpt>
      <trkpt lat="45.26085" lon="5.04239">
        <ele>311.5</ele>
        <time>2018-05-25T14:24:50 02:00</time>
      </trkpt>
      <trkpt lat="45.261" lon="5.04268">
        <ele>310.3</ele>
        <time>2018-05-25T14:24:54 02:00</time>
      </trkpt>
      <trkpt lat="45.26112" lon="5.04296">
        <ele>310</ele>
        <time>2018-05-25T14:24:58 02:00</time>
      </trkpt>
      <trkpt lat="45.26116" lon="5.04332">
        <ele>310</ele>
        <time>2018-05-25T14:25:03 02:00</time>
      </trkpt>
      <trkpt lat="45.26117" lon="5.04364">
        <ele>310.3</ele>
        <time>2018-05-25T14:25:07 02:00</time>
      </trkpt>
      <trkpt lat="45.26114" lon="5.04398">
        <ele>311.3</ele>
        <time>2018-05-25T14:25:12 02:00</time>
      </trkpt>
      <trkpt lat="45.26105" lon="5.04428">
        <ele>312</ele>
        <time>2018-05-25T14:25:18 02:00</time>
      </trkpt>
      <trkpt lat="45.26087" lon="5.04452">
        <ele>312</ele>
        <time>2018-05-25T14:25:25 02:00</time>
      </trkpt>
      <trkpt lat="45.26081" lon="5.04482">
        <ele>312.1</ele>
        <time>2018-05-25T14:25:30 02:00</time>
      </trkpt>
      <trkpt lat="45.26073" lon="5.04513">
        <ele>312.1</ele>
        <time>2018-05-25T14:25:35 02:00</time>
      </trkpt>
      <trkpt lat="45.26062" lon="5.04542">
        <ele>312.7</ele>
        <time>2018-05-25T14:25:41 02:00</time>
      </trkpt>
      <trkpt lat="45.26058" lon="5.04573">
        <ele>313.5</ele>
        <time>2018-05-25T14:25:51 02:00</time>
      </trkpt>
      <trkpt lat="45.26063" lon="5.04609">
        <ele>313.5</ele>
        <time>2018-05-25T14:25:59 02:00</time>
      </trkpt>
      <trkpt lat="45.2606" lon="5.04644">
        <ele>313.5</ele>
        <time>2018-05-25T14:26:05 02:00</time>
      </trkpt>
      <trkpt lat="45.26055" lon="5.0468">
        <ele>314</ele>
        <time>2018-05-25T14:26:11 02:00</time>
      </trkpt>
      <trkpt lat="45.26039" lon="5.04706">
        <ele>314.6</ele>
        <time>2018-05-25T14:26:17 02:00</time>
      </trkpt>
      <trkpt lat="45.26017" lon="5.0472">
        <ele>315.7</ele>
        <time>2018-05-25T14:26:25 02:00</time>
      </trkpt>
      <trkpt lat="45.25995" lon="5.04735">
        <ele>317</ele>
        <time>2018-05-25T14:26:32 02:00</time>
      </trkpt>
      <trkpt lat="45.25974" lon="5.04753">
        <ele>317</ele>
        <time>2018-05-25T14:26:39 02:00</time>
      </trkpt>
      <trkpt lat="45.25953" lon="5.04769">
        <ele>317.5</ele>
        <time>2018-05-25T14:26:45 02:00</time>
      </trkpt>
      <trkpt lat="45.25934" lon="5.04792">
        <ele>318.4</ele>
        <time>2018-05-25T14:26:52 02:00</time>
      </trkpt>
      <trkpt lat="45.25918" lon="5.04818">
        <ele>319</ele>
        <time>2018-05-25T14:27:00 02:00</time>
      </trkpt>
      <trkpt lat="45.25906" lon="5.04847">
        <ele>319.9</ele>
        <time>2018-05-25T14:27:09 02:00</time>
      </trkpt>
      <trkpt lat="45.25907" lon="5.04884">
        <ele>320.5</ele>
        <time>2018-05-25T14:27:17 02:00</time>
      </trkpt>
      <trkpt lat="45.25912" lon="5.04915">
        <ele>320.5</ele>
        <time>2018-05-25T14:27:25 02:00</time>
      </trkpt>
      <trkpt lat="45.25909" lon="5.04949">
        <ele>323.2</ele>
        <time>2018-05-25T14:27:37 02:00</time>
      </trkpt>
      <trkpt lat="45.25888" lon="5.04964">
        <ele>327.2</ele>
        <time>2018-05-25T14:27:53 02:00</time>
      </trkpt>
      <trkpt lat="45.25866" lon="5.04974">
        <ele>329.8</ele>
        <time>2018-05-25T14:28:11 02:00</time>
      </trkpt>
      <trkpt lat="45.25867" lon="5.05006">
        <ele>331.8</ele>
        <time>2018-05-25T14:28:37 02:00</time>
      </trkpt>
      <trkpt lat="45.25876" lon="5.05035">
        <ele>332.5</ele>
        <time>2018-05-25T14:28:45 02:00</time>
      </trkpt>
      <trkpt lat="45.25881" lon="5.05068">
        <ele>332.7</ele>
        <time>2018-05-25T14:28:53 02:00</time>
      </trkpt>
      <trkpt lat="45.25884" lon="5.05101">
        <ele>333.2</ele>
        <time>2018-05-25T14:29:00 02:00</time>
      </trkpt>
      <trkpt lat="45.25885" lon="5.05134">
        <ele>333.2</ele>
        <time>2018-05-25T14:29:06 02:00</time>
      </trkpt>
      <trkpt lat="45.25886" lon="5.05169">
        <ele>334.1</ele>
        <time>2018-05-25T14:29:12 02:00</time>
      </trkpt>
      <trkpt lat="45.25885" lon="5.05204">
        <ele>334.2</ele>
        <time>2018-05-25T14:29:18 02:00</time>
      </trkpt>
      <trkpt lat="45.25879" lon="5.05236">
        <ele>334.5</ele>
        <time>2018-05-25T14:29:24 02:00</time>
      </trkpt>
      <trkpt lat="45.25873" lon="5.05272">
        <ele>334.2</ele>
        <time>2018-05-25T14:29:30 02:00</time>
      </trkpt>
      <trkpt lat="45.25876" lon="5.05309">
        <ele>334.5</ele>
        <time>2018-05-25T14:29:36 02:00</time>
      </trkpt>
      <trkpt lat="45.25883" lon="5.05346">
        <ele>334.9</ele>
        <time>2018-05-25T14:29:42 02:00</time>
      </trkpt>
      <trkpt lat="45.25887" lon="5.05378">
        <ele>335.2</ele>
        <time>2018-05-25T14:29:47 02:00</time>
      </trkpt>
      <trkpt lat="45.25893" lon="5.05414">
        <ele>335.6</ele>
        <time>2018-05-25T14:29:53 02:00</time>
      </trkpt>
      <trkpt lat="45.25898" lon="5.05451">
        <ele>335.8</ele>
        <time>2018-05-25T14:29:59 02:00</time>
      </trkpt>
      <trkpt lat="45.25905" lon="5.05482">
        <ele>336.2</ele>
        <time>2018-05-25T14:30:04 02:00</time>
      </trkpt>
      <trkpt lat="45.25914" lon="5.05517">
        <ele>336.2</ele>
        <time>2018-05-25T14:30:10 02:00</time>
      </trkpt>
      <trkpt lat="45.25923" lon="5.0555">
        <ele>336.4</ele>
        <time>2018-05-25T14:30:15 02:00</time>
      </trkpt>
      <trkpt lat="45.25936" lon="5.05584">
        <ele>336.7</ele>
        <time>2018-05-25T14:30:21 02:00</time>
      </trkpt>
      <trkpt lat="45.25949" lon="5.05612">
        <ele>336.9</ele>
        <time>2018-05-25T14:30:26 02:00</time>
      </trkpt>
      <trkpt lat="45.25963" lon="5.05639">
        <ele>337.3</ele>
        <time>2018-05-25T14:30:31 02:00</time>
      </trkpt>
      <trkpt lat="45.25978" lon="5.05666">
        <ele>336.8</ele>
        <time>2018-05-25T14:30:36 02:00</time>
      </trkpt>
      <trkpt lat="45.25993" lon="5.05694">
        <ele>337.2</ele>
        <time>2018-05-25T14:30:41 02:00</time>
      </trkpt>
      <trkpt lat="45.26012" lon="5.05723">
        <ele>337.2</ele>
        <time>2018-05-25T14:30:47 02:00</time>
      </trkpt>
      <trkpt lat="45.26025" lon="5.05755">
        <ele>336.2</ele>
        <time>2018-05-25T14:30:53 02:00</time>
      </trkpt>
      <trkpt lat="45.26033" lon="5.0579">
        <ele>335.4</ele>
        <time>2018-05-25T14:30:58 02:00</time>
      </trkpt>
      <trkpt lat="45.26039" lon="5.05826">
        <ele>335.6</ele>
        <time>2018-05-25T14:31:03 02:00</time>
      </trkpt>
      <trkpt lat="45.2605" lon="5.05858">
        <ele>334.7</ele>
        <time>2018-05-25T14:31:08 02:00</time>
      </trkpt>
      <trkpt lat="45.26064" lon="5.05884">
        <ele>334.2</ele>
        <time>2018-05-25T14:31:12 02:00</time>
      </trkpt>
      <trkpt lat="45.26075" lon="5.05916">
        <ele>334.1</ele>
        <time>2018-05-25T14:31:16 02:00</time>
      </trkpt>
      <trkpt lat="45.26086" lon="5.0595">
        <ele>333.2</ele>
        <time>2018-05-25T14:31:20 02:00</time>
      </trkpt>
      <trkpt lat="45.26095" lon="5.05981">
        <ele>334.4</ele>
        <time>2018-05-25T14:31:24 02:00</time>
      </trkpt>
      <trkpt lat="45.26105" lon="5.06013">
        <ele>333.7</ele>
        <time>2018-05-25T14:31:29 02:00</time>
      </trkpt>
      <trkpt lat="45.26117" lon="5.06043">
        <ele>334.1</ele>
        <time>2018-05-25T14:31:34 02:00</time>
      </trkpt>
      <trkpt lat="45.26129" lon="5.06073">
        <ele>334.5</ele>
        <time>2018-05-25T14:31:39 02:00</time>
      </trkpt>
      <trkpt lat="45.26139" lon="5.06105">
        <ele>333.8</ele>
        <time>2018-05-25T14:31:44 02:00</time>
      </trkpt>
      <trkpt lat="45.26143" lon="5.06137">
        <ele>333.7</ele>
        <time>2018-05-25T14:31:49 02:00</time>
      </trkpt>
      <trkpt lat="45.26148" lon="5.06169">
        <ele>334.7</ele>
        <time>2018-05-25T14:31:54 02:00</time>
      </trkpt>
      <trkpt lat="45.26153" lon="5.06204">
        <ele>333.9</ele>
        <time>2018-05-25T14:32:00 02:00</time>
      </trkpt>
      <trkpt lat="45.26156" lon="5.06238">
        <ele>332.9</ele>
        <time>2018-05-25T14:32:05 02:00</time>
      </trkpt>
      <trkpt lat="45.26159" lon="5.06269">
        <ele>332.4</ele>
        <time>2018-05-25T14:32:09 02:00</time>
      </trkpt>
      <trkpt lat="45.26137" lon="5.06284">
        <ele>334.1</ele>
        <time>2018-05-25T14:32:26 02:00</time>
      </trkpt>
      <trkpt lat="45.26116" lon="5.06296">
        <ele>335.1</ele>
        <time>2018-05-25T14:32:43 02:00</time>
      </trkpt>
      <trkpt lat="45.26094" lon="5.06305">
        <ele>336.3</ele>
        <time>2018-05-25T14:32:55 02:00</time>
      </trkpt>
      <trkpt lat="45.26072" lon="5.06317">
        <ele>338.2</ele>
        <time>2018-05-25T14:33:15 02:00</time>
      </trkpt>
      <trkpt lat="45.26051" lon="5.06329">
        <ele>340.3</ele>
        <time>2018-05-25T14:33:28 02:00</time>
      </trkpt>
      <trkpt lat="45.26027" lon="5.06329">
        <ele>341.9</ele>
        <time>2018-05-25T14:33:41 02:00</time>
      </trkpt>
      <trkpt lat="45.26004" lon="5.06327">
        <ele>343.5</ele>
        <time>2018-05-25T14:34:01 02:00</time>
      </trkpt>
      <trkpt lat="45.25982" lon="5.06327">
        <ele>346.3</ele>
        <time>2018-05-25T14:34:23 02:00</time>
      </trkpt>
      <trkpt lat="45.25959" lon="5.06326">
        <ele>350.3</ele>
        <time>2018-05-25T14:34:50 02:00</time>
      </trkpt>
      <trkpt lat="45.25937" lon="5.06334">
        <ele>355.7</ele>
        <time>2018-05-25T14:35:14 02:00</time>
      </trkpt>
      <trkpt lat="45.25915" lon="5.06341">
        <ele>360.2</ele>
        <time>2018-05-25T14:35:36 02:00</time>
      </trkpt>
      <trkpt lat="45.25889" lon="5.06342">
        <ele>363.3</ele>
        <time>2018-05-25T14:36:15 02:00</time>
      </trkpt>
      <trkpt lat="45.25869" lon="5.06356">
        <ele>365.8</ele>
        <time>2018-05-25T14:37:31 02:00</time>
      </trkpt>
      <trkpt lat="45.25848" lon="5.06371">
        <ele>368.4</ele>
        <time>2018-05-25T14:37:57 02:00</time>
      </trkpt>
      <trkpt lat="45.25829" lon="5.06389">
        <ele>370.7</ele>
        <time>2018-05-25T14:38:11 02:00</time>
      </trkpt>
      <trkpt lat="45.25809" lon="5.06407">
        <ele>372.8</ele>
        <time>2018-05-25T14:38:22 02:00</time>
      </trkpt>
      <trkpt lat="45.25791" lon="5.06426">
        <ele>375.1</ele>
        <time>2018-05-25T14:38:43 02:00</time>
      </trkpt>
      <trkpt lat="45.25771" lon="5.06438">
        <ele>377.6</ele>
        <time>2018-05-25T14:39:00 02:00</time>
      </trkpt>
      <trkpt lat="45.25748" lon="5.06452">
        <ele>381.1</ele>
        <time>2018-05-25T14:39:18 02:00</time>
      </trkpt>
      <trkpt lat="45.25726" lon="5.06465">
        <ele>383.7</ele>
        <time>2018-05-25T14:39:37 02:00</time>
      </trkpt>
      <trkpt lat="45.25705" lon="5.06482">
        <ele>385.4</ele>
        <time>2018-05-25T14:39:54 02:00</time>
      </trkpt>
      <trkpt lat="45.25686" lon="5.06504">
        <ele>386.8</ele>
        <time>2018-05-25T14:40:13 02:00</time>
      </trkpt>
      <trkpt lat="45.25666" lon="5.06523">
        <ele>388.3</ele>
        <time>2018-05-25T14:40:24 02:00</time>
      </trkpt>
      <trkpt lat="45.25646" lon="5.0654">
        <ele>389.8</ele>
        <time>2018-05-25T14:40:35 02:00</time>
      </trkpt>
      <trkpt lat="45.25626" lon="5.06556">
        <ele>390.4</ele>
        <time>2018-05-25T14:40:49 02:00</time>
      </trkpt>
      <trkpt lat="45.25606" lon="5.06576">
        <ele>390.6</ele>
        <time>2018-05-25T14:41:06 02:00</time>
      </trkpt>
      <trkpt lat="45.25593" lon="5.06604">
        <ele>390.5</ele>
        <time>2018-05-25T14:41:28 02:00</time>
      </trkpt>
      <trkpt lat="45.25576" lon="5.06626">
        <ele>391</ele>
        <time>2018-05-25T14:41:43 02:00</time>
      </trkpt>
      <trkpt lat="45.2556" lon="5.06648">
        <ele>392.5</ele>
        <time>2018-05-25T14:41:55 02:00</time>
      </trkpt>
      <trkpt lat="45.25543" lon="5.06671">
        <ele>393.5</ele>
        <time>2018-05-25T14:42:06 02:00</time>
      </trkpt>
      <trkpt lat="45.25526" lon="5.06692">
        <ele>394.9</ele>
        <time>2018-05-25T14:42:15 02:00</time>
      </trkpt>
      <trkpt lat="45.25507" lon="5.06712">
        <ele>395.5</ele>
        <time>2018-05-25T14:42:25 02:00</time>
      </trkpt>
      <trkpt lat="45.25487" lon="5.06734">
        <ele>396.4</ele>
        <time>2018-05-25T14:42:35 02:00</time>
      </trkpt>
      <trkpt lat="45.25469" lon="5.06753">
        <ele>397.1</ele>
        <time>2018-05-25T14:42:46 02:00</time>
      </trkpt>
      <trkpt lat="45.25452" lon="5.06776">
        <ele>397.9</ele>
        <time>2018-05-25T14:42:59 02:00</time>
      </trkpt>
      <trkpt lat="45.25433" lon="5.06796">
        <ele>398.9</ele>
        <time>2018-05-25T14:43:09 02:00</time>
      </trkpt>
      <trkpt lat="45.25413" lon="5.06818">
        <ele>399.4</ele>
        <time>2018-05-25T14:43:17 02:00</time>
      </trkpt>
      <trkpt lat="45.25398" lon="5.06841">
        <ele>400.5</ele>
        <time>2018-05-25T14:43:26 02:00</time>
      </trkpt>
      <trkpt lat="45.25377" lon="5.06854">
        <ele>401.1</ele>
        <time>2018-05-25T14:43:34 02:00</time>
      </trkpt>
      <trkpt lat="45.25355" lon="5.06865">
        <ele>401.1</ele>
        <time>2018-05-25T14:43:43 02:00</time>
      </trkpt>
      <trkpt lat="45.25333" lon="5.06872">
        <ele>401.4</ele>
        <time>2018-05-25T14:43:50 02:00</time>
      </trkpt>
      <trkpt lat="45.25311" lon="5.06884">
        <ele>401.8</ele>
        <time>2018-05-25T14:43:58 02:00</time>
      </trkpt>
      <trkpt lat="45.25289" lon="5.06899">
        <ele>402.4</ele>
        <time>2018-05-25T14:44:07 02:00</time>
      </trkpt>
      <trkpt lat="45.25268" lon="5.06912">
        <ele>404</ele>
        <time>2018-05-25T14:44:20 02:00</time>
      </trkpt>
      <trkpt lat="45.25247" lon="5.06926">
        <ele>405.5</ele>
        <time>2018-05-25T14:44:33 02:00</time>
      </trkpt>
      <trkpt lat="45.25225" lon="5.06941">
        <ele>406.7</ele>
        <time>2018-05-25T14:44:46 02:00</time>
      </trkpt>
      <trkpt lat="45.25204" lon="5.06958">
        <ele>409</ele>
        <time>2018-05-25T14:46:38 02:00</time>
      </trkpt>
      <trkpt lat="45.25201" lon="5.06992">
        <ele>408.9</ele>
        <time>2018-05-25T14:46:52 02:00</time>
      </trkpt>
      <trkpt lat="45.25194" lon="5.07025">
        <ele>409.1</ele>
        <time>2018-05-25T14:47:02 02:00</time>
      </trkpt>
      <trkpt lat="45.25197" lon="5.07057">
        <ele>408.3</ele>
        <time>2018-05-25T14:47:08 02:00</time>
      </trkpt>
      <trkpt lat="45.25203" lon="5.07088">
        <ele>407.4</ele>
        <time>2018-05-25T14:47:12 02:00</time>
      </trkpt>
      <trkpt lat="45.25208" lon="5.07121">
        <ele>406.1</ele>
        <time>2018-05-25T14:47:16 02:00</time>
      </trkpt>
      <trkpt lat="45.25211" lon="5.07154">
        <ele>405.6</ele>
        <time>2018-05-25T14:47:20 02:00</time>
      </trkpt>
      <trkpt lat="45.25216" lon="5.07188">
        <ele>405.1</ele>
        <time>2018-05-25T14:47:24 02:00</time>
      </trkpt>
      <trkpt lat="45.25226" lon="5.07222">
        <ele>403.7</ele>
        <time>2018-05-25T14:47:28 02:00</time>
      </trkpt>
      <trkpt lat="45.25253" lon="5.07234">
        <ele>402.5</ele>
        <time>2018-05-25T14:47:32 02:00</time>
      </trkpt>
      <trkpt lat="45.25276" lon="5.07228">
        <ele>402.4</ele>
        <time>2018-05-25T14:47:35 02:00</time>
      </trkpt>
      <trkpt lat="45.25301" lon="5.07224">
        <ele>402.1</ele>
        <time>2018-05-25T14:47:39 02:00</time>
      </trkpt>
      <trkpt lat="45.25328" lon="5.07226">
        <ele>402.3</ele>
        <time>2018-05-25T14:47:44 02:00</time>
      </trkpt>
      <trkpt lat="45.25352" lon="5.07238">
        <ele>402.8</ele>
        <time>2018-05-25T14:47:49 02:00</time>
      </trkpt>
      <trkpt lat="45.25375" lon="5.07245">
        <ele>403</ele>
        <time>2018-05-25T14:47:54 02:00</time>
      </trkpt>
      <trkpt lat="45.25398" lon="5.07254">
        <ele>403.1</ele>
        <time>2018-05-25T14:47:59 02:00</time>
      </trkpt>
      <trkpt lat="45.25425" lon="5.07262">
        <ele>403.1</ele>
        <time>2018-05-25T14:48:04 02:00</time>
      </trkpt>
      <trkpt lat="45.25448" lon="5.07266">
        <ele>403.1</ele>
        <time>2018-05-25T14:48:08 02:00</time>
      </trkpt>
      <trkpt lat="45.25471" lon="5.07271">
        <ele>403.3</ele>
        <time>2018-05-25T14:48:12 02:00</time>
      </trkpt>
      <trkpt lat="45.25493" lon="5.07276">
        <ele>403.8</ele>
        <time>2018-05-25T14:48:16 02:00</time>
      </trkpt>
      <trkpt lat="45.25519" lon="5.07279">
        <ele>404</ele>
        <time>2018-05-25T14:48:21 02:00</time>
      </trkpt>
      <trkpt lat="45.25544" lon="5.07282">
        <ele>403.6</ele>
        <time>2018-05-25T14:48:27 02:00</time>
      </trkpt>
      <trkpt lat="45.25544" lon="5.07315">
        <ele>405.2</ele>
        <time>2018-05-25T14:48:37 02:00</time>
      </trkpt>
      <trkpt lat="45.25528" lon="5.07338">
        <ele>408.7</ele>
        <time>2018-05-25T14:48:48 02:00</time>
      </trkpt>
      <trkpt lat="45.25514" lon="5.07363">
        <ele>412.3</ele>
        <time>2018-05-25T14:49:03 02:00</time>
      </trkpt>
      <trkpt lat="45.25504" lon="5.07393">
        <ele>416.3</ele>
        <time>2018-05-25T14:49:21 02:00</time>
      </trkpt>
      <trkpt lat="45.2549" lon="5.07419">
        <ele>419.7</ele>
        <time>2018-05-25T14:49:43 02:00</time>
      </trkpt>
      <trkpt lat="45.25471" lon="5.07438">
        <ele>422.3</ele>
        <time>2018-05-25T14:50:00 02:00</time>
      </trkpt>
      <trkpt lat="45.25459" lon="5.07465">
        <ele>424.9</ele>
        <time>2018-05-25T14:50:21 02:00</time>
      </trkpt>
      <trkpt lat="45.25441" lon="5.07487">
        <ele>427.7</ele>
        <time>2018-05-25T14:50:43 02:00</time>
      </trkpt>
      <trkpt lat="45.25425" lon="5.0751">
        <ele>430.8</ele>
        <time>2018-05-25T14:51:04 02:00</time>
      </trkpt>
      <trkpt lat="45.25412" lon="5.07537">
        <ele>434</ele>
        <time>2018-05-25T14:51:30 02:00</time>
      </trkpt>
      <trkpt lat="45.25399" lon="5.07564">
        <ele>436.6</ele>
        <time>2018-05-25T14:51:50 02:00</time>
      </trkpt>
      <trkpt lat="45.25387" lon="5.07592">
        <ele>438.6</ele>
        <time>2018-05-25T14:52:08 02:00</time>
      </trkpt>
      <trkpt lat="45.25372" lon="5.07619">
        <ele>440.6</ele>
        <time>2018-05-25T14:52:25 02:00</time>
      </trkpt>
      <trkpt lat="45.25356" lon="5.07644">
        <ele>442.1</ele>
        <time>2018-05-25T14:52:41 02:00</time>
      </trkpt>
      <trkpt lat="45.25345" lon="5.07674">
        <ele>443.2</ele>
        <time>2018-05-25T14:52:53 02:00</time>
      </trkpt>
      <trkpt lat="45.25333" lon="5.07705">
        <ele>444.7</ele>
        <time>2018-05-25T14:53:05 02:00</time>
      </trkpt>
      <trkpt lat="45.25318" lon="5.07731">
        <ele>445.2</ele>
        <time>2018-05-25T14:53:18 02:00</time>
      </trkpt>
      <trkpt lat="45.25305" lon="5.07759">
        <ele>445.6</ele>
        <time>2018-05-25T14:53:30 02:00</time>
      </trkpt>
      <trkpt lat="45.25289" lon="5.07783">
        <ele>446.2</ele>
        <time>2018-05-25T14:53:39 02:00</time>
      </trkpt>
      <trkpt lat="45.25275" lon="5.0781">
        <ele>447</ele>
        <time>2018-05-25T14:53:49 02:00</time>
      </trkpt>
      <trkpt lat="45.25256" lon="5.07831">
        <ele>447.1</ele>
        <time>2018-05-25T14:54:00 02:00</time>
      </trkpt>
      <trkpt lat="45.25237" lon="5.07849">
        <ele>447.9</ele>
        <time>2018-05-25T14:54:10 02:00</time>
      </trkpt>
      <trkpt lat="45.25219" lon="5.07871">
        <ele>449.7</ele>
        <time>2018-05-25T14:54:23 02:00</time>
      </trkpt>
      <trkpt lat="45.25201" lon="5.07891">
        <ele>451.2</ele>
        <time>2018-05-25T14:54:37 02:00</time>
      </trkpt>
      <trkpt lat="45.25182" lon="5.0791">
        <ele>453.2</ele>
        <time>2018-05-25T14:54:52 02:00</time>
      </trkpt>
      <trkpt lat="45.25167" lon="5.07936">
        <ele>454.7</ele>
        <time>2018-05-25T14:55:09 02:00</time>
      </trkpt>
      <trkpt lat="45.25152" lon="5.07961">
        <ele>456.4</ele>
        <time>2018-05-25T14:55:26 02:00</time>
      </trkpt>
      <trkpt lat="45.25136" lon="5.07984">
        <ele>457.7</ele>
        <time>2018-05-25T14:55:39 02:00</time>
      </trkpt>
      <trkpt lat="45.2512" lon="5.08006">
        <ele>458.8</ele>
        <time>2018-05-25T14:55:51 02:00</time>
      </trkpt>
      <trkpt lat="45.25103" lon="5.08029">
        <ele>459.8</ele>
        <time>2018-05-25T14:56:05 02:00</time>
      </trkpt>
      <trkpt lat="45.25088" lon="5.08054">
        <ele>461</ele>
        <time>2018-05-25T14:56:17 02:00</time>
      </trkpt>
      <trkpt lat="45.25073" lon="5.0808">
        <ele>462.8</ele>
        <time>2018-05-25T14:56:29 02:00</time>
      </trkpt>
      <trkpt lat="45.25056" lon="5.08103">
        <ele>463.7</ele>
        <time>2018-05-25T14:56:42 02:00</time>
      </trkpt>
      <trkpt lat="45.25037" lon="5.08125">
        <ele>464.8</ele>
        <time>2018-05-25T14:56:53 02:00</time>
      </trkpt>
      <trkpt lat="45.25019" lon="5.08149">
        <ele>466.4</ele>
        <time>2018-05-25T14:57:08 02:00</time>
      </trkpt>
      <trkpt lat="45.25001" lon="5.08172">
        <ele>467.7</ele>
        <time>2018-05-25T14:57:19 02:00</time>
      </trkpt>
      <trkpt lat="45.24987" lon="5.08198">
        <ele>467.5</ele>
        <time>2018-05-25T14:57:29 02:00</time>
      </trkpt>
      <trkpt lat="45.24971" lon="5.08227">
        <ele>464.5</ele>
        <time>2018-05-25T14:57:35 02:00</time>
      </trkpt>
      <trkpt lat="45.2495" lon="5.08242">
        <ele>464.5</ele>
        <time>2018-05-25T14:57:40 02:00</time>
      </trkpt>
      <trkpt lat="45.24926" lon="5.08243">
        <ele>466.8</ele>
        <time>2018-05-25T14:57:54 02:00</time>
      </trkpt>
      <trkpt lat="45.24905" lon="5.08256">
        <ele>467.5</ele>
        <time>2018-05-25T14:58:17 02:00</time>
      </trkpt>
      <trkpt lat="45.24882" lon="5.08263">
        <ele>469.4</ele>
        <time>2018-05-25T14:58:36 02:00</time>
      </trkpt>
      <trkpt lat="45.2486" lon="5.0827">
        <ele>472.1</ele>
        <time>2018-05-25T14:59:00 02:00</time>
      </trkpt>
      <trkpt lat="45.24837" lon="5.08278">
        <ele>475.4</ele>
        <time>2018-05-25T14:59:20 02:00</time>
      </trkpt>
      <trkpt lat="45.24814" lon="5.08278">
        <ele>478.1</ele>
        <time>2018-05-25T14:59:36 02:00</time>
      </trkpt>
      <trkpt lat="45.24791" lon="5.08279">
        <ele>480.5</ele>
        <time>2018-05-25T14:59:48 02:00</time>
      </trkpt>
      <trkpt lat="45.24768" lon="5.0828">
        <ele>482.6</ele>
        <time>2018-05-25T15:00:06 02:00</time>
      </trkpt>
      <trkpt lat="45.24745" lon="5.08283">
        <ele>484</ele>
        <time>2018-05-25T15:00:20 02:00</time>
      </trkpt>
      <trkpt lat="45.24722" lon="5.08282">
        <ele>485.7</ele>
        <time>2018-05-25T15:00:36 02:00</time>
      </trkpt>
      <trkpt lat="45.24699" lon="5.08277">
        <ele>486.9</ele>
        <time>2018-05-25T15:00:52 02:00</time>
      </trkpt>
      <trkpt lat="45.24675" lon="5.08276">
        <ele>487.9</ele>
        <time>2018-05-25T15:01:11 02:00</time>
      </trkpt>
      <trkpt lat="45.24653" lon="5.08276">
        <ele>488.6</ele>
        <time>2018-05-25T15:01:29 02:00</time>
      </trkpt>
      <trkpt lat="45.24629" lon="5.08273">
        <ele>489.7</ele>
        <time>2018-05-25T15:01:51 02:00</time>
      </trkpt>
      <trkpt lat="45.24606" lon="5.0827">
        <ele>490.9</ele>
        <time>2018-05-25T15:02:06 02:00</time>
      </trkpt>
      <trkpt lat="45.24583" lon="5.08266">
        <ele>492.9</ele>
        <time>2018-05-25T15:02:22 02:00</time>
      </trkpt>
      <trkpt lat="45.2456" lon="5.08259">
        <ele>495</ele>
        <time>2018-05-25T15:02:37 02:00</time>
      </trkpt>
      <trkpt lat="45.24536" lon="5.08251">
        <ele>497.3</ele>
        <time>2018-05-25T15:02:50 02:00</time>
      </trkpt>
      <trkpt lat="45.24512" lon="5.08248">
        <ele>499.3</ele>
        <time>2018-05-25T15:03:05 02:00</time>
      </trkpt>
      <trkpt lat="45.24488" lon="5.08245">
        <ele>501.4</ele>
        <time>2018-05-25T15:03:22 02:00</time>
      </trkpt>
      <trkpt lat="45.24465" lon="5.08243">
        <ele>503</ele>
        <time>2018-05-25T15:03:36 02:00</time>
      </trkpt>
      <trkpt lat="45.24443" lon="5.08251">
        <ele>504</ele>
        <time>2018-05-25T15:03:49 02:00</time>
      </trkpt>
      <trkpt lat="45.24422" lon="5.08265">
        <ele>504.2</ele>
        <time>2018-05-25T15:04:00 02:00</time>
      </trkpt>
      <trkpt lat="45.24399" lon="5.08271">
        <ele>504.9</ele>
        <time>2018-05-25T15:04:09 02:00</time>
      </trkpt>
      <trkpt lat="45.24376" lon="5.08278">
        <ele>505.5</ele>
        <time>2018-05-25T15:04:19 02:00</time>
      </trkpt>
      <trkpt lat="45.24352" lon="5.08285">
        <ele>505.8</ele>
        <time>2018-05-25T15:04:30 02:00</time>
      </trkpt>
      <trkpt lat="45.24329" lon="5.08296">
        <ele>506</ele>
        <time>2018-05-25T15:04:43 02:00</time>
      </trkpt>
      <trkpt lat="45.24304" lon="5.08305">
        <ele>506</ele>
        <time>2018-05-25T15:04:57 02:00</time>
      </trkpt>
      <trkpt lat="45.24279" lon="5.08308">
        <ele>506</ele>
        <time>2018-05-25T15:05:08 02:00</time>
      </trkpt>
      <trkpt lat="45.24256" lon="5.08301">
        <ele>506</ele>
        <time>2018-05-25T15:05:19 02:00</time>
      </trkpt>
      <trkpt lat="45.24232" lon="5.08293">
        <ele>506</ele>
        <time>2018-05-25T15:05:29 02:00</time>
      </trkpt>
      <trkpt lat="45.24203" lon="5.0828">
        <ele>506</ele>
        <time>2018-05-25T15:05:35 02:00</time>
      </trkpt>
      <trkpt lat="45.2418" lon="5.08268">
        <ele>506</ele>
        <time>2018-05-25T15:05:42 02:00</time>
      </trkpt>
      <trkpt lat="45.24158" lon="5.08257">
        <ele>505.7</ele>
        <time>2018-05-25T15:05:50 02:00</time>
      </trkpt>
      <trkpt lat="45.24129" lon="5.08246">
        <ele>504.7</ele>
        <time>2018-05-25T15:05:57 02:00</time>
      </trkpt>
      <trkpt lat="45.24106" lon="5.08237">
        <ele>503.8</ele>
        <time>2018-05-25T15:06:04 02:00</time>
      </trkpt>
      <trkpt lat="45.24085" lon="5.08226">
        <ele>503.1</ele>
        <time>2018-05-25T15:06:11 02:00</time>
      </trkpt>
      <trkpt lat="45.2406" lon="5.08213">
        <ele>502.2</ele>
        <time>2018-05-25T15:06:16 02:00</time>
      </trkpt>
      <trkpt lat="45.24038" lon="5.08195">
        <ele>500.8</ele>
        <time>2018-05-25T15:06:21 02:00</time>
      </trkpt>
      <trkpt lat="45.24018" lon="5.08175">
        <ele>499.8</ele>
        <time>2018-05-25T15:06:26 02:00</time>
      </trkpt>
      <trkpt lat="45.23994" lon="5.08158">
        <ele>499.4</ele>
        <time>2018-05-25T15:06:33 02:00</time>
      </trkpt>
      <trkpt lat="45.23971" lon="5.08149">
        <ele>499.4</ele>
        <time>2018-05-25T15:06:37 02:00</time>
      </trkpt>
      <trkpt lat="45.23956" lon="5.08125">
        <ele>498</ele>
        <time>2018-05-25T15:06:44 02:00</time>
      </trkpt>
      <trkpt lat="45.2394" lon="5.08101">
        <ele>496.8</ele>
        <time>2018-05-25T15:06:51 02:00</time>
      </trkpt>
      <trkpt lat="45.23923" lon="5.08072">
        <ele>496.4</ele>
        <time>2018-05-25T15:06:58 02:00</time>
      </trkpt>
      <trkpt lat="45.23907" lon="5.08045">
        <ele>496.7</ele>
        <time>2018-05-25T15:07:04 02:00</time>
      </trkpt>
      <trkpt lat="45.23893" lon="5.08016">
        <ele>497.7</ele>
        <time>2018-05-25T15:07:11 02:00</time>
      </trkpt>
      <trkpt lat="45.23879" lon="5.07991">
        <ele>498</ele>
        <time>2018-05-25T15:07:18 02:00</time>
      </trkpt>
      <trkpt lat="45.23865" lon="5.0796">
        <ele>497.4</ele>
        <time>2018-05-25T15:07:26 02:00</time>
      </trkpt>
      <trkpt lat="45.23854" lon="5.07931">
        <ele>495.8</ele>
        <time>2018-05-25T15:07:33 02:00</time>
      </trkpt>
      <trkpt lat="45.23846" lon="5.07898">
        <ele>493.1</ele>
        <time>2018-05-25T15:07:40 02:00</time>
      </trkpt>
      <trkpt lat="45.23837" lon="5.07866">
        <ele>490.5</ele>
        <time>2018-05-25T15:07:47 02:00</time>
      </trkpt>
      <trkpt lat="45.23825" lon="5.07835">
        <ele>488.1</ele>
        <time>2018-05-25T15:07:53 02:00</time>
      </trkpt>
      <trkpt lat="45.23815" lon="5.07802">
        <ele>486.9</ele>
        <time>2018-05-25T15:07:59 02:00</time>
      </trkpt>
      <trkpt lat="45.23805" lon="5.07768">
        <ele>486</ele>
        <time>2018-05-25T15:08:05 02:00</time>
      </trkpt>
      <trkpt lat="45.23788" lon="5.07738">
        <ele>486</ele>
        <time>2018-05-25T15:08:10 02:00</time>
      </trkpt>
      <trkpt lat="45.23775" lon="5.07706">
        <ele>486.7</ele>
        <time>2018-05-25T15:08:16 02:00</time>
      </trkpt>
      <trkpt lat="45.23773" lon="5.07672">
        <ele>487.3</ele>
        <time>2018-05-25T15:08:25 02:00</time>
      </trkpt>
      <trkpt lat="45.23772" lon="5.07639">
        <ele>488.2</ele>
        <time>2018-05-25T15:08:30 02:00</time>
      </trkpt>
      <trkpt lat="45.23771" lon="5.07601">
        <ele>489.5</ele>
        <time>2018-05-25T15:08:35 02:00</time>
      </trkpt>
      <trkpt lat="45.23775" lon="5.07567">
        <ele>490.1</ele>
        <time>2018-05-25T15:08:39 02:00</time>
      </trkpt>
      <trkpt lat="45.2378" lon="5.07532">
        <ele>490.8</ele>
        <time>2018-05-25T15:08:43 02:00</time>
      </trkpt>
      <trkpt lat="45.23785" lon="5.07497">
        <ele>492.5</ele>
        <time>2018-05-25T15:08:47 02:00</time>
      </trkpt>
      <trkpt lat="45.23788" lon="5.07463">
        <ele>492.4</ele>
        <time>2018-05-25T15:08:51 02:00</time>
      </trkpt>
      <trkpt lat="45.23794" lon="5.07431">
        <ele>492.6</ele>
        <time>2018-05-25T15:08:55 02:00</time>
      </trkpt>
      <trkpt lat="45.23803" lon="5.074">
        <ele>492.8</ele>
        <time>2018-05-25T15:08:59 02:00</time>
      </trkpt>
      <trkpt lat="45.23813" lon="5.07365">
        <ele>494.2</ele>
        <time>2018-05-25T15:09:04 02:00</time>
      </trkpt>
      <trkpt lat="45.23818" lon="5.07329">
        <ele>495.2</ele>
        <time>2018-05-25T15:09:09 02:00</time>
      </trkpt>
      <trkpt lat="45.23825" lon="5.07297">
        <ele>495.8</ele>
        <time>2018-05-25T15:09:14 02:00</time>
      </trkpt>
      <trkpt lat="45.23831" lon="5.07262">
        <ele>496.6</ele>
        <time>2018-05-25T15:09:20 02:00</time>
      </trkpt>
      <trkpt lat="45.23837" lon="5.07229">
        <ele>496.8</ele>
        <time>2018-05-25T15:09:26 02:00</time>
      </trkpt>
      <trkpt lat="45.23841" lon="5.07194">
        <ele>498.5</ele>
        <time>2018-05-25T15:09:32 02:00</time>
      </trkpt>
      <trkpt lat="45.23846" lon="5.07163">
        <ele>498.5</ele>
        <time>2018-05-25T15:09:37 02:00</time>
      </trkpt>
      <trkpt lat="45.2385" lon="5.07129">
        <ele>497.6</ele>
        <time>2018-05-25T15:09:42 02:00</time>
      </trkpt>
      <trkpt lat="45.23856" lon="5.07092">
        <ele>495.7</ele>
        <time>2018-05-25T15:09:47 02:00</time>
      </trkpt>
      <trkpt lat="45.2386" lon="5.07057">
        <ele>495</ele>
        <time>2018-05-25T15:09:52 02:00</time>
      </trkpt>
      <trkpt lat="45.23863" lon="5.07019">
        <ele>492.4</ele>
        <time>2018-05-25T15:09:57 02:00</time>
      </trkpt>
      <trkpt lat="45.23867" lon="5.06983">
        <ele>491.2</ele>
        <time>2018-05-25T15:10:02 02:00</time>
      </trkpt>
      <trkpt lat="45.23871" lon="5.06946">
        <ele>490.9</ele>
        <time>2018-05-25T15:10:07 02:00</time>
      </trkpt>
      <trkpt lat="45.23859" lon="5.06918">
        <ele>492.1</ele>
        <time>2018-05-25T15:10:38 02:00</time>
      </trkpt>
      <trkpt lat="45.23836" lon="5.06925">
        <ele>493.8</ele>
        <time>2018-05-25T15:10:49 02:00</time>
      </trkpt>
      <trkpt lat="45.23813" lon="5.06928">
        <ele>494.7</ele>
        <time>2018-05-25T15:10:59 02:00</time>
      </trkpt>
      <trkpt lat="45.2379" lon="5.06938">
        <ele>495.4</ele>
        <time>2018-05-25T15:11:10 02:00</time>
      </trkpt>
      <trkpt lat="45.23767" lon="5.0695">
        <ele>496.1</ele>
        <time>2018-05-25T15:11:19 02:00</time>
      </trkpt>
      <trkpt lat="45.23745" lon="5.06959">
        <ele>496.5</ele>
        <time>2018-05-25T15:11:29 02:00</time>
      </trkpt>
      <trkpt lat="45.23724" lon="5.0697">
        <ele>496.9</ele>
        <time>2018-05-25T15:11:39 02:00</time>
      </trkpt>
      <trkpt lat="45.23703" lon="5.06984">
        <ele>497</ele>
        <time>2018-05-25T15:11:49 02:00</time>
      </trkpt>
      <trkpt lat="45.23686" lon="5.07005">
        <ele>496.7</ele>
        <time>2018-05-25T15:12:21 02:00</time>
      </trkpt>
      <trkpt lat="45.23662" lon="5.07015">
        <ele>496.2</ele>
        <time>2018-05-25T15:12:33 02:00</time>
      </trkpt>
      <trkpt lat="45.23639" lon="5.07024">
        <ele>494.9</ele>
        <time>2018-05-25T15:12:46 02:00</time>
      </trkpt>
      <trkpt lat="45.23615" lon="5.07027">
        <ele>494.1</ele>
        <time>2018-05-25T15:12:57 02:00</time>
      </trkpt>
      <trkpt lat="45.23593" lon="5.07032">
        <ele>493.5</ele>
        <time>2018-05-25T15:13:05 02:00</time>
      </trkpt>
      <trkpt lat="45.23569" lon="5.07028">
        <ele>492.5</ele>
        <time>2018-05-25T15:13:39 02:00</time>
      </trkpt>
      <trkpt lat="45.2355" lon="5.07048">
        <ele>492</ele>
        <time>2018-05-25T15:13:49 02:00</time>
      </trkpt>
      <trkpt lat="45.23527" lon="5.07034">
        <ele>492</ele>
        <time>2018-05-25T15:13:58 02:00</time>
      </trkpt>
      <trkpt lat="45.23515" lon="5.07006">
        <ele>491.6</ele>
        <time>2018-05-25T15:14:05 02:00</time>
      </trkpt>
      <trkpt lat="45.23501" lon="5.06979">
        <ele>492</ele>
        <time>2018-05-25T15:14:13 02:00</time>
      </trkpt>
      <trkpt lat="45.2349" lon="5.06949">
        <ele>492.4</ele>
        <time>2018-05-25T15:14:23 02:00</time>
      </trkpt>
      <trkpt lat="45.23507" lon="5.06927">
        <ele>491.7</ele>
        <time>2018-05-25T15:14:34 02:00</time>
      </trkpt>
      <trkpt lat="45.2352" lon="5.06898">
        <ele>491.5</ele>
        <time>2018-05-25T15:14:43 02:00</time>
      </trkpt>
      <trkpt lat="45.23521" lon="5.06863">
        <ele>490.5</ele>
        <time>2018-05-25T15:14:52 02:00</time>
      </trkpt>
      <trkpt lat="45.23502" lon="5.06843">
        <ele>491.2</ele>
        <time>2018-05-25T15:15:00 02:00</time>
      </trkpt>
      <trkpt lat="45.23478" lon="5.0684">
        <ele>492.2</ele>
        <time>2018-05-25T15:15:09 02:00</time>
      </trkpt>
      <trkpt lat="45.23455" lon="5.06841">
        <ele>493</ele>
        <time>2018-05-25T15:15:19 02:00</time>
      </trkpt>
      <trkpt lat="45.23433" lon="5.06821">
        <ele>492.5</ele>
        <time>2018-05-25T15:15:26 02:00</time>
      </trkpt>
      <trkpt lat="45.23417" lon="5.06795">
        <ele>491.2</ele>
        <time>2018-05-25T15:15:31 02:00</time>
      </trkpt>
      <trkpt lat="45.23396" lon="5.0678">
        <ele>490.9</ele>
        <time>2018-05-25T15:15:37 02:00</time>
      </trkpt>
      <trkpt lat="45.23372" lon="5.06761">
        <ele>490.1</ele>
        <time>2018-05-25T15:15:44 02:00</time>
      </trkpt>
      <trkpt lat="45.23349" lon="5.06749">
        <ele>489.9</ele>
        <time>2018-05-25T15:15:50 02:00</time>
      </trkpt>
      <trkpt lat="45.23327" lon="5.06742">
        <ele>489.5</ele>
        <time>2018-05-25T15:15:56 02:00</time>
      </trkpt>
      <trkpt lat="45.23305" lon="5.06732">
        <ele>489.4</ele>
        <time>2018-05-25T15:16:01 02:00</time>
      </trkpt>
      <trkpt lat="45.2328" lon="5.06722">
        <ele>489</ele>
        <time>2018-05-25T15:16:06 02:00</time>
      </trkpt>
      <trkpt lat="45.23256" lon="5.06713">
        <ele>488.7</ele>
        <time>2018-05-25T15:16:13 02:00</time>
      </trkpt>
      <trkpt lat="45.2323" lon="5.06705">
        <ele>488.4</ele>
        <time>2018-05-25T15:16:19 02:00</time>
      </trkpt>
      <trkpt lat="45.23205" lon="5.06699">
        <ele>488.8</ele>
        <time>2018-05-25T15:16:25 02:00</time>
      </trkpt>
      <trkpt lat="45.2318" lon="5.0669">
        <ele>488.3</ele>
        <time>2018-05-25T15:16:31 02:00</time>
      </trkpt>
      <trkpt lat="45.23158" lon="5.0668">
        <ele>488.3</ele>
        <time>2018-05-25T15:16:37 02:00</time>
      </trkpt>
      <trkpt lat="45.23136" lon="5.06671">
        <ele>489.1</ele>
        <time>2018-05-25T15:16:43 02:00</time>
      </trkpt>
      <trkpt lat="45.23111" lon="5.06668">
        <ele>490</ele>
        <time>2018-05-25T15:16:50 02:00</time>
      </trkpt>
      <trkpt lat="45.23086" lon="5.06665">
        <ele>489.9</ele>
        <time>2018-05-25T15:16:57 02:00</time>
      </trkpt>
      <trkpt lat="45.23062" lon="5.0666">
        <ele>489.8</ele>
        <time>2018-05-25T15:17:04 02:00</time>
      </trkpt>
      <trkpt lat="45.23037" lon="5.06658">
        <ele>489.9</ele>
        <time>2018-05-25T15:17:11 02:00</time>
      </trkpt>
      <trkpt lat="45.23012" lon="5.06657">
        <ele>490.1</ele>
        <time>2018-05-25T15:17:19 02:00</time>
      </trkpt>
      <trkpt lat="45.22989" lon="5.06656">
        <ele>490.2</ele>
        <time>2018-05-25T15:17:26 02:00</time>
      </trkpt>
      <trkpt lat="45.22966" lon="5.06651">
        <ele>489.9</ele>
        <time>2018-05-25T15:17:32 02:00</time>
      </trkpt>
      <trkpt lat="45.22948" lon="5.06631">
        <ele>488.4</ele>
        <time>2018-05-25T15:17:37 02:00</time>
      </trkpt>
      <trkpt lat="45.2294" lon="5.066">
        <ele>486.1</ele>
        <time>2018-05-25T15:17:41 02:00</time>
      </trkpt>
      <trkpt lat="45.22939" lon="5.06562">
        <ele>482.6</ele>
        <time>2018-05-25T15:17:45 02:00</time>
      </trkpt>
      <trkpt lat="45.2294" lon="5.06521">
        <ele>479.4</ele>
        <time>2018-05-25T15:17:49 02:00</time>
      </trkpt>
      <trkpt lat="45.22936" lon="5.06488">
        <ele>476.7</ele>
        <time>2018-05-25T15:17:54 02:00</time>
      </trkpt>
      <trkpt lat="45.22956" lon="5.06474">
        <ele>476.1</ele>
        <time>2018-05-25T15:18:05 02:00</time>
      </trkpt>
      <trkpt lat="45.22972" lon="5.06445">
        <ele>474</ele>
        <time>2018-05-25T15:18:11 02:00</time>
      </trkpt>
      <trkpt lat="45.22997" lon="5.06429">
        <ele>472.3</ele>
        <time>2018-05-25T15:18:16 02:00</time>
      </trkpt>
      <trkpt lat="45.2302" lon="5.06425">
        <ele>471.9</ele>
        <time>2018-05-25T15:18:20 02:00</time>
      </trkpt>
      <trkpt lat="45.23047" lon="5.06418">
        <ele>471.8</ele>
        <time>2018-05-25T15:18:25 02:00</time>
      </trkpt>
      <trkpt lat="45.23071" lon="5.06411">
        <ele>471.3</ele>
        <time>2018-05-25T15:18:30 02:00</time>
      </trkpt>
      <trkpt lat="45.23094" lon="5.06404">
        <ele>470.6</ele>
        <time>2018-05-25T15:18:35 02:00</time>
      </trkpt>
      <trkpt lat="45.23117" lon="5.06392">
        <ele>469.3</ele>
        <time>2018-05-25T15:18:40 02:00</time>
      </trkpt>
      <trkpt lat="45.2314" lon="5.0638">
        <ele>467.6</ele>
        <time>2018-05-25T15:18:44 02:00</time>
      </trkpt>
      <trkpt lat="45.23165" lon="5.06379">
        <ele>466.6</ele>
        <time>2018-05-25T15:18:48 02:00</time>
      </trkpt>
      <trkpt lat="45.23193" lon="5.06375">
        <ele>464.1</ele>
        <time>2018-05-25T15:18:53 02:00</time>
      </trkpt>
      <trkpt lat="45.23222" lon="5.0638">
        <ele>461.4</ele>
        <time>2018-05-25T15:18:57 02:00</time>
      </trkpt>
      <trkpt lat="45.23245" lon="5.0638">
        <ele>459.7</ele>
        <time>2018-05-25T15:19:01 02:00</time>
      </trkpt>
      <trkpt lat="45.23271" lon="5.06387">
        <ele>456.8</ele>
        <time>2018-05-25T15:19:06 02:00</time>
      </trkpt>
      <trkpt lat="45.23293" lon="5.06401">
        <ele>454.7</ele>
        <time>2018-05-25T15:19:10 02:00</time>
      </trkpt>
      <trkpt lat="45.23315" lon="5.0642">
        <ele>454.2</ele>
        <time>2018-05-25T15:19:13 02:00</time>
      </trkpt>
      <trkpt lat="45.23337" lon="5.06436">
        <ele>454.2</ele>
        <time>2018-05-25T15:19:16 02:00</time>
      </trkpt>
      <trkpt lat="45.23359" lon="5.06444">
        <ele>455.8</ele>
        <time>2018-05-25T15:19:22 02:00</time>
      </trkpt>
      <trkpt lat="45.23382" lon="5.0644">
        <ele>459.1</ele>
        <time>2018-05-25T15:19:42 02:00</time>
      </trkpt>
      <trkpt lat="45.23398" lon="5.06415">
        <ele>463.1</ele>
        <time>2018-05-25T15:19:56 02:00</time>
      </trkpt>
      <trkpt lat="45.23404" lon="5.06384">
        <ele>466</ele>
        <time>2018-05-25T15:20:13 02:00</time>
      </trkpt>
      <trkpt lat="45.23411" lon="5.06353">
        <ele>468.2</ele>
        <time>2018-05-25T15:20:29 02:00</time>
      </trkpt>
      <trkpt lat="45.23418" lon="5.06323">
        <ele>470.7</ele>
        <time>2018-05-25T15:20:48 02:00</time>
      </trkpt>
      <trkpt lat="45.23423" lon="5.06291">
        <ele>472.2</ele>
        <time>2018-05-25T15:21:10 02:00</time>
      </trkpt>
      <trkpt lat="45.2343" lon="5.06259">
        <ele>473</ele>
        <time>2018-05-25T15:22:23 02:00</time>
      </trkpt>
      <trkpt lat="45.23445" lon="5.06234">
        <ele>475.1</ele>
        <time>2018-05-25T15:22:43 02:00</time>
      </trkpt>
      <trkpt lat="45.23462" lon="5.06212">
        <ele>477.2</ele>
        <time>2018-05-25T15:23:06 02:00</time>
      </trkpt>
      <trkpt lat="45.23483" lon="5.06195">
        <ele>479.1</ele>
        <time>2018-05-25T15:23:26 02:00</time>
      </trkpt>
      <trkpt lat="45.23496" lon="5.06169">
        <ele>480.4</ele>
        <time>2018-05-25T15:23:40 02:00</time>
      </trkpt>
      <trkpt lat="45.23507" lon="5.06141">
        <ele>480.6</ele>
        <time>2018-05-25T15:23:51 02:00</time>
      </trkpt>
      <trkpt lat="45.23516" lon="5.0611">
        <ele>481.1</ele>
        <time>2018-05-25T15:24:02 02:00</time>
      </trkpt>
      <trkpt lat="45.23515" lon="5.06077">
        <ele>481.2</ele>
        <time>2018-05-25T15:24:15 02:00</time>
      </trkpt>
      <trkpt lat="45.23502" lon="5.06045">
        <ele>480.6</ele>
        <time>2018-05-25T15:24:29 02:00</time>
      </trkpt>
      <trkpt lat="45.23495" lon="5.06009">
        <ele>481.2</ele>
        <time>2018-05-25T15:24:36 02:00</time>
      </trkpt>
      <trkpt lat="45.23489" lon="5.05975">
        <ele>480.8</ele>
        <time>2018-05-25T15:24:42 02:00</time>
      </trkpt>
      <trkpt lat="45.23483" lon="5.05944">
        <ele>480.7</ele>
        <time>2018-05-25T15:24:47 02:00</time>
      </trkpt>
      <trkpt lat="45.23475" lon="5.05912">
        <ele>480.2</ele>
        <time>2018-05-25T15:24:52 02:00</time>
      </trkpt>
      <trkpt lat="45.23468" lon="5.05875">
        <ele>479.5</ele>
        <time>2018-05-25T15:24:57 02:00</time>
      </trkpt>
      <trkpt lat="45.23461" lon="5.05845">
        <ele>478.7</ele>
        <time>2018-05-25T15:25:01 02:00</time>
      </trkpt>
      <trkpt lat="45.23451" lon="5.05814">
        <ele>477.7</ele>
        <time>2018-05-25T15:25:05 02:00</time>
      </trkpt>
      <trkpt lat="45.23442" lon="5.05784">
        <ele>476.7</ele>
        <time>2018-05-25T15:25:09 02:00</time>
      </trkpt>
      <trkpt lat="45.23431" lon="5.0575">
        <ele>476.6</ele>
        <time>2018-05-25T15:25:14 02:00</time>
      </trkpt>
      <trkpt lat="45.23422" lon="5.05716">
        <ele>476.5</ele>
        <time>2018-05-25T15:25:19 02:00</time>
      </trkpt>
      <trkpt lat="45.2341" lon="5.05684">
        <ele>476.4</ele>
        <time>2018-05-25T15:25:24 02:00</time>
      </trkpt>
      <trkpt lat="45.23399" lon="5.05652">
        <ele>476.2</ele>
        <time>2018-05-25T15:25:29 02:00</time>
      </trkpt>
      <trkpt lat="45.23385" lon="5.0562">
        <ele>476.3</ele>
        <time>2018-05-25T15:25:34 02:00</time>
      </trkpt>
      <trkpt lat="45.23369" lon="5.05592">
        <ele>476.2</ele>
        <time>2018-05-25T15:25:39 02:00</time>
      </trkpt>
      <trkpt lat="45.23348" lon="5.05574">
        <ele>475.5</ele>
        <time>2018-05-25T15:25:44 02:00</time>
      </trkpt>
      <trkpt lat="45.23324" lon="5.05562">
        <ele>475.6</ele>
        <time>2018-05-25T15:25:49 02:00</time>
      </trkpt>
      <trkpt lat="45.23304" lon="5.05543">
        <ele>476.4</ele>
        <time>2018-05-25T15:25:54 02:00</time>
      </trkpt>
      <trkpt lat="45.23278" lon="5.05541">
        <ele>476.1</ele>
        <time>2018-05-25T15:26:01 02:00</time>
      </trkpt>
      <trkpt lat="45.23255" lon="5.05551">
        <ele>475.4</ele>
        <time>2018-05-25T15:26:06 02:00</time>
      </trkpt>
      <trkpt lat="45.2323" lon="5.05561">
        <ele>475.2</ele>
        <time>2018-05-25T15:26:11 02:00</time>
      </trkpt>
      <trkpt lat="45.23206" lon="5.05568">
        <ele>474.6</ele>
        <time>2018-05-25T15:26:16 02:00</time>
      </trkpt>
      <trkpt lat="45.23183" lon="5.05568">
        <ele>474.7</ele>
        <time>2018-05-25T15:26:20 02:00</time>
      </trkpt>
      <trkpt lat="45.2316" lon="5.05562">
        <ele>475.4</ele>
        <time>2018-05-25T15:26:25 02:00</time>
      </trkpt>
      <trkpt lat="45.23133" lon="5.05554">
        <ele>476.1</ele>
        <time>2018-05-25T15:26:29 02:00</time>
      </trkpt>
      <trkpt lat="45.23112" lon="5.0554">
        <ele>477.1</ele>
        <time>2018-05-25T15:26:35 02:00</time>
      </trkpt>
      <trkpt lat="45.23099" lon="5.05511">
        <ele>479</ele>
        <time>2018-05-25T15:26:42 02:00</time>
      </trkpt>
      <trkpt lat="45.23083" lon="5.05487">
        <ele>479.9</ele>
        <time>2018-05-25T15:26:50 02:00</time>
      </trkpt>
      <trkpt lat="45.23066" lon="5.05461">
        <ele>480.8</ele>
        <time>2018-05-25T15:26:58 02:00</time>
      </trkpt>
      <trkpt lat="45.23053" lon="5.05432">
        <ele>481.3</ele>
        <time>2018-05-25T15:27:06 02:00</time>
      </trkpt>
      <trkpt lat="45.23045" lon="5.05399">
        <ele>482</ele>
        <time>2018-05-25T15:27:14 02:00</time>
      </trkpt>
      <trkpt lat="45.23042" lon="5.05365">
        <ele>482</ele>
        <time>2018-05-25T15:27:21 02:00</time>
      </trkpt>
      <trkpt lat="45.23036" lon="5.05333">
        <ele>481.6</ele>
        <time>2018-05-25T15:27:27 02:00</time>
      </trkpt>
      <trkpt lat="45.23027" lon="5.05301">
        <ele>480.9</ele>
        <time>2018-05-25T15:27:32 02:00</time>
      </trkpt>
      <trkpt lat="45.23018" lon="5.05268">
        <ele>480.2</ele>
        <time>2018-05-25T15:27:37 02:00</time>
      </trkpt>
      <trkpt lat="45.23012" lon="5.05237">
        <ele>479.7</ele>
        <time>2018-05-25T15:27:42 02:00</time>
      </trkpt>
      <trkpt lat="45.23004" lon="5.05203">
        <ele>480.1</ele>
        <time>2018-05-25T15:27:47 02:00</time>
      </trkpt>
      <trkpt lat="45.22991" lon="5.05175">
        <ele>480.5</ele>
        <time>2018-05-25T15:27:52 02:00</time>
      </trkpt>
      <trkpt lat="45.2298" lon="5.05146">
        <ele>481.1</ele>
        <time>2018-05-25T15:27:59 02:00</time>
      </trkpt>
      <trkpt lat="45.22967" lon="5.05119">
        <ele>481.3</ele>
        <time>2018-05-25T15:28:11 02:00</time>
      </trkpt>
      <trkpt lat="45.22951" lon="5.05094">
        <ele>481.6</ele>
        <time>2018-05-25T15:28:20 02:00</time>
      </trkpt>
      <trkpt lat="45.22938" lon="5.05064">
        <ele>482.4</ele>
        <time>2018-05-25T15:28:27 02:00</time>
      </trkpt>
      <trkpt lat="45.22917" lon="5.05044">
        <ele>482.4</ele>
        <time>2018-05-25T15:28:36 02:00</time>
      </trkpt>
      <trkpt lat="45.22902" lon="5.0502">
        <ele>483</ele>
        <time>2018-05-25T15:28:43 02:00</time>
      </trkpt>
      <trkpt lat="45.22882" lon="5.04999">
        <ele>482.8</ele>
        <time>2018-05-25T15:28:50 02:00</time>
      </trkpt>
      <trkpt lat="45.2286" lon="5.04985">
        <ele>482.5</ele>
        <time>2018-05-25T15:28:56 02:00</time>
      </trkpt>
      <trkpt lat="45.22837" lon="5.04971">
        <ele>482.2</ele>
        <time>2018-05-25T15:29:02 02:00</time>
      </trkpt>
      <trkpt lat="45.22814" lon="5.04957">
        <ele>481.9</ele>
        <time>2018-05-25T15:29:08 02:00</time>
      </trkpt>
      <trkpt lat="45.22789" lon="5.04946">
        <ele>481.9</ele>
        <time>2018-05-25T15:29:15 02:00</time>
      </trkpt>
      <trkpt lat="45.22767" lon="5.04939">
        <ele>481.8</ele>
        <time>2018-05-25T15:29:21 02:00</time>
      </trkpt>
      <trkpt lat="45.22744" lon="5.04927">
        <ele>481.8</ele>
        <time>2018-05-25T15:29:28 02:00</time>
      </trkpt>
      <trkpt lat="45.22723" lon="5.04912">
        <ele>483</ele>
        <time>2018-05-25T15:29:36 02:00</time>
      </trkpt>
      <trkpt lat="45.22701" lon="5.04897">
        <ele>483.6</ele>
        <time>2018-05-25T15:29:45 02:00</time>
      </trkpt>
      <trkpt lat="45.22678" lon="5.04881">
        <ele>483.9</ele>
        <time>2018-05-25T15:29:54 02:00</time>
      </trkpt>
      <trkpt lat="45.22654" lon="5.04873">
        <ele>484.5</ele>
        <time>2018-05-25T15:30:02 02:00</time>
      </trkpt>
      <trkpt lat="45.22632" lon="5.04866">
        <ele>485.2</ele>
        <time>2018-05-25T15:30:08 02:00</time>
      </trkpt>
      <trkpt lat="45.2261" lon="5.04857">
        <ele>485.8</ele>
        <time>2018-05-25T15:30:14 02:00</time>
      </trkpt>
      <trkpt lat="45.22586" lon="5.04844">
        <ele>485.9</ele>
        <time>2018-05-25T15:30:22 02:00</time>
      </trkpt>
      <trkpt lat="45.22564" lon="5.04831">
        <ele>486.7</ele>
        <time>2018-05-25T15:30:30 02:00</time>
      </trkpt>
      <trkpt lat="45.2254" lon="5.04823">
        <ele>488.3</ele>
        <time>2018-05-25T15:30:38 02:00</time>
      </trkpt>
      <trkpt lat="45.22518" lon="5.04813">
        <ele>490.3</ele>
        <time>2018-05-25T15:30:46 02:00</time>
      </trkpt>
      <trkpt lat="45.22533" lon="5.04788">
        <ele>489.3</ele>
        <time>2018-05-25T15:31:54 02:00</time>
      </trkpt>
      <trkpt lat="45.22561" lon="5.04784">
        <ele>485.8</ele>
        <time>2018-05-25T15:31:59 02:00</time>
      </trkpt>
      <trkpt lat="45.22586" lon="5.04775">
        <ele>483.7</ele>
        <time>2018-05-25T15:32:03 02:00</time>
      </trkpt>
      <trkpt lat="45.22612" lon="5.04762">
        <ele>481.2</ele>
        <time>2018-05-25T15:32:07 02:00</time>
      </trkpt>
      <trkpt lat="45.2264" lon="5.04752">
        <ele>478.1</ele>
        <time>2018-05-25T15:32:11 02:00</time>
      </trkpt>
      <trkpt lat="45.22664" lon="5.04743">
        <ele>475.1</ele>
        <time>2018-05-25T15:32:14 02:00</time>
      </trkpt>
      <trkpt lat="45.22687" lon="5.04734">
        <ele>472.2</ele>
        <time>2018-05-25T15:32:17 02:00</time>
      </trkpt>
      <trkpt lat="45.22709" lon="5.04728">
        <ele>469.7</ele>
        <time>2018-05-25T15:32:20 02:00</time>
      </trkpt>
      <trkpt lat="45.22738" lon="5.04726">
        <ele>466.8</ele>
        <time>2018-05-25T15:32:24 02:00</time>
      </trkpt>
      <trkpt lat="45.22767" lon="5.04727">
        <ele>463.2</ele>
        <time>2018-05-25T15:32:28 02:00</time>
      </trkpt>
      <trkpt lat="45.22793" lon="5.04725">
        <ele>459.7</ele>
        <time>2018-05-25T15:32:31 02:00</time>
      </trkpt>
      <trkpt lat="45.2282" lon="5.04719">
        <ele>456.6</ele>
        <time>2018-05-25T15:32:34 02:00</time>
      </trkpt>
      <trkpt lat="45.22846" lon="5.04713">
        <ele>454</ele>
        <time>2018-05-25T15:32:37 02:00</time>
      </trkpt>
      <trkpt lat="45.22871" lon="5.04711">
        <ele>451.7</ele>
        <time>2018-05-25T15:32:40 02:00</time>
      </trkpt>
      <trkpt lat="45.22894" lon="5.04707">
        <ele>449.6</ele>
        <time>2018-05-25T15:32:43 02:00</time>
      </trkpt>
      <trkpt lat="45.22921" lon="5.04704">
        <ele>448</ele>
        <time>2018-05-25T15:32:47 02:00</time>
      </trkpt>
      <trkpt lat="45.22944" lon="5.047">
        <ele>444.8</ele>
        <time>2018-05-25T15:32:51 02:00</time>
      </trkpt>
      <trkpt lat="45.22966" lon="5.04693">
        <ele>441.4</ele>
        <time>2018-05-25T15:32:54 02:00</time>
      </trkpt>
      <trkpt lat="45.22993" lon="5.04688">
        <ele>437.3</ele>
        <time>2018-05-25T15:32:58 02:00</time>
      </trkpt>
      <trkpt lat="45.23021" lon="5.04683">
        <ele>433.2</ele>
        <time>2018-05-25T15:33:02 02:00</time>
      </trkpt>
      <trkpt lat="45.23047" lon="5.04676">
        <ele>429.7</ele>
        <time>2018-05-25T15:33:05 02:00</time>
      </trkpt>
      <trkpt lat="45.23074" lon="5.04668">
        <ele>426.9</ele>
        <time>2018-05-25T15:33:08 02:00</time>
      </trkpt>
      <trkpt lat="45.23099" lon="5.04669">
        <ele>425.7</ele>
        <time>2018-05-25T15:33:11 02:00</time>
      </trkpt>
      <trkpt lat="45.23123" lon="5.0467">
        <ele>425.7</ele>
        <time>2018-05-25T15:33:14 02:00</time>
      </trkpt>
      <trkpt lat="45.23149" lon="5.0467">
        <ele>427.1</ele>
        <time>2018-05-25T15:33:18 02:00</time>
      </trkpt>
      <trkpt lat="45.23171" lon="5.04668">
        <ele>428.1</ele>
        <time>2018-05-25T15:33:23 02:00</time>
      </trkpt>
      <trkpt lat="45.23194" lon="5.04668">
        <ele>428.2</ele>
        <time>2018-05-25T15:33:31 02:00</time>
      </trkpt>
      <trkpt lat="45.23218" lon="5.04669">
        <ele>427.4</ele>
        <time>2018-05-25T15:33:37 02:00</time>
      </trkpt>
      <trkpt lat="45.23244" lon="5.04672">
        <ele>426.8</ele>
        <time>2018-05-25T15:33:42 02:00</time>
      </trkpt>
      <trkpt lat="45.23269" lon="5.04671">
        <ele>426.5</ele>
        <time>2018-05-25T15:33:47 02:00</time>
      </trkpt>
      <trkpt lat="45.23296" lon="5.04669">
        <ele>425.6</ele>
        <time>2018-05-25T15:33:52 02:00</time>
      </trkpt>
      <trkpt lat="45.23321" lon="5.04665">
        <ele>424.1</ele>
        <time>2018-05-25T15:33:56 02:00</time>
      </trkpt>
      <trkpt lat="45.23346" lon="5.0466">
        <ele>422.3</ele>
        <time>2018-05-25T15:34:00 02:00</time>
      </trkpt>
      <trkpt lat="45.23374" lon="5.04653">
        <ele>420.5</ele>
        <time>2018-05-25T15:34:04 02:00</time>
      </trkpt>
      <trkpt lat="45.23401" lon="5.04645">
        <ele>419.5</ele>
        <time>2018-05-25T15:34:08 02:00</time>
      </trkpt>
      <trkpt lat="45.23427" lon="5.04641">
        <ele>417.7</ele>
        <time>2018-05-25T15:34:12 02:00</time>
      </trkpt>
      <trkpt lat="45.23454" lon="5.04637">
        <ele>413.8</ele>
        <time>2018-05-25T15:34:16 02:00</time>
      </trkpt>
      <trkpt lat="45.23479" lon="5.04638">
        <ele>409.4</ele>
        <time>2018-05-25T15:34:20 02:00</time>
      </trkpt>
      <trkpt lat="45.23507" lon="5.04648">
        <ele>406.6</ele>
        <time>2018-05-25T15:34:24 02:00</time>
      </trkpt>
      <trkpt lat="45.2353" lon="5.04652">
        <ele>404</ele>
        <time>2018-05-25T15:34:27 02:00</time>
      </trkpt>
      <trkpt lat="45.23557" lon="5.04652">
        <ele>399.8</ele>
        <time>2018-05-25T15:34:30 02:00</time>
      </trkpt>
      <trkpt lat="45.23586" lon="5.04655">
        <ele>397.5</ele>
        <time>2018-05-25T15:34:33 02:00</time>
      </trkpt>
      <trkpt lat="45.23614" lon="5.04657">
        <ele>395.9</ele>
        <time>2018-05-25T15:34:36 02:00</time>
      </trkpt>
      <trkpt lat="45.23639" lon="5.04659">
        <ele>395.4</ele>
        <time>2018-05-25T15:34:39 02:00</time>
      </trkpt>
      <trkpt lat="45.23668" lon="5.04659">
        <ele>396.5</ele>
        <time>2018-05-25T15:34:43 02:00</time>
      </trkpt>
      <trkpt lat="45.23691" lon="5.04656">
        <ele>397.6</ele>
        <time>2018-05-25T15:34:47 02:00</time>
      </trkpt>
      <trkpt lat="45.23718" lon="5.04645">
        <ele>397.7</ele>
        <time>2018-05-25T15:35:26 02:00</time>
      </trkpt>
      <trkpt lat="45.2373" lon="5.04617">
        <ele>394.3</ele>
        <time>2018-05-25T15:35:31 02:00</time>
      </trkpt>
      <trkpt lat="45.23752" lon="5.04605">
        <ele>392.2</ele>
        <time>2018-05-25T15:35:36 02:00</time>
      </trkpt>
      <trkpt lat="45.23747" lon="5.04568">
        <ele>389.6</ele>
        <time>2018-05-25T15:35:48 02:00</time>
      </trkpt>
      <trkpt lat="45.23743" lon="5.04534">
        <ele>388.3</ele>
        <time>2018-05-25T15:35:57 02:00</time>
      </trkpt>
      <trkpt lat="45.23742" lon="5.04496">
        <ele>386.5</ele>
        <time>2018-05-25T15:36:02 02:00</time>
      </trkpt>
      <trkpt lat="45.23741" lon="5.0446">
        <ele>383.7</ele>
        <time>2018-05-25T15:36:06 02:00</time>
      </trkpt>
      <trkpt lat="45.2374" lon="5.04428">
        <ele>380.8</ele>
        <time>2018-05-25T15:36:09 02:00</time>
      </trkpt>
      <trkpt lat="45.23737" lon="5.04392">
        <ele>376.8</ele>
        <time>2018-05-25T15:36:12 02:00</time>
      </trkpt>
      <trkpt lat="45.23731" lon="5.04357">
        <ele>373.6</ele>
        <time>2018-05-25T15:36:15 02:00</time>
      </trkpt>
      <trkpt lat="45.2372" lon="5.04321">
        <ele>370</ele>
        <time>2018-05-25T15:36:18 02:00</time>
      </trkpt>
      <trkpt lat="45.2371" lon="5.04284">
        <ele>367.4</ele>
        <time>2018-05-25T15:36:21 02:00</time>
      </trkpt>
      <trkpt lat="45.23699" lon="5.04248">
        <ele>364.1</ele>
        <time>2018-05-25T15:36:24 02:00</time>
      </trkpt>
      <trkpt lat="45.23687" lon="5.04218">
        <ele>364</ele>
        <time>2018-05-25T15:36:27 02:00</time>
      </trkpt>
      <trkpt lat="45.23677" lon="5.0419">
        <ele>367.1</ele>
        <time>2018-05-25T15:36:47 02:00</time>
      </trkpt>
      <trkpt lat="45.23664" lon="5.04162">
        <ele>371.3</ele>
        <time>2018-05-25T15:37:23 02:00</time>
      </trkpt>
      <trkpt lat="45.23653" lon="5.04132">
        <ele>373.5</ele>
        <time>2018-05-25T15:37:40 02:00</time>
      </trkpt>
      <trkpt lat="45.23641" lon="5.04104">
        <ele>376.4</ele>
        <time>2018-05-25T15:38:02 02:00</time>
      </trkpt>
      <trkpt lat="45.23629" lon="5.04075">
        <ele>379.3</ele>
        <time>2018-05-25T15:38:29 02:00</time>
      </trkpt>
      <trkpt lat="45.23649" lon="5.04058">
        <ele>378.2</ele>
        <time>2018-05-25T15:38:44 02:00</time>
      </trkpt>
      <trkpt lat="45.23673" lon="5.04052">
        <ele>376.7</ele>
        <time>2018-05-25T15:38:50 02:00</time>
      </trkpt>
      <trkpt lat="45.23674" lon="5.0402">
        <ele>377.8</ele>
        <time>2018-05-25T15:39:16 02:00</time>
      </trkpt>
      <trkpt lat="45.23659" lon="5.03993">
        <ele>379.3</ele>
        <time>2018-05-25T15:39:35 02:00</time>
      </trkpt>
      <trkpt lat="45.23638" lon="5.03979">
        <ele>380.3</ele>
        <time>2018-05-25T15:39:52 02:00</time>
      </trkpt>
      <trkpt lat="45.23614" lon="5.03983">
        <ele>382.1</ele>
        <time>2018-05-25T15:40:10 02:00</time>
      </trkpt>
      <trkpt lat="45.23591" lon="5.03988">
        <ele>384.4</ele>
        <time>2018-05-25T15:40:27 02:00</time>
      </trkpt>
      <trkpt lat="45.23567" lon="5.03993">
        <ele>386.5</ele>
        <time>2018-05-25T15:41:02 02:00</time>
      </trkpt>
      <trkpt lat="45.23545" lon="5.04001">
        <ele>388.4</ele>
        <time>2018-05-25T15:41:24 02:00</time>
      </trkpt>
      <trkpt lat="45.23522" lon="5.04009">
        <ele>390.4</ele>
        <time>2018-05-25T15:41:40 02:00</time>
      </trkpt>
      <trkpt lat="45.23499" lon="5.04014">
        <ele>392.5</ele>
        <time>2018-05-25T15:41:53 02:00</time>
      </trkpt>
      <trkpt lat="45.23475" lon="5.04015">
        <ele>394</ele>
        <time>2018-05-25T15:42:07 02:00</time>
      </trkpt>
      <trkpt lat="45.23451" lon="5.04013">
        <ele>395.4</ele>
        <time>2018-05-25T15:42:20 02:00</time>
      </trkpt>
      <trkpt lat="45.23429" lon="5.04017">
        <ele>397.5</ele>
        <time>2018-05-25T15:42:38 02:00</time>
      </trkpt>
      <trkpt lat="45.23406" lon="5.0402">
        <ele>399</ele>
        <time>2018-05-25T15:42:51 02:00</time>
      </trkpt>
      <trkpt lat="45.23382" lon="5.04024">
        <ele>400.9</ele>
        <time>2018-05-25T15:43:06 02:00</time>
      </trkpt>
      <trkpt lat="45.2336" lon="5.04037">
        <ele>402.8</ele>
        <time>2018-05-25T15:43:25 02:00</time>
      </trkpt>
      <trkpt lat="45.23339" lon="5.04051">
        <ele>405.2</ele>
        <time>2018-05-25T15:43:39 02:00</time>
      </trkpt>
      <trkpt lat="45.23317" lon="5.04045">
        <ele>406.9</ele>
        <time>2018-05-25T15:44:01 02:00</time>
      </trkpt>
      <trkpt lat="45.23295" lon="5.04036">
        <ele>409.1</ele>
        <time>2018-05-25T15:44:20 02:00</time>
      </trkpt>
      <trkpt lat="45.23271" lon="5.04033">
        <ele>411.3</ele>
        <time>2018-05-25T15:44:40 02:00</time>
      </trkpt>
      <trkpt lat="45.23248" lon="5.04026">
        <ele>413.4</ele>
        <time>2018-05-25T15:44:59 02:00</time>
      </trkpt>
      <trkpt lat="45.23225" lon="5.04017">
        <ele>416.9</ele>
        <time>2018-05-25T15:45:19 02:00</time>
      </trkpt>
      <trkpt lat="45.23204" lon="5.04004">
        <ele>420.5</ele>
        <time>2018-05-25T15:45:41 02:00</time>
      </trkpt>
      <trkpt lat="45.23184" lon="5.03987">
        <ele>424.2</ele>
        <time>2018-05-25T15:46:08 02:00</time>
      </trkpt>
      <trkpt lat="45.23163" lon="5.03974">
        <ele>427.1</ele>
        <time>2018-05-25T15:46:36 02:00</time>
      </trkpt>
      <trkpt lat="45.2314" lon="5.03965">
        <ele>429.8</ele>
        <time>2018-05-25T15:46:58 02:00</time>
      </trkpt>
      <trkpt lat="45.23117" lon="5.0396">
        <ele>432.4</ele>
        <time>2018-05-25T15:47:19 02:00</time>
      </trkpt>
      <trkpt lat="45.23094" lon="5.03956">
        <ele>434.1</ele>
        <time>2018-05-25T15:47:40 02:00</time>
      </trkpt>
      <trkpt lat="45.23102" lon="5.03922">
        <ele>434.1</ele>
        <time>2018-05-25T15:47:56 02:00</time>
      </trkpt>
      <trkpt lat="45.23114" lon="5.03889">
        <ele>433.1</ele>
        <time>2018-05-25T15:48:03 02:00</time>
      </trkpt>
      <trkpt lat="45.23121" lon="5.03854">
        <ele>431.7</ele>
        <time>2018-05-25T15:48:08 02:00</time>
      </trkpt>
      <trkpt lat="45.23123" lon="5.03814">
        <ele>429.6</ele>
        <time>2018-05-25T15:48:12 02:00</time>
      </trkpt>
      <trkpt lat="45.23123" lon="5.03776">
        <ele>425.5</ele>
        <time>2018-05-25T15:48:15 02:00</time>
      </trkpt>
      <trkpt lat="45.23129" lon="5.03732">
        <ele>422.1</ele>
        <time>2018-05-25T15:48:18 02:00</time>
      </trkpt>
      <trkpt lat="45.23136" lon="5.03686">
        <ele>417.4</ele>
        <time>2018-05-25T15:48:21 02:00</time>
      </trkpt>
      <trkpt lat="45.23154" lon="5.03646">
        <ele>412.2</ele>
        <time>2018-05-25T15:48:24 02:00</time>
      </trkpt>
      <trkpt lat="45.23171" lon="5.03623">
        <ele>408.7</ele>
        <time>2018-05-25T15:48:26 02:00</time>
      </trkpt>
      <trkpt lat="45.23194" lon="5.03595">
        <ele>404</ele>
        <time>2018-05-25T15:48:29 02:00</time>
      </trkpt>
      <trkpt lat="45.23197" lon="5.03563">
        <ele>403.6</ele>
        <time>2018-05-25T15:48:32 02:00</time>
      </trkpt>
      <trkpt lat="45.23181" lon="5.03538">
        <ele>404.5</ele>
        <time>2018-05-25T15:48:36 02:00</time>
      </trkpt>
      <trkpt lat="45.23159" lon="5.03539">
        <ele>403.9</ele>
        <time>2018-05-25T15:48:40 02:00</time>
      </trkpt>
      <trkpt lat="45.23131" lon="5.03552">
        <ele>403.1</ele>
        <time>2018-05-25T15:48:44 02:00</time>
      </trkpt>
      <trkpt lat="45.2311" lon="5.03563">
        <ele>402.4</ele>
        <time>2018-05-25T15:48:47 02:00</time>
      </trkpt>
      <trkpt lat="45.23084" lon="5.03582">
        <ele>401</ele>
        <time>2018-05-25T15:48:51 02:00</time>
      </trkpt>
      <trkpt lat="45.23065" lon="5.03604">
        <ele>398.9</ele>
        <time>2018-05-25T15:48:56 02:00</time>
      </trkpt>
      <trkpt lat="45.23066" lon="5.03564">
        <ele>395.6</ele>
        <time>2018-05-25T15:49:01 02:00</time>
      </trkpt>
      <trkpt lat="45.23066" lon="5.03529">
        <ele>392.6</ele>
        <time>2018-05-25T15:49:04 02:00</time>
      </trkpt>
      <trkpt lat="45.23063" lon="5.03487">
        <ele>388.1</ele>
        <time>2018-05-25T15:49:07 02:00</time>
      </trkpt>
      <trkpt lat="45.23056" lon="5.03453">
        <ele>383</ele>
        <time>2018-05-25T15:49:09 02:00</time>
      </trkpt>
      <trkpt lat="45.23049" lon="5.03418">
        <ele>379.8</ele>
        <time>2018-05-25T15:49:11 02:00</time>
      </trkpt>
      <trkpt lat="45.23042" lon="5.03375">
        <ele>378.3</ele>
        <time>2018-05-25T15:49:14 02:00</time>
      </trkpt>
      <trkpt lat="45.23046" lon="5.03339">
        <ele>377.2</ele>
        <time>2018-05-25T15:49:19 02:00</time>
      </trkpt>
      <trkpt lat="45.23061" lon="5.03315">
        <ele>376.3</ele>
        <time>2018-05-25T15:49:23 02:00</time>
      </trkpt>
      <trkpt lat="45.2308" lon="5.03288">
        <ele>375.8</ele>
        <time>2018-05-25T15:49:28 02:00</time>
      </trkpt>
      <trkpt lat="45.23096" lon="5.03258">
        <ele>374.3</ele>
        <time>2018-05-25T15:49:33 02:00</time>
      </trkpt>
      <trkpt lat="45.23109" lon="5.03228">
        <ele>373.9</ele>
        <time>2018-05-25T15:49:39 02:00</time>
      </trkpt>
      <trkpt lat="45.23127" lon="5.03205">
        <ele>372.3</ele>
        <time>2018-05-25T15:49:45 02:00</time>
      </trkpt>
      <trkpt lat="45.23147" lon="5.03186">
        <ele>370.9</ele>
        <time>2018-05-25T15:49:50 02:00</time>
      </trkpt>
      <trkpt lat="45.23162" lon="5.03162">
        <ele>369.7</ele>
        <time>2018-05-25T15:49:58 02:00</time>
      </trkpt>
      <trkpt lat="45.23181" lon="5.03143">
        <ele>369.9</ele>
        <time>2018-05-25T15:50:14 02:00</time>
      </trkpt>
      <trkpt lat="45.23204" lon="5.03146">
        <ele>369.5</ele>
        <time>2018-05-25T15:50:24 02:00</time>
      </trkpt>
      <trkpt lat="45.23226" lon="5.03137">
        <ele>369.1</ele>
        <time>2018-05-25T15:51:50 02:00</time>
      </trkpt>
      <trkpt lat="45.23248" lon="5.03128">
        <ele>369.3</ele>
        <time>2018-05-25T15:52:04 02:00</time>
      </trkpt>
      <trkpt lat="45.23272" lon="5.03124">
        <ele>369.6</ele>
        <time>2018-05-25T15:52:14 02:00</time>
      </trkpt>
      <trkpt lat="45.23297" lon="5.03119">
        <ele>369.5</ele>
        <time>2018-05-25T15:52:24 02:00</time>
      </trkpt>
      <trkpt lat="45.2332" lon="5.03113">
        <ele>369.4</ele>
        <time>2018-05-25T15:52:32 02:00</time>
      </trkpt>
      <trkpt lat="45.23341" lon="5.03103">
        <ele>370.2</ele>
        <time>2018-05-25T15:52:47 02:00</time>
      </trkpt>
      <trkpt lat="45.23364" lon="5.03102">
        <ele>369.7</ele>
        <time>2018-05-25T15:52:59 02:00</time>
      </trkpt>
      <trkpt lat="45.23388" lon="5.03115">
        <ele>367.4</ele>
        <time>2018-05-25T15:53:06 02:00</time>
      </trkpt>
      <trkpt lat="45.23406" lon="5.03139">
        <ele>364.1</ele>
        <time>2018-05-25T15:53:11 02:00</time>
      </trkpt>
      <trkpt lat="45.23423" lon="5.03162">
        <ele>362.6</ele>
        <time>2018-05-25T15:53:16 02:00</time>
      </trkpt>
      <trkpt lat="45.23444" lon="5.03178">
        <ele>361.8</ele>
        <time>2018-05-25T15:53:21 02:00</time>
      </trkpt>
      <trkpt lat="45.23463" lon="5.03195">
        <ele>360.6</ele>
        <time>2018-05-25T15:53:28 02:00</time>
      </trkpt>
      <trkpt lat="45.23486" lon="5.03206">
        <ele>360.4</ele>
        <time>2018-05-25T15:53:35 02:00</time>
      </trkpt>
      <trkpt lat="45.23517" lon="5.03216">
        <ele>360.5</ele>
        <time>2018-05-25T15:53:41 02:00</time>
      </trkpt>
      <trkpt lat="45.23548" lon="5.03224">
        <ele>361.3</ele>
        <time>2018-05-25T15:53:45 02:00</time>
      </trkpt>
      <trkpt lat="45.23566" lon="5.03243">
        <ele>360.2</ele>
        <time>2018-05-25T15:53:51 02:00</time>
      </trkpt>
      <trkpt lat="45.23588" lon="5.03259">
        <ele>360.9</ele>
        <time>2018-05-25T15:54:01 02:00</time>
      </trkpt>
      <trkpt lat="45.23613" lon="5.03273">
        <ele>363.8</ele>
        <time>2018-05-25T15:54:07 02:00</time>
      </trkpt>
      <trkpt lat="45.23632" lon="5.03295">
        <ele>366.6</ele>
        <time>2018-05-25T15:54:15 02:00</time>
      </trkpt>
      <trkpt lat="45.23646" lon="5.0332">
        <ele>368.7</ele>
        <time>2018-05-25T15:54:26 02:00</time>
      </trkpt>
      <trkpt lat="45.23657" lon="5.03352">
        <ele>369.8</ele>
        <time>2018-05-25T15:54:34 02:00</time>
      </trkpt>
      <trkpt lat="45.23668" lon="5.03383">
        <ele>370.6</ele>
        <time>2018-05-25T15:54:43 02:00</time>
      </trkpt>
      <trkpt lat="45.23682" lon="5.03411">
        <ele>370.2</ele>
        <time>2018-05-25T15:54:49 02:00</time>
      </trkpt>
      <trkpt lat="45.23698" lon="5.03436">
        <ele>370.1</ele>
        <time>2018-05-25T15:54:54 02:00</time>
      </trkpt>
      <trkpt lat="45.23721" lon="5.03445">
        <ele>369.8</ele>
        <time>2018-05-25T15:55:00 02:00</time>
      </trkpt>
      <trkpt lat="45.23746" lon="5.03452">
        <ele>367.4</ele>
        <time>2018-05-25T15:55:06 02:00</time>
      </trkpt>
      <trkpt lat="45.23772" lon="5.03461">
        <ele>364.3</ele>
        <time>2018-05-25T15:55:12 02:00</time>
      </trkpt>
      <trkpt lat="45.23796" lon="5.03459">
        <ele>363</ele>
        <time>2018-05-25T15:55:17 02:00</time>
      </trkpt>
      <trkpt lat="45.2382" lon="5.03455">
        <ele>362.4</ele>
        <time>2018-05-25T15:55:22 02:00</time>
      </trkpt>
      <trkpt lat="45.23846" lon="5.03447">
        <ele>362.2</ele>
        <time>2018-05-25T15:55:27 02:00</time>
      </trkpt>
      <trkpt lat="45.23869" lon="5.03438">
        <ele>362.1</ele>
        <time>2018-05-25T15:55:31 02:00</time>
      </trkpt>
      <trkpt lat="45.23895" lon="5.03424">
        <ele>362</ele>
        <time>2018-05-25T15:55:36 02:00</time>
      </trkpt>
      <trkpt lat="45.23916" lon="5.03414">
        <ele>362.3</ele>
        <time>2018-05-25T15:55:40 02:00</time>
      </trkpt>
      <trkpt lat="45.23936" lon="5.03396">
        <ele>363.2</ele>
        <time>2018-05-25T15:55:45 02:00</time>
      </trkpt>
      <trkpt lat="45.23961" lon="5.03388">
        <ele>364.2</ele>
        <time>2018-05-25T15:55:52 02:00</time>
      </trkpt>
      <trkpt lat="45.23985" lon="5.03388">
        <ele>365.1</ele>
        <time>2018-05-25T15:55:59 02:00</time>
      </trkpt>
      <trkpt lat="45.2401" lon="5.03386">
        <ele>366.4</ele>
        <time>2018-05-25T15:56:06 02:00</time>
      </trkpt>
      <trkpt lat="45.24035" lon="5.03381">
        <ele>366.9</ele>
        <time>2018-05-25T15:56:13 02:00</time>
      </trkpt>
      <trkpt lat="45.2406" lon="5.03373">
        <ele>368.3</ele>
        <time>2018-05-25T15:56:21 02:00</time>
      </trkpt>
      <trkpt lat="45.24085" lon="5.03364">
        <ele>368.2</ele>
        <time>2018-05-25T15:56:28 02:00</time>
      </trkpt>
      <trkpt lat="45.24108" lon="5.03354">
        <ele>369.5</ele>
        <time>2018-05-25T15:56:37 02:00</time>
      </trkpt>
      <trkpt lat="45.24133" lon="5.03352">
        <ele>369.3</ele>
        <time>2018-05-25T15:56:45 02:00</time>
      </trkpt>
      <trkpt lat="45.24159" lon="5.03348">
        <ele>369.3</ele>
        <time>2018-05-25T15:56:52 02:00</time>
      </trkpt>
      <trkpt lat="45.24184" lon="5.0335">
        <ele>367.2</ele>
        <time>2018-05-25T15:56:56 02:00</time>
      </trkpt>
      <trkpt lat="45.24206" lon="5.03354">
        <ele>365.5</ele>
        <time>2018-05-25T15:56:59 02:00</time>
      </trkpt>
      <trkpt lat="45.24229" lon="5.03355">
        <ele>365.2</ele>
        <time>2018-05-25T15:57:02 02:00</time>
      </trkpt>
      <trkpt lat="45.24253" lon="5.03357">
        <ele>363.2</ele>
        <time>2018-05-25T15:57:05 02:00</time>
      </trkpt>
      <trkpt lat="45.24279" lon="5.03358">
        <ele>361.6</ele>
        <time>2018-05-25T15:57:08 02:00</time>
      </trkpt>
      <trkpt lat="45.24307" lon="5.03352">
        <ele>359.6</ele>
        <time>2018-05-25T15:57:11 02:00</time>
      </trkpt>
      <trkpt lat="45.24336" lon="5.03336">
        <ele>356.4</ele>
        <time>2018-05-25T15:57:14 02:00</time>
      </trkpt>
      <trkpt lat="45.24362" lon="5.03318">
        <ele>356.1</ele>
        <time>2018-05-25T15:57:17 02:00</time>
      </trkpt>
      <trkpt lat="45.24386" lon="5.03295">
        <ele>355</ele>
        <time>2018-05-25T15:57:20 02:00</time>
      </trkpt>
      <trkpt lat="45.24407" lon="5.03271">
        <ele>354.7</ele>
        <time>2018-05-25T15:57:23 02:00</time>
      </trkpt>
      <trkpt lat="45.24426" lon="5.03249">
        <ele>355.1</ele>
        <time>2018-05-25T15:57:26 02:00</time>
      </trkpt>
      <trkpt lat="45.24449" lon="5.03229">
        <ele>355</ele>
        <time>2018-05-25T15:57:30 02:00</time>
      </trkpt>
      <trkpt lat="45.24472" lon="5.03218">
        <ele>354.7</ele>
        <time>2018-05-25T15:57:34 02:00</time>
      </trkpt>
      <trkpt lat="45.24499" lon="5.03209">
        <ele>354</ele>
        <time>2018-05-25T15:57:39 02:00</time>
      </trkpt>
      <trkpt lat="45.24524" lon="5.032">
        <ele>354.6</ele>
        <time>2018-05-25T15:57:45 02:00</time>
      </trkpt>
      <trkpt lat="45.24546" lon="5.03188">
        <ele>354.2</ele>
        <time>2018-05-25T15:57:51 02:00</time>
      </trkpt>
      <trkpt lat="45.24567" lon="5.03174">
        <ele>353.3</ele>
        <time>2018-05-25T15:57:56 02:00</time>
      </trkpt>
      <trkpt lat="45.24586" lon="5.03153">
        <ele>352.7</ele>
        <time>2018-05-25T15:58:01 02:00</time>
      </trkpt>
      <trkpt lat="45.24602" lon="5.03128">
        <ele>351.6</ele>
        <time>2018-05-25T15:58:05 02:00</time>
      </trkpt>
      <trkpt lat="45.24617" lon="5.03102">
        <ele>350.4</ele>
        <time>2018-05-25T15:58:09 02:00</time>
      </trkpt>
      <trkpt lat="45.24634" lon="5.03075">
        <ele>348.8</ele>
        <time>2018-05-25T15:58:13 02:00</time>
      </trkpt>
      <trkpt lat="45.24644" lon="5.03046">
        <ele>348.1</ele>
        <time>2018-05-25T15:58:18 02:00</time>
      </trkpt>
      <trkpt lat="45.24646" lon="5.03011">
        <ele>347.8</ele>
        <time>2018-05-25T15:58:25 02:00</time>
      </trkpt>
      <trkpt lat="45.24627" lon="5.02991">
        <ele>350.9</ele>
        <time>2018-05-25T15:58:38 02:00</time>
      </trkpt>
      <trkpt lat="45.24604" lon="5.02984">
        <ele>353.9</ele>
        <time>2018-05-25T15:58:52 02:00</time>
      </trkpt>
      <trkpt lat="45.24582" lon="5.02975">
        <ele>356.3</ele>
        <time>2018-05-25T15:59:05 02:00</time>
      </trkpt>
      <trkpt lat="45.2456" lon="5.02962">
        <ele>359.9</ele>
        <time>2018-05-25T15:59:23 02:00</time>
      </trkpt>
      <trkpt lat="45.2454" lon="5.02945">
        <ele>362.7</ele>
        <time>2018-05-25T15:59:44 02:00</time>
      </trkpt>
      <trkpt lat="45.2452" lon="5.02927">
        <ele>365.6</ele>
        <time>2018-05-25T16:00:04 02:00</time>
      </trkpt>
      <trkpt lat="45.24501" lon="5.0291">
        <ele>367.9</ele>
        <time>2018-05-25T16:00:23 02:00</time>
      </trkpt>
      <trkpt lat="45.24481" lon="5.02892">
        <ele>370.2</ele>
        <time>2018-05-25T16:00:44 02:00</time>
      </trkpt>
      <trkpt lat="45.2446" lon="5.02877">
        <ele>372.4</ele>
        <time>2018-05-25T16:01:03 02:00</time>
      </trkpt>
      <trkpt lat="45.24437" lon="5.0287">
        <ele>374.1</ele>
        <time>2018-05-25T16:01:20 02:00</time>
      </trkpt>
      <trkpt lat="45.24414" lon="5.0288">
        <ele>376.6</ele>
        <time>2018-05-25T16:01:35 02:00</time>
      </trkpt>
      <trkpt lat="45.24396" lon="5.029">
        <ele>377.9</ele>
        <time>2018-05-25T16:01:49 02:00</time>
      </trkpt>
      <trkpt lat="45.24379" lon="5.02922">
        <ele>380.2</ele>
        <time>2018-05-25T16:02:04 02:00</time>
      </trkpt>
      <trkpt lat="45.24362" lon="5.02945">
        <ele>382.1</ele>
        <time>2018-05-25T16:02:21 02:00</time>
      </trkpt>
      <trkpt lat="45.24343" lon="5.02965">
        <ele>384.5</ele>
        <time>2018-05-25T16:02:40 02:00</time>
      </trkpt>
      <trkpt lat="45.24322" lon="5.0298">
        <ele>387.1</ele>
        <time>2018-05-25T16:02:59 02:00</time>
      </trkpt>
      <trkpt lat="45.24301" lon="5.02991">
        <ele>388.8</ele>
        <time>2018-05-25T16:03:19 02:00</time>
      </trkpt>
      <trkpt lat="45.24279" lon="5.03003">
        <ele>391.3</ele>
        <time>2018-05-25T16:03:38 02:00</time>
      </trkpt>
      <trkpt lat="45.24258" lon="5.03017">
        <ele>393.3</ele>
        <time>2018-05-25T16:04:00 02:00</time>
      </trkpt>
      <trkpt lat="45.24241" lon="5.03039">
        <ele>395.9</ele>
        <time>2018-05-25T16:04:26 02:00</time>
      </trkpt>
      <trkpt lat="45.24217" lon="5.03043">
        <ele>397.5</ele>
        <time>2018-05-25T16:04:44 02:00</time>
      </trkpt>
      <trkpt lat="45.24193" lon="5.03044">
        <ele>399.3</ele>
        <time>2018-05-25T16:05:01 02:00</time>
      </trkpt>
      <trkpt lat="45.24171" lon="5.03048">
        <ele>401.4</ele>
        <time>2018-05-25T16:05:20 02:00</time>
      </trkpt>
      <trkpt lat="45.24147" lon="5.0305">
        <ele>404.4</ele>
        <time>2018-05-25T16:06:54 02:00</time>
      </trkpt>
      <trkpt lat="45.24125" lon="5.03052">
        <ele>407.9</ele>
        <time>2018-05-25T16:07:14 02:00</time>
      </trkpt>
      <trkpt lat="45.24102" lon="5.03048">
        <ele>411.7</ele>
        <time>2018-05-25T16:07:39 02:00</time>
      </trkpt>
      <trkpt lat="45.2408" lon="5.0304">
        <ele>415.4</ele>
        <time>2018-05-25T16:08:07 02:00</time>
      </trkpt>
      <trkpt lat="45.24057" lon="5.03034">
        <ele>417.9</ele>
        <time>2018-05-25T16:08:32 02:00</time>
      </trkpt>
      <trkpt lat="45.24033" lon="5.03034">
        <ele>419.4</ele>
        <time>2018-05-25T16:08:54 02:00</time>
      </trkpt>
      <trkpt lat="45.2401" lon="5.03033">
        <ele>420.4</ele>
        <time>2018-05-25T16:09:22 02:00</time>
      </trkpt>
      <trkpt lat="45.23987" lon="5.03027">
        <ele>421</ele>
        <time>2018-05-25T16:09:36 02:00</time>
      </trkpt>
      <trkpt lat="45.23964" lon="5.03017">
        <ele>421.9</ele>
        <time>2018-05-25T16:09:50 02:00</time>
      </trkpt>
      <trkpt lat="45.23942" lon="5.03007">
        <ele>422.8</ele>
        <time>2018-05-25T16:10:02 02:00</time>
      </trkpt>
      <trkpt lat="45.23919" lon="5.03002">
        <ele>423.8</ele>
        <time>2018-05-25T16:10:15 02:00</time>
      </trkpt>
      <trkpt lat="45.23898" lon="5.02991">
        <ele>424.2</ele>
        <time>2018-05-25T16:10:27 02:00</time>
      </trkpt>
      <trkpt lat="45.23878" lon="5.02977">
        <ele>424.8</ele>
        <time>2018-05-25T16:10:37 02:00</time>
      </trkpt>
      <trkpt lat="45.23854" lon="5.02973">
        <ele>424.7</ele>
        <time>2018-05-25T16:10:50 02:00</time>
      </trkpt>
      <trkpt lat="45.2383" lon="5.02964">
        <ele>424.3</ele>
        <time>2018-05-25T16:10:59 02:00</time>
      </trkpt>
      <trkpt lat="45.23806" lon="5.02954">
        <ele>424.7</ele>
        <time>2018-05-25T16:11:07 02:00</time>
      </trkpt>
      <trkpt lat="45.23785" lon="5.02937">
        <ele>425.7</ele>
        <time>2018-05-25T16:11:17 02:00</time>
      </trkpt>
      <trkpt lat="45.23765" lon="5.02917">
        <ele>426.5</ele>
        <time>2018-05-25T16:11:28 02:00</time>
      </trkpt>
      <trkpt lat="45.23745" lon="5.029">
        <ele>427.3</ele>
        <time>2018-05-25T16:11:38 02:00</time>
      </trkpt>
      <trkpt lat="45.23721" lon="5.02885">
        <ele>429.1</ele>
        <time>2018-05-25T16:11:48 02:00</time>
      </trkpt>
      <trkpt lat="45.23701" lon="5.0287">
        <ele>429.8</ele>
        <time>2018-05-25T16:11:57 02:00</time>
      </trkpt>
      <trkpt lat="45.23682" lon="5.02851">
        <ele>430.4</ele>
        <time>2018-05-25T16:12:06 02:00</time>
      </trkpt>
      <trkpt lat="45.23661" lon="5.02839">
        <ele>431.2</ele>
        <time>2018-05-25T16:12:18 02:00</time>
      </trkpt>
      <trkpt lat="45.23639" lon="5.02828">
        <ele>432</ele>
        <time>2018-05-25T16:12:27 02:00</time>
      </trkpt>
      <trkpt lat="45.23619" lon="5.02811">
        <ele>433.3</ele>
        <time>2018-05-25T16:12:36 02:00</time>
      </trkpt>
      <trkpt lat="45.23598" lon="5.02797">
        <ele>434.6</ele>
        <time>2018-05-25T16:12:48 02:00</time>
      </trkpt>
      <trkpt lat="45.23576" lon="5.02787">
        <ele>435.9</ele>
        <time>2018-05-25T16:12:57 02:00</time>
      </trkpt>
      <trkpt lat="45.23554" lon="5.02773">
        <ele>437</ele>
        <time>2018-05-25T16:13:12 02:00</time>
      </trkpt>
      <trkpt lat="45.23533" lon="5.02764">
        <ele>437.4</ele>
        <time>2018-05-25T16:13:25 02:00</time>
      </trkpt>
      <trkpt lat="45.23509" lon="5.02754">
        <ele>438.4</ele>
        <time>2018-05-25T16:13:38 02:00</time>
      </trkpt>
      <trkpt lat="45.23484" lon="5.02749">
        <ele>439</ele>
        <time>2018-05-25T16:13:48 02:00</time>
      </trkpt>
      <trkpt lat="45.2346" lon="5.02744">
        <ele>439.3</ele>
        <time>2018-05-25T16:14:01 02:00</time>
      </trkpt>
      <trkpt lat="45.23438" lon="5.02738">
        <ele>439.7</ele>
        <time>2018-05-25T16:14:11 02:00</time>
      </trkpt>
      <trkpt lat="45.23416" lon="5.02731">
        <ele>440.1</ele>
        <time>2018-05-25T16:14:20 02:00</time>
      </trkpt>
      <trkpt lat="45.23393" lon="5.02724">
        <ele>440.8</ele>
        <time>2018-05-25T16:14:31 02:00</time>
      </trkpt>
      <trkpt lat="45.23371" lon="5.02717">
        <ele>440.8</ele>
        <time>2018-05-25T16:14:43 02:00</time>
      </trkpt>
      <trkpt lat="45.23346" lon="5.02714">
        <ele>440.9</ele>
        <time>2018-05-25T16:14:53 02:00</time>
      </trkpt>
      <trkpt lat="45.23321" lon="5.02717">
        <ele>440.6</ele>
        <time>2018-05-25T16:15:01 02:00</time>
      </trkpt>
      <trkpt lat="45.23297" lon="5.02715">
        <ele>440.9</ele>
        <time>2018-05-25T16:15:12 02:00</time>
      </trkpt>
      <trkpt lat="45.23266" lon="5.02706">
        <ele>442.4</ele>
        <time>2018-05-25T16:15:47 02:00</time>
      </trkpt>
      <trkpt lat="45.23247" lon="5.02689">
        <ele>444.4</ele>
        <time>2018-05-25T16:16:17 02:00</time>
      </trkpt>
      <trkpt lat="45.2323" lon="5.02666">
        <ele>446</ele>
        <time>2018-05-25T16:16:27 02:00</time>
      </trkpt>
      <trkpt lat="45.23213" lon="5.02645">
        <ele>446.4</ele>
        <time>2018-05-25T16:16:35 02:00</time>
      </trkpt>
      <trkpt lat="45.2319" lon="5.02635">
        <ele>446</ele>
        <time>2018-05-25T16:16:43 02:00</time>
      </trkpt>
      <trkpt lat="45.2317" lon="5.02619">
        <ele>446.5</ele>
        <time>2018-05-25T16:16:50 02:00</time>
      </trkpt>
      <trkpt lat="45.23151" lon="5.02598">
        <ele>446.6</ele>
        <time>2018-05-25T16:16:58 02:00</time>
      </trkpt>
      <trkpt lat="45.2314" lon="5.02569">
        <ele>448.1</ele>
        <time>2018-05-25T16:17:08 02:00</time>
      </trkpt>
      <trkpt lat="45.23126" lon="5.02544">
        <ele>449.2</ele>
        <time>2018-05-25T16:17:35 02:00</time>
      </trkpt>
      <trkpt lat="45.23117" lon="5.02514">
        <ele>449.7</ele>
        <time>2018-05-25T16:17:52 02:00</time>
      </trkpt>
      <trkpt lat="45.23096" lon="5.02527">
        <ele>450.6</ele>
        <time>2018-05-25T16:18:10 02:00</time>
      </trkpt>
      <trkpt lat="45.23074" lon="5.02522">
        <ele>451</ele>
        <time>2018-05-25T16:18:24 02:00</time>
      </trkpt>
      <trkpt lat="45.23053" lon="5.02507">
        <ele>452.1</ele>
        <time>2018-05-25T16:18:37 02:00</time>
      </trkpt>
      <trkpt lat="45.23031" lon="5.02496">
        <ele>452.5</ele>
        <time>2018-05-25T16:18:55 02:00</time>
      </trkpt>
      <trkpt lat="45.23009" lon="5.02489">
        <ele>452.5</ele>
        <time>2018-05-25T16:19:08 02:00</time>
      </trkpt>
      <trkpt lat="45.22987" lon="5.02475">
        <ele>453.2</ele>
        <time>2018-05-25T16:19:23 02:00</time>
      </trkpt>
      <trkpt lat="45.22964" lon="5.02471">
        <ele>453.1</ele>
        <time>2018-05-25T16:19:41 02:00</time>
      </trkpt>
      <trkpt lat="45.2294" lon="5.02461">
        <ele>454.3</ele>
        <time>2018-05-25T16:20:05 02:00</time>
      </trkpt>
      <trkpt lat="45.22919" lon="5.02447">
        <ele>456.6</ele>
        <time>2018-05-25T16:20:24 02:00</time>
      </trkpt>
      <trkpt lat="45.22898" lon="5.02432">
        <ele>459.3</ele>
        <time>2018-05-25T16:20:43 02:00</time>
      </trkpt>
      <trkpt lat="45.22909" lon="5.02403">
        <ele>460.1</ele>
        <time>2018-05-25T16:21:00 02:00</time>
      </trkpt>
      <trkpt lat="45.22917" lon="5.0237">
        <ele>460</ele>
        <time>2018-05-25T16:21:10 02:00</time>
      </trkpt>
      <trkpt lat="45.22928" lon="5.02337">
        <ele>459.1</ele>
        <time>2018-05-25T16:21:14 02:00</time>
      </trkpt>
      <trkpt lat="45.2294" lon="5.02299">
        <ele>456.9</ele>
        <time>2018-05-25T16:21:18 02:00</time>
      </trkpt>
      <trkpt lat="45.22951" lon="5.02268">
        <ele>455.1</ele>
        <time>2018-05-25T16:21:21 02:00</time>
      </trkpt>
      <trkpt lat="45.22961" lon="5.02228">
        <ele>452.3</ele>
        <time>2018-05-25T16:21:24 02:00</time>
      </trkpt>
      <trkpt lat="45.22971" lon="5.02193">
        <ele>449.9</ele>
        <time>2018-05-25T16:21:27 02:00</time>
      </trkpt>
      <trkpt lat="45.22981" lon="5.02161">
        <ele>448.3</ele>
        <time>2018-05-25T16:21:30 02:00</time>
      </trkpt>
      <trkpt lat="45.22993" lon="5.02127">
        <ele>445.7</ele>
        <time>2018-05-25T16:21:33 02:00</time>
      </trkpt>
      <trkpt lat="45.23001" lon="5.02091">
        <ele>444.2</ele>
        <time>2018-05-25T16:21:36 02:00</time>
      </trkpt>
      <trkpt lat="45.23007" lon="5.02057">
        <ele>443</ele>
        <time>2018-05-25T16:21:39 02:00</time>
      </trkpt>
      <trkpt lat="45.23004" lon="5.02025">
        <ele>441.9</ele>
        <time>2018-05-25T16:21:42 02:00</time>
      </trkpt>
      <trkpt lat="45.22997" lon="5.01991">
        <ele>440.2</ele>
        <time>2018-05-25T16:21:46 02:00</time>
      </trkpt>
      <trkpt lat="45.23011" lon="5.01963">
        <ele>438.7</ele>
        <time>2018-05-25T16:21:51 02:00</time>
      </trkpt>
      <trkpt lat="45.23029" lon="5.01939">
        <ele>437.8</ele>
        <time>2018-05-25T16:21:55 02:00</time>
      </trkpt>
      <trkpt lat="45.23051" lon="5.01911">
        <ele>435.7</ele>
        <time>2018-05-25T16:21:59 02:00</time>
      </trkpt>
      <trkpt lat="45.23069" lon="5.01881">
        <ele>433.2</ele>
        <time>2018-05-25T16:22:03 02:00</time>
      </trkpt>
      <trkpt lat="45.23084" lon="5.01854">
        <ele>431.5</ele>
        <time>2018-05-25T16:22:06 02:00</time>
      </trkpt>
      <trkpt lat="45.23098" lon="5.01822">
        <ele>429.4</ele>
        <time>2018-05-25T16:22:09 02:00</time>
      </trkpt>
      <trkpt lat="45.23114" lon="5.01795">
        <ele>427.1</ele>
        <time>2018-05-25T16:22:12 02:00</time>
      </trkpt>
      <trkpt lat="45.23133" lon="5.01768">
        <ele>424.5</ele>
        <time>2018-05-25T16:22:16 02:00</time>
      </trkpt>
      <trkpt lat="45.23151" lon="5.01746">
        <ele>422.3</ele>
        <time>2018-05-25T16:22:19 02:00</time>
      </trkpt>
      <trkpt lat="45.23169" lon="5.0172">
        <ele>419.9</ele>
        <time>2018-05-25T16:22:22 02:00</time>
      </trkpt>
      <trkpt lat="45.23186" lon="5.01693">
        <ele>418.9</ele>
        <time>2018-05-25T16:22:25 02:00</time>
      </trkpt>
      <trkpt lat="45.23203" lon="5.01667">
        <ele>417</ele>
        <time>2018-05-25T16:22:28 02:00</time>
      </trkpt>
      <trkpt lat="45.23223" lon="5.01649">
        <ele>416.3</ele>
        <time>2018-05-25T16:22:31 02:00</time>
      </trkpt>
      <trkpt lat="45.23243" lon="5.01629">
        <ele>414.9</ele>
        <time>2018-05-25T16:22:34 02:00</time>
      </trkpt>
      <trkpt lat="45.23257" lon="5.016">
        <ele>413.6</ele>
        <time>2018-05-25T16:22:38 02:00</time>
      </trkpt>
      <trkpt lat="45.23278" lon="5.01571">
        <ele>412</ele>
        <time>2018-05-25T16:22:42 02:00</time>
      </trkpt>
      <trkpt lat="45.23298" lon="5.01549">
        <ele>411.2</ele>
        <time>2018-05-25T16:22:45 02:00</time>
      </trkpt>
      <trkpt lat="45.23324" lon="5.01525">
        <ele>410.4</ele>
        <time>2018-05-25T16:22:49 02:00</time>
      </trkpt>
      <trkpt lat="45.23342" lon="5.01498">
        <ele>410.4</ele>
        <time>2018-05-25T16:22:53 02:00</time>
      </trkpt>
      <trkpt lat="45.23355" lon="5.01467">
        <ele>410</ele>
        <time>2018-05-25T16:22:58 02:00</time>
      </trkpt>
      <trkpt lat="45.23367" lon="5.01435">
        <ele>409.7</ele>
        <time>2018-05-25T16:23:03 02:00</time>
      </trkpt>
      <trkpt lat="45.23381" lon="5.01409">
        <ele>408.7</ele>
        <time>2018-05-25T16:23:07 02:00</time>
      </trkpt>
      <trkpt lat="45.23403" lon="5.01383">
        <ele>406.4</ele>
        <time>2018-05-25T16:23:11 02:00</time>
      </trkpt>
      <trkpt lat="45.23424" lon="5.01355">
        <ele>402.8</ele>
        <time>2018-05-25T16:23:15 02:00</time>
      </trkpt>
      <trkpt lat="45.23446" lon="5.01335">
        <ele>399.1</ele>
        <time>2018-05-25T16:23:18 02:00</time>
      </trkpt>
      <trkpt lat="45.23468" lon="5.01321">
        <ele>396.8</ele>
        <time>2018-05-25T16:23:21 02:00</time>
      </trkpt>
      <trkpt lat="45.23499" lon="5.01308">
        <ele>393.3</ele>
        <time>2018-05-25T16:23:24 02:00</time>
      </trkpt>
      <trkpt lat="45.23524" lon="5.01298">
        <ele>388</ele>
        <time>2018-05-25T16:23:27 02:00</time>
      </trkpt>
      <trkpt lat="45.2355" lon="5.01285">
        <ele>382.1</ele>
        <time>2018-05-25T16:23:30 02:00</time>
      </trkpt>
      <trkpt lat="45.23579" lon="5.0127">
        <ele>376.4</ele>
        <time>2018-05-25T16:23:33 02:00</time>
      </trkpt>
      <trkpt lat="45.23606" lon="5.01261">
        <ele>373.1</ele>
        <time>2018-05-25T16:23:36 02:00</time>
      </trkpt>
      <trkpt lat="45.23631" lon="5.01254">
        <ele>369.8</ele>
        <time>2018-05-25T16:23:39 02:00</time>
      </trkpt>
      <trkpt lat="45.23655" lon="5.01238">
        <ele>369.8</ele>
        <time>2018-05-25T16:23:42 02:00</time>
      </trkpt>
      <trkpt lat="45.23678" lon="5.01221">
        <ele>370</ele>
        <time>2018-05-25T16:23:45 02:00</time>
      </trkpt>
      <trkpt lat="45.237" lon="5.01206">
        <ele>368.9</ele>
        <time>2018-05-25T16:23:48 02:00</time>
      </trkpt>
      <trkpt lat="45.23724" lon="5.01194">
        <ele>369.8</ele>
        <time>2018-05-25T16:23:52 02:00</time>
      </trkpt>
      <trkpt lat="45.23747" lon="5.01181">
        <ele>368.7</ele>
        <time>2018-05-25T16:23:58 02:00</time>
      </trkpt>
      <trkpt lat="45.23776" lon="5.01183">
        <ele>366.4</ele>
        <time>2018-05-25T16:24:03 02:00</time>
      </trkpt>
      <trkpt lat="45.23804" lon="5.01186">
        <ele>366.9</ele>
        <time>2018-05-25T16:24:07 02:00</time>
      </trkpt>
      <trkpt lat="45.23829" lon="5.01186">
        <ele>367</ele>
        <time>2018-05-25T16:24:11 02:00</time>
      </trkpt>
      <trkpt lat="45.23854" lon="5.01186">
        <ele>367.2</ele>
        <time>2018-05-25T16:24:16 02:00</time>
      </trkpt>
      <trkpt lat="45.23868" lon="5.01161">
        <ele>367.6</ele>
        <time>2018-05-25T16:24:22 02:00</time>
      </trkpt>
      <trkpt lat="45.23873" lon="5.01128">
        <ele>366</ele>
        <time>2018-05-25T16:24:27 02:00</time>
      </trkpt>
      <trkpt lat="45.23884" lon="5.01096">
        <ele>365.8</ele>
        <time>2018-05-25T16:24:33 02:00</time>
      </trkpt>
      <trkpt lat="45.23908" lon="5.01087">
        <ele>366.7</ele>
        <time>2018-05-25T16:24:40 02:00</time>
      </trkpt>
      <trkpt lat="45.23931" lon="5.01084">
        <ele>367</ele>
        <time>2018-05-25T16:24:47 02:00</time>
      </trkpt>
      <trkpt lat="45.23955" lon="5.01077">
        <ele>366.6</ele>
        <time>2018-05-25T16:24:53 02:00</time>
      </trkpt>
      <trkpt lat="45.23983" lon="5.01075">
        <ele>364.9</ele>
        <time>2018-05-25T16:24:58 02:00</time>
      </trkpt>
      <trkpt lat="45.24013" lon="5.01071">
        <ele>362.1</ele>
        <time>2018-05-25T16:25:02 02:00</time>
      </trkpt>
      <trkpt lat="45.24037" lon="5.01066">
        <ele>359.5</ele>
        <time>2018-05-25T16:25:05 02:00</time>
      </trkpt>
      <trkpt lat="45.24064" lon="5.0106">
        <ele>357.1</ele>
        <time>2018-05-25T16:25:08 02:00</time>
      </trkpt>
      <trkpt lat="45.24093" lon="5.01054">
        <ele>355.3</ele>
        <time>2018-05-25T16:25:11 02:00</time>
      </trkpt>
      <trkpt lat="45.24121" lon="5.01048">
        <ele>353.4</ele>
        <time>2018-05-25T16:25:14 02:00</time>
      </trkpt>
      <trkpt lat="45.2415" lon="5.01043">
        <ele>351.7</ele>
        <time>2018-05-25T16:25:17 02:00</time>
      </trkpt>
      <trkpt lat="45.24177" lon="5.01037">
        <ele>349.9</ele>
        <time>2018-05-25T16:25:20 02:00</time>
      </trkpt>
      <trkpt lat="45.24203" lon="5.01019">
        <ele>347.7</ele>
        <time>2018-05-25T16:25:23 02:00</time>
      </trkpt>
      <trkpt lat="45.24211" lon="5.00978">
        <ele>345.2</ele>
        <time>2018-05-25T16:25:26 02:00</time>
      </trkpt>
      <trkpt lat="45.24205" lon="5.00939">
        <ele>346</ele>
        <time>2018-05-25T16:25:29 02:00</time>
      </trkpt>
      <trkpt lat="45.24201" lon="5.00904">
        <ele>346.3</ele>
        <time>2018-05-25T16:25:33 02:00</time>
      </trkpt>
      <trkpt lat="45.24225" lon="5.00902">
        <ele>343.5</ele>
        <time>2018-05-25T16:25:37 02:00</time>
      </trkpt>
      <trkpt lat="45.24235" lon="5.00937">
        <ele>341.4</ele>
        <time>2018-05-25T16:25:41 02:00</time>
      </trkpt>
      <trkpt lat="45.24239" lon="5.00978">
        <ele>340.6</ele>
        <time>2018-05-25T16:25:45 02:00</time>
      </trkpt>
      <trkpt lat="45.24252" lon="5.01009">
        <ele>339.1</ele>
        <time>2018-05-25T16:25:48 02:00</time>
      </trkpt>
      <trkpt lat="45.24271" lon="5.01037">
        <ele>337.5</ele>
        <time>2018-05-25T16:25:51 02:00</time>
      </trkpt>
      <trkpt lat="45.24299" lon="5.01048">
        <ele>335.7</ele>
        <time>2018-05-25T16:25:54 02:00</time>
      </trkpt>
      <trkpt lat="45.2433" lon="5.01047">
        <ele>333.3</ele>
        <time>2018-05-25T16:25:57 02:00</time>
      </trkpt>
      <trkpt lat="45.24362" lon="5.01049">
        <ele>332.2</ele>
        <time>2018-05-25T16:26:00 02:00</time>
      </trkpt>
      <trkpt lat="45.24384" lon="5.01056">
        <ele>330.5</ele>
        <time>2018-05-25T16:26:31 02:00</time>
      </trkpt>
      <trkpt lat="45.24403" lon="5.01081">
        <ele>328.3</ele>
        <time>2018-05-25T16:26:39 02:00</time>
      </trkpt>
      <trkpt lat="45.24417" lon="5.01112">
        <ele>325.7</ele>
        <time>2018-05-25T16:26:44 02:00</time>
      </trkpt>
      <trkpt lat="45.24412" lon="5.0115">
        <ele>325</ele>
        <time>2018-05-25T16:26:48 02:00</time>
      </trkpt>
      <trkpt lat="45.2439" lon="5.01177">
        <ele>322.8</ele>
        <time>2018-05-25T16:26:52 02:00</time>
      </trkpt>
      <trkpt lat="45.24372" lon="5.01203">
        <ele>320.1</ele>
        <time>2018-05-25T16:26:55 02:00</time>
      </trkpt>
      <trkpt lat="45.24355" lon="5.01238">
        <ele>317.9</ele>
        <time>2018-05-25T16:26:58 02:00</time>
      </trkpt>
      <trkpt lat="45.24337" lon="5.01272">
        <ele>316.2</ele>
        <time>2018-05-25T16:27:01 02:00</time>
      </trkpt>
      <trkpt lat="45.24317" lon="5.01298">
        <ele>315.4</ele>
        <time>2018-05-25T16:27:04 02:00</time>
      </trkpt>
      <trkpt lat="45.24303" lon="5.01324">
        <ele>313.5</ele>
        <time>2018-05-25T16:27:07 02:00</time>
      </trkpt>
      <trkpt lat="45.2432" lon="5.01369">
        <ele>307.5</ele>
        <time>2018-05-25T16:27:12 02:00</time>
      </trkpt>
      <trkpt lat="45.24346" lon="5.01387">
        <ele>303.6</ele>
        <time>2018-05-25T16:27:15 02:00</time>
      </trkpt>
      <trkpt lat="45.24375" lon="5.01393">
        <ele>303.1</ele>
        <time>2018-05-25T16:27:18 02:00</time>
      </trkpt>
      <trkpt lat="45.24404" lon="5.01387">
        <ele>302.7</ele>
        <time>2018-05-25T16:27:21 02:00</time>
      </trkpt>
      <trkpt lat="45.24432" lon="5.01378">
        <ele>302.4</ele>
        <time>2018-05-25T16:27:24 02:00</time>
      </trkpt>
      <trkpt lat="45.24459" lon="5.01377">
        <ele>302.1</ele>
        <time>2018-05-25T16:27:27 02:00</time>
      </trkpt>
      <trkpt lat="45.24485" lon="5.0139">
        <ele>301.6</ele>
        <time>2018-05-25T16:27:31 02:00</time>
      </trkpt>
      <trkpt lat="45.24506" lon="5.01418">
        <ele>300.6</ele>
        <time>2018-05-25T16:27:42 02:00</time>
      </trkpt>
      <trkpt lat="45.24527" lon="5.01434">
        <ele>299.7</ele>
        <time>2018-05-25T16:28:27 02:00</time>
      </trkpt>
      <trkpt lat="45.24549" lon="5.01447">
        <ele>298.5</ele>
        <time>2018-05-25T16:28:32 02:00</time>
      </trkpt>
      <trkpt lat="45.24571" lon="5.01461">
        <ele>297.8</ele>
        <time>2018-05-25T16:28:37 02:00</time>
      </trkpt>
      <trkpt lat="45.24596" lon="5.01476">
        <ele>297.5</ele>
        <time>2018-05-25T16:28:42 02:00</time>
      </trkpt>
      <trkpt lat="45.24616" lon="5.0149">
        <ele>296.8</ele>
        <time>2018-05-25T16:28:46 02:00</time>
      </trkpt>
      <trkpt lat="45.24637" lon="5.01504">
        <ele>296.2</ele>
        <time>2018-05-25T16:28:50 02:00</time>
      </trkpt>
      <trkpt lat="45.24657" lon="5.01519">
        <ele>296.2</ele>
        <time>2018-05-25T16:28:55 02:00</time>
      </trkpt>
      <trkpt lat="45.24636" lon="5.01503">
        <ele>296.2</ele>
        <time>2018-05-25T16:29:26 02:00</time>
      </trkpt>
      <trkpt lat="45.24612" lon="5.01488">
        <ele>297</ele>
        <time>2018-05-25T16:29:31 02:00</time>
      </trkpt>
      <trkpt lat="45.2459" lon="5.01472">
        <ele>297.7</ele>
        <time>2018-05-25T16:29:36 02:00</time>
      </trkpt>
      <trkpt lat="45.24569" lon="5.01456">
        <ele>297.7</ele>
        <time>2018-05-25T16:29:41 02:00</time>
      </trkpt>
      <trkpt lat="45.24548" lon="5.01441">
        <ele>298.5</ele>
        <time>2018-05-25T16:29:46 02:00</time>
      </trkpt>
      <trkpt lat="45.24525" lon="5.01428">
        <ele>299.6</ele>
        <time>2018-05-25T16:29:52 02:00</time>
      </trkpt>
      <trkpt lat="45.24503" lon="5.01442">
        <ele>301.7</ele>
        <time>2018-05-25T16:30:00 02:00</time>
      </trkpt>
      <trkpt lat="45.24504" lon="5.01477">
        <ele>303.9</ele>
        <time>2018-05-25T16:30:09 02:00</time>
      </trkpt>
      <trkpt lat="45.24508" lon="5.01512">
        <ele>306</ele>
        <time>2018-05-25T16:30:17 02:00</time>
      </trkpt>
      <trkpt lat="45.24512" lon="5.01546">
        <ele>307.5</ele>
        <time>2018-05-25T16:30:25 02:00</time>
      </trkpt>
      <trkpt lat="45.24519" lon="5.0158">
        <ele>306.5</ele>
        <time>2018-05-25T16:30:33 02:00</time>
      </trkpt>
      <trkpt lat="45.24523" lon="5.01612">
        <ele>307</ele>
        <time>2018-05-25T16:30:41 02:00</time>
      </trkpt>
      <trkpt lat="45.24527" lon="5.01646">
        <ele>306.7</ele>
        <time>2018-05-25T16:30:50 02:00</time>
      </trkpt>
      <trkpt lat="45.24531" lon="5.01679">
        <ele>306.9</ele>
        <time>2018-05-25T16:30:59 02:00</time>
      </trkpt>
      <trkpt lat="45.24534" lon="5.01712">
        <ele>307.3</ele>
        <time>2018-05-25T16:31:08 02:00</time>
      </trkpt>
      <trkpt lat="45.24534" lon="5.01745">
        <ele>308.5</ele>
        <time>2018-05-25T16:31:17 02:00</time>
      </trkpt>
      <trkpt lat="45.2453" lon="5.01779">
        <ele>310.5</ele>
        <time>2018-05-25T16:31:24 02:00</time>
      </trkpt>
      <trkpt lat="45.24537" lon="5.0181">
        <ele>311</ele>
        <time>2018-05-25T16:31:31 02:00</time>
      </trkpt>
      <trkpt lat="45.24547" lon="5.0184">
        <ele>310</ele>
        <time>2018-05-25T16:31:38 02:00</time>
      </trkpt>
      <trkpt lat="45.24558" lon="5.01874">
        <ele>310.9</ele>
        <time>2018-05-25T16:31:45 02:00</time>
      </trkpt>
      <trkpt lat="45.24569" lon="5.01905">
        <ele>311.2</ele>
        <time>2018-05-25T16:31:51 02:00</time>
      </trkpt>
      <trkpt lat="45.24584" lon="5.01936">
        <ele>309.3</ele>
        <time>2018-05-25T16:31:57 02:00</time>
      </trkpt>
      <trkpt lat="45.24598" lon="5.01967">
        <ele>309.1</ele>
        <time>2018-05-25T16:32:03 02:00</time>
      </trkpt>
      <trkpt lat="45.2461" lon="5.02">
        <ele>309.1</ele>
        <time>2018-05-25T16:32:10 02:00</time>
      </trkpt>
      <trkpt lat="45.2462" lon="5.0203">
        <ele>309.4</ele>
        <time>2018-05-25T16:32:16 02:00</time>
      </trkpt>
      <trkpt lat="45.24631" lon="5.0206">
        <ele>309.7</ele>
        <time>2018-05-25T16:32:23 02:00</time>
      </trkpt>
      <trkpt lat="45.24643" lon="5.02094">
        <ele>310.6</ele>
        <time>2018-05-25T16:32:29 02:00</time>
      </trkpt>
      <trkpt lat="45.24651" lon="5.02126">
        <ele>312.2</ele>
        <time>2018-05-25T16:32:34 02:00</time>
      </trkpt>
      <trkpt lat="45.24661" lon="5.02159">
        <ele>312.6</ele>
        <time>2018-05-25T16:32:39 02:00</time>
      </trkpt>
      <trkpt lat="45.24672" lon="5.0219">
        <ele>312.2</ele>
        <time>2018-05-25T16:32:43 02:00</time>
      </trkpt>
      <trkpt lat="45.24684" lon="5.02224">
        <ele>311.6</ele>
        <time>2018-05-25T16:32:47 02:00</time>
      </trkpt>
      <trkpt lat="45.24696" lon="5.02251">
        <ele>309.9</ele>
        <time>2018-05-25T16:32:50 02:00</time>
      </trkpt>
      <trkpt lat="45.24711" lon="5.02277">
        <ele>308.9</ele>
        <time>2018-05-25T16:32:53 02:00</time>
      </trkpt>
      <trkpt lat="45.24725" lon="5.02309">
        <ele>304.2</ele>
        <time>2018-05-25T16:32:57 02:00</time>
      </trkpt>
      <trkpt lat="45.24739" lon="5.02339">
        <ele>302.1</ele>
        <time>2018-05-25T16:33:01 02:00</time>
      </trkpt>
      <trkpt lat="45.24752" lon="5.02367">
        <ele>305.1</ele>
        <time>2018-05-25T16:33:05 02:00</time>
      </trkpt>
      <trkpt lat="45.24768" lon="5.02391">
        <ele>307.8</ele>
        <time>2018-05-25T16:33:09 02:00</time>
      </trkpt>
      <trkpt lat="45.24785" lon="5.02413">
        <ele>307.2</ele>
        <time>2018-05-25T16:33:15 02:00</time>
      </trkpt>
      <trkpt lat="45.24794" lon="5.02446">
        <ele>309.4</ele>
        <time>2018-05-25T16:33:24 02:00</time>
      </trkpt>
      <trkpt lat="45.24814" lon="5.02461">
        <ele>308.1</ele>
        <time>2018-05-25T16:33:34 02:00</time>
      </trkpt>
      <trkpt lat="45.24838" lon="5.02446">
        <ele>306.7</ele>
        <time>2018-05-25T16:33:39 02:00</time>
      </trkpt>
      <trkpt lat="45.24861" lon="5.02456">
        <ele>305</ele>
        <time>2018-05-25T16:33:42 02:00</time>
      </trkpt>
      <trkpt lat="45.2487" lon="5.02495">
        <ele>305.1</ele>
        <time>2018-05-25T16:33:43 02:00</time>
      </trkpt>
      <trkpt lat="45.24881" lon="5.02526">
        <ele>307.4</ele>
        <time>2018-05-25T16:33:45 02:00</time>
      </trkpt>
      <trkpt lat="45.24893" lon="5.02564">
        <ele>307.4</ele>
        <time>2018-05-25T16:33:48 02:00</time>
      </trkpt>
      <trkpt lat="45.24904" lon="5.02606">
        <ele>307.8</ele>
        <time>2018-05-25T16:33:51 02:00</time>
      </trkpt>
      <trkpt lat="45.24919" lon="5.02641">
        <ele>308</ele>
        <time>2018-05-25T16:33:54 02:00</time>
      </trkpt>
      <trkpt lat="45.24937" lon="5.02674">
        <ele>308.3</ele>
        <time>2018-05-25T16:33:57 02:00</time>
      </trkpt>
      <trkpt lat="45.24958" lon="5.02701">
        <ele>307.3</ele>
        <time>2018-05-25T16:34:00 02:00</time>
      </trkpt>
      <trkpt lat="45.24981" lon="5.02727">
        <ele>303.3</ele>
        <time>2018-05-25T16:34:03 02:00</time>
      </trkpt>
      <trkpt lat="45.25004" lon="5.02757">
        <ele>300.6</ele>
        <time>2018-05-25T16:34:06 02:00</time>
      </trkpt>
      <trkpt lat="45.25028" lon="5.02783">
        <ele>300.8</ele>
        <time>2018-05-25T16:34:09 02:00</time>
      </trkpt>
      <trkpt lat="45.25051" lon="5.02805">
        <ele>296.7</ele>
        <time>2018-05-25T16:34:12 02:00</time>
      </trkpt>
      <trkpt lat="45.25079" lon="5.02812">
        <ele>299.2</ele>
        <time>2018-05-25T16:34:15 02:00</time>
      </trkpt>
      <trkpt lat="45.25106" lon="5.02809">
        <ele>300</ele>
        <time>2018-05-25T16:34:18 02:00</time>
      </trkpt>
      <trkpt lat="45.25131" lon="5.02797">
        <ele>299.7</ele>
        <time>2018-05-25T16:34:21 02:00</time>
      </trkpt>
      <trkpt lat="45.25151" lon="5.02779">
        <ele>300.4</ele>
        <time>2018-05-25T16:34:25 02:00</time>
      </trkpt>
      <trkpt lat="45.25168" lon="5.02758">
        <ele>300.2</ele>
        <time>2018-05-25T16:34:31 02:00</time>
      </trkpt>
      <trkpt lat="45.25189" lon="5.02737">
        <ele>299.5</ele>
        <time>2018-05-25T16:34:37 02:00</time>
      </trkpt>
      <trkpt lat="45.2521" lon="5.02716">
        <ele>299.5</ele>
        <time>2018-05-25T16:34:43 02:00</time>
      </trkpt>
      <trkpt lat="45.25231" lon="5.02695">
        <ele>300</ele>
        <time>2018-05-25T16:34:50 02:00</time>
      </trkpt>
      <trkpt lat="45.25252" lon="5.02672">
        <ele>300.1</ele>
        <time>2018-05-25T16:34:55 02:00</time>
      </trkpt>
      <trkpt lat="45.2527" lon="5.0265">
        <ele>300</ele>
        <time>2018-05-25T16:34:59 02:00</time>
      </trkpt>
      <trkpt lat="45.25289" lon="5.02627">
        <ele>300</ele>
        <time>2018-05-25T16:35:03 02:00</time>
      </trkpt>
      <trkpt lat="45.25309" lon="5.02602">
        <ele>299.6</ele>
        <time>2018-05-25T16:35:07 02:00</time>
      </trkpt>
      <trkpt lat="45.2533" lon="5.02579">
        <ele>299.4</ele>
        <time>2018-05-25T16:35:11 02:00</time>
      </trkpt>
      <trkpt lat="45.2535" lon="5.02556">
        <ele>298.6</ele>
        <time>2018-05-25T16:35:15 02:00</time>
      </trkpt>
      <trkpt lat="45.25371" lon="5.02538">
        <ele>298.4</ele>
        <time>2018-05-25T16:35:20 02:00</time>
      </trkpt>
      <trkpt lat="45.25389" lon="5.02568">
        <ele>298</ele>
        <time>2018-05-25T16:35:25 02:00</time>
      </trkpt>
      <trkpt lat="45.25405" lon="5.02598">
        <ele>298</ele>
        <time>2018-05-25T16:35:29 02:00</time>
      </trkpt>
      <trkpt lat="45.25422" lon="5.02627">
        <ele>298</ele>
        <time>2018-05-25T16:35:33 02:00</time>
      </trkpt>
      <trkpt lat="45.25439" lon="5.02653">
        <ele>298.1</ele>
        <time>2018-05-25T16:35:37 02:00</time>
      </trkpt>
      <trkpt lat="45.25453" lon="5.02682">
        <ele>298</ele>
        <time>2018-05-25T16:35:41 02:00</time>
      </trkpt>
      <trkpt lat="45.25467" lon="5.0271">
        <ele>297.9</ele>
        <time>2018-05-25T16:35:45 02:00</time>
      </trkpt>
      <trkpt lat="45.25481" lon="5.02736">
        <ele>298</ele>
        <time>2018-05-25T16:35:49 02:00</time>
      </trkpt>
      <trkpt lat="45.25494" lon="5.02764">
        <ele>297.9</ele>
        <time>2018-05-25T16:35:53 02:00</time>
      </trkpt>
      <trkpt lat="45.25509" lon="5.02796">
        <ele>298</ele>
        <time>2018-05-25T16:35:58 02:00</time>
      </trkpt>
      <trkpt lat="45.25525" lon="5.02824">
        <ele>298.5</ele>
        <time>2018-05-25T16:36:03 02:00</time>
      </trkpt>
      <trkpt lat="45.25541" lon="5.02848">
        <ele>299</ele>
        <time>2018-05-25T16:36:08 02:00</time>
      </trkpt>
      <trkpt lat="45.25557" lon="5.02874">
        <ele>299</ele>
        <time>2018-05-25T16:36:14 02:00</time>
      </trkpt>
      <trkpt lat="45.25579" lon="5.02892">
        <ele>299</ele>
        <time>2018-05-25T16:36:20 02:00</time>
      </trkpt>
      <trkpt lat="45.25582" lon="5.02881">
        <ele>299</ele>
        <time>2018-05-25T16:42:53 02:00</time>
      </trkpt>
      <trkpt lat="45.25582" lon="5.02881">
        <ele>299</ele>
        <time>2018-05-25T16:42:53 02:00</time>
      </trkpt>
      <trkpt lat="45.25579" lon="5.02892">
        <ele>299</ele>
        <time>2018-05-25T16:36:20 02:00</time>
      </trkpt>
      <trkpt lat="45.25557" lon="5.02874">
        <ele>299</ele>
        <time>2018-05-25T16:36:14 02:00</time>
      </trkpt>
      <trkpt lat="45.25541" lon="5.02848">
        <ele>299</ele>
        <time>2018-05-25T16:36:08 02:00</time>
      </trkpt>
      <trkpt lat="45.25525" lon="5.02824">
        <ele>298.5</ele>
        <time>2018-05-25T16:36:03 02:00</time>
      </trkpt>
      <trkpt lat="45.25509" lon="5.02796">
        <ele>298</ele>
        <time>2018-05-25T16:35:58 02:00</time>
      </trkpt>
      <trkpt lat="45.25494" lon="5.02764">
        <ele>297.9</ele>
        <time>2018-05-25T16:35:53 02:00</time>
      </trkpt>
      <trkpt lat="45.25481" lon="5.02736">
        <ele>298</ele>
        <time>2018-05-25T16:35:49 02:00</time>
      </trkpt>
      <trkpt lat="45.25467" lon="5.0271">
        <ele>297.9</ele>
        <time>2018-05-25T16:35:45 02:00</time>
      </trkpt>
      <trkpt lat="45.25453" lon="5.02682">
        <ele>298</ele>
        <time>2018-05-25T16:35:41 02:00</time>
      </trkpt>
      <trkpt lat="45.25439" lon="5.02653">
        <ele>298.1</ele>
        <time>2018-05-25T16:35:37 02:00</time>
      </trkpt>
      <trkpt lat="45.25422" lon="5.02627">
        <ele>298</ele>
        <time>2018-05-25T16:35:33 02:00</time>
      </trkpt>
      <trkpt lat="45.25405" lon="5.02598">
        <ele>298</ele>
        <time>2018-05-25T16:35:29 02:00</time>
      </trkpt>
      <trkpt lat="45.25389" lon="5.02568">
        <ele>298</ele>
        <time>2018-05-25T16:35:25 02:00</time>
      </trkpt>
      <trkpt lat="45.25371" lon="5.02538">
        <ele>298.4</ele>
        <time>2018-05-25T16:35:20 02:00</time>
      </trkpt>
      <trkpt lat="45.2535" lon="5.02556">
        <ele>298.6</ele>
        <time>2018-05-25T16:35:15 02:00</time>
      </trkpt>
      <trkpt lat="45.2533" lon="5.02579">
        <ele>299.4</ele>
        <time>2018-05-25T16:35:11 02:00</time>
      </trkpt>
      <trkpt lat="45.25309" lon="5.02602">
        <ele>299.6</ele>
        <time>2018-05-25T16:35:07 02:00</time>
      </trkpt>
      <trkpt lat="45.25289" lon="5.02627">
        <ele>300</ele>
        <time>2018-05-25T16:35:03 02:00</time>
      </trkpt>
      <trkpt lat="45.2527" lon="5.0265">
        <ele>300</ele>
        <time>2018-05-25T16:34:59 02:00</time>
      </trkpt>
      <trkpt lat="45.25252" lon="5.02672">
        <ele>300.1</ele>
        <time>2018-05-25T16:34:55 02:00</time>
      </trkpt>
      <trkpt lat="45.25231" lon="5.02695">
        <ele>300</ele>
        <time>2018-05-25T16:34:50 02:00</time>
      </trkpt>
      <trkpt lat="45.2521" lon="5.02716">
        <ele>299.5</ele>
        <time>2018-05-25T16:34:43 02:00</time>
      </trkpt>
      <trkpt lat="45.25189" lon="5.02737">
        <ele>299.5</ele>
        <time>2018-05-25T16:34:37 02:00</time>
      </trkpt>
      <trkpt lat="45.25168" lon="5.02758">
        <ele>300.2</ele>
        <time>2018-05-25T16:34:31 02:00</time>
      </trkpt>
      <trkpt lat="45.25151" lon="5.02779">
        <ele>300.4</ele>
        <time>2018-05-25T16:34:25 02:00</time>
      </trkpt>
      <trkpt lat="45.25131" lon="5.02797">
        <ele>299.7</ele>
        <time>2018-05-25T16:34:21 02:00</time>
      </trkpt>
      <trkpt lat="45.25106" lon="5.02809">
        <ele>300</ele>
        <time>2018-05-25T16:34:18 02:00</time>
      </trkpt>
      <trkpt lat="45.25079" lon="5.02812">
        <ele>299.2</ele>
        <time>2018-05-25T16:34:15 02:00</time>
      </trkpt>
      <trkpt lat="45.25051" lon="5.02805">
        <ele>296.7</ele>
        <time>2018-05-25T16:34:12 02:00</time>
      </trkpt>
      <trkpt lat="45.25028" lon="5.02783">
        <ele>300.8</ele>
        <time>2018-05-25T16:34:09 02:00</time>
      </trkpt>
      <trkpt lat="45.25004" lon="5.02757">
        <ele>300.6</ele>
        <time>2018-05-25T16:34:06 02:00</time>
      </trkpt>
      <trkpt lat="45.24981" lon="5.02727">
        <ele>303.3</ele>
        <time>2018-05-25T16:34:03 02:00</time>
      </trkpt>
      <trkpt lat="45.24958" lon="5.02701">
        <ele>307.3</ele>
        <time>2018-05-25T16:34:00 02:00</time>
      </trkpt>
      <trkpt lat="45.24937" lon="5.02674">
        <ele>308.3</ele>
        <time>2018-05-25T16:33:57 02:00</time>
      </trkpt>
      <trkpt lat="45.24919" lon="5.02641">
        <ele>308</ele>
        <time>2018-05-25T16:33:54 02:00</time>
      </trkpt>
      <trkpt lat="45.24904" lon="5.02606">
        <ele>307.8</ele>
        <time>2018-05-25T16:33:51 02:00</time>
      </trkpt>
      <trkpt lat="45.24893" lon="5.02564">
        <ele>307.4</ele>
        <time>2018-05-25T16:33:48 02:00</time>
      </trkpt>
      <trkpt lat="45.24881" lon="5.02526">
        <ele>307.4</ele>
        <time>2018-05-25T16:33:45 02:00</time>
      </trkpt>
      <trkpt lat="45.2487" lon="5.02495">
        <ele>305.1</ele>
        <time>2018-05-25T16:33:43 02:00</time>
      </trkpt>
      <trkpt lat="45.24861" lon="5.02456">
        <ele>305</ele>
        <time>2018-05-25T16:33:42 02:00</time>
      </trkpt>
      <trkpt lat="45.24838" lon="5.02446">
        <ele>306.7</ele>
        <time>2018-05-25T16:33:39 02:00</time>
      </trkpt>
      <trkpt lat="45.24814" lon="5.02461">
        <ele>308.1</ele>
        <time>2018-05-25T16:33:34 02:00</time>
      </trkpt>
      <trkpt lat="45.24794" lon="5.02446">
        <ele>309.4</ele>
        <time>2018-05-25T16:33:24 02:00</time>
      </trkpt>
      <trkpt lat="45.24785" lon="5.02413">
        <ele>307.2</ele>
        <time>2018-05-25T16:33:15 02:00</time>
      </trkpt>
      <trkpt lat="45.24768" lon="5.02391">
        <ele>307.8</ele>
        <time>2018-05-25T16:33:09 02:00</time>
      </trkpt>
      <trkpt lat="45.24752" lon="5.02367">
        <ele>305.1</ele>
        <time>2018-05-25T16:33:05 02:00</time>
      </trkpt>
      <trkpt lat="45.24739" lon="5.02339">
        <ele>302.1</ele>
        <time>2018-05-25T16:33:01 02:00</time>
      </trkpt>
      <trkpt lat="45.24725" lon="5.02309">
        <ele>304.2</ele>
        <time>2018-05-25T16:32:57 02:00</time>
      </trkpt>
      <trkpt lat="45.24711" lon="5.02277">
        <ele>308.9</ele>
        <time>2018-05-25T16:32:53 02:00</time>
      </trkpt>
      <trkpt lat="45.24696" lon="5.02251">
        <ele>309.9</ele>
        <time>2018-05-25T16:32:50 02:00</time>
      </trkpt>
      <trkpt lat="45.24684" lon="5.02224">
        <ele>311.6</ele>
        <time>2018-05-25T16:32:47 02:00</time>
      </trkpt>
      <trkpt lat="45.24672" lon="5.0219">
        <ele>312.2</ele>
        <time>2018-05-25T16:32:43 02:00</time>
      </trkpt>
      <trkpt lat="45.24661" lon="5.02159">
        <ele>312.6</ele>
        <time>2018-05-25T16:32:39 02:00</time>
      </trkpt>
      <trkpt lat="45.24651" lon="5.02126">
        <ele>312.2</ele>
        <time>2018-05-25T16:32:34 02:00</time>
      </trkpt>
      <trkpt lat="45.24643" lon="5.02094">
        <ele>310.6</ele>
        <time>2018-05-25T16:32:29 02:00</time>
      </trkpt>
      <trkpt lat="45.24631" lon="5.0206">
        <ele>309.7</ele>
        <time>2018-05-25T16:32:23 02:00</time>
      </trkpt>
      <trkpt lat="45.2462" lon="5.0203">
        <ele>309.4</ele>
        <time>2018-05-25T16:32:16 02:00</time>
      </trkpt>
      <trkpt lat="45.2461" lon="5.02">
        <ele>309.1</ele>
        <time>2018-05-25T16:32:10 02:00</time>
      </trkpt>
      <trkpt lat="45.24598" lon="5.01967">
        <ele>309.1</ele>
        <time>2018-05-25T16:32:03 02:00</time>
      </trkpt>
      <trkpt lat="45.24584" lon="5.01936">
        <ele>309.3</ele>
        <time>2018-05-25T16:31:57 02:00</time>
      </trkpt>
      <trkpt lat="45.24569" lon="5.01905">
        <ele>311.2</ele>
        <time>2018-05-25T16:31:51 02:00</time>
      </trkpt>
      <trkpt lat="45.24558" lon="5.01874">
        <ele>310.9</ele>
        <time>2018-05-25T16:31:45 02:00</time>
      </trkpt>
      <trkpt lat="45.24547" lon="5.0184">
        <ele>310</ele>
        <time>2018-05-25T16:31:38 02:00</time>
      </trkpt>
      <trkpt lat="45.24537" lon="5.0181">
        <ele>311</ele>
        <time>2018-05-25T16:31:31 02:00</time>
      </trkpt>
      <trkpt lat="45.2453" lon="5.01779">
        <ele>310.5</ele>
        <time>2018-05-25T16:31:24 02:00</time>
      </trkpt>
      <trkpt lat="45.24534" lon="5.01745">
        <ele>308.5</ele>
        <time>2018-05-25T16:31:17 02:00</time>
      </trkpt>
      <trkpt lat="45.24534" lon="5.01712">
        <ele>307.3</ele>
        <time>2018-05-25T16:31:08 02:00</time>
      </trkpt>
      <trkpt lat="45.24531" lon="5.01679">
        <ele>306.9</ele>
        <time>2018-05-25T16:30:59 02:00</time>
      </trkpt>
      <trkpt lat="45.24527" lon="5.01646">
        <ele>306.7</ele>
        <time>2018-05-25T16:30:50 02:00</time>
      </trkpt>
      <trkpt lat="45.24523" lon="5.01612">
        <ele>307</ele>
        <time>2018-05-25T16:30:41 02:00</time>
      </trkpt>
      <trkpt lat="45.24519" lon="5.0158">
        <ele>306.5</ele>
        <time>2018-05-25T16:30:33 02:00</time>
      </trkpt>
      <trkpt lat="45.24512" lon="5.01546">
        <ele>307.5</ele>
        <time>2018-05-25T16:30:25 02:00</time>
      </trkpt>
      <trkpt lat="45.24508" lon="5.01512">
        <ele>306</ele>
        <time>2018-05-25T16:30:17 02:00</time>
      </trkpt>
      <trkpt lat="45.24504" lon="5.01477">
        <ele>303.9</ele>
        <time>2018-05-25T16:30:09 02:00</time>
      </trkpt>
      <trkpt lat="45.24503" lon="5.01442">
        <ele>301.7</ele>
        <time>2018-05-25T16:30:00 02:00</time>
      </trkpt>
      <trkpt lat="45.24525" lon="5.01428">
        <ele>299.6</ele>
        <time>2018-05-25T16:29:52 02:00</time>
      </trkpt>
      <trkpt lat="45.24548" lon="5.01441">
        <ele>298.5</ele>
        <time>2018-05-25T16:29:46 02:00</time>
      </trkpt>
      <trkpt lat="45.24569" lon="5.01456">
        <ele>297.7</ele>
        <time>2018-05-25T16:29:41 02:00</time>
      </trkpt>
      <trkpt lat="45.2459" lon="5.01472">
        <ele>297.7</ele>
        <time>2018-05-25T16:29:36 02:00</time>
      </trkpt>
      <trkpt lat="45.24612" lon="5.01488">
        <ele>297</ele>
        <time>2018-05-25T16:29:31 02:00</time>
      </trkpt>
      <trkpt lat="45.24636" lon="5.01503">
        <ele>296.2</ele>
        <time>2018-05-25T16:29:26 02:00</time>
      </trkpt>
      <trkpt lat="45.24657" lon="5.01519">
        <ele>296.2</ele>
        <time>2018-05-25T16:28:55 02:00</time>
      </trkpt>
      <trkpt lat="45.24637" lon="5.01504">
        <ele>296.2</ele>
        <time>2018-05-25T16:28:50 02:00</time>
      </trkpt>
      <trkpt lat="45.24616" lon="5.0149">
        <ele>296.8</ele>
        <time>2018-05-25T16:28:46 02:00</time>
      </trkpt>
      <trkpt lat="45.24596" lon="5.01476">
        <ele>297.5</ele>
        <time>2018-05-25T16:28:42 02:00</time>
      </trkpt>
      <trkpt lat="45.24571" lon="5.01461">
        <ele>297.8</ele>
        <time>2018-05-25T16:28:37 02:00</time>
      </trkpt>
      <trkpt lat="45.24549" lon="5.01447">
        <ele>298.5</ele>
        <time>2018-05-25T16:28:32 02:00</time>
      </trkpt>
      <trkpt lat="45.24527" lon="5.01434">
        <ele>299.7</ele>
        <time>2018-05-25T16:28:27 02:00</time>
      </trkpt>
      <trkpt lat="45.24506" lon="5.01418">
        <ele>300.6</ele>
        <time>2018-05-25T16:27:42 02:00</time>
      </trkpt>
      <trkpt lat="45.24485" lon="5.0139">
        <ele>301.6</ele>
        <time>2018-05-25T16:27:31 02:00</time>
      </trkpt>
      <trkpt lat="45.24459" lon="5.01377">
        <ele>302.1</ele>
        <time>2018-05-25T16:27:27 02:00</time>
      </trkpt>
      <trkpt lat="45.24432" lon="5.01378">
        <ele>302.4</ele>
        <time>2018-05-25T16:27:24 02:00</time>
      </trkpt>
      <trkpt lat="45.24404" lon="5.01387">
        <ele>302.7</ele>
        <time>2018-05-25T16:27:21 02:00</time>
      </trkpt>
      <trkpt lat="45.24375" lon="5.01393">
        <ele>303.1</ele>
        <time>2018-05-25T16:27:18 02:00</time>
      </trkpt>
      <trkpt lat="45.24346" lon="5.01387">
        <ele>303.6</ele>
        <time>2018-05-25T16:27:15 02:00</time>
      </trkpt>
      <trkpt lat="45.2432" lon="5.01369">
        <ele>307.5</ele>
        <time>2018-05-25T16:27:12 02:00</time>
      </trkpt>
      <trkpt lat="45.24303" lon="5.01324">
        <ele>313.5</ele>
        <time>2018-05-25T16:27:07 02:00</time>
      </trkpt>
      <trkpt lat="45.24317" lon="5.01298">
        <ele>315.4</ele>
        <time>2018-05-25T16:27:04 02:00</time>
      </trkpt>
      <trkpt lat="45.24337" lon="5.01272">
        <ele>316.2</ele>
        <time>2018-05-25T16:27:01 02:00</time>
      </trkpt>
      <trkpt lat="45.24355" lon="5.01238">
        <ele>317.9</ele>
        <time>2018-05-25T16:26:58 02:00</time>
      </trkpt>
      <trkpt lat="45.24372" lon="5.01203">
        <ele>320.1</ele>
        <time>2018-05-25T16:26:55 02:00</time>
      </trkpt>
      <trkpt lat="45.2439" lon="5.01177">
        <ele>322.8</ele>
        <time>2018-05-25T16:26:52 02:00</time>
      </trkpt>
      <trkpt lat="45.24412" lon="5.0115">
        <ele>325</ele>
        <time>2018-05-25T16:26:48 02:00</time>
      </trkpt>
      <trkpt lat="45.24417" lon="5.01112">
        <ele>325.7</ele>
        <time>2018-05-25T16:26:44 02:00</time>
      </trkpt>
      <trkpt lat="45.24403" lon="5.01081">
        <ele>328.3</ele>
        <time>2018-05-25T16:26:39 02:00</time>
      </trkpt>
      <trkpt lat="45.24384" lon="5.01056">
        <ele>330.5</ele>
        <time>2018-05-25T16:26:31 02:00</time>
      </trkpt>
      <trkpt lat="45.24362" lon="5.01049">
        <ele>332.2</ele>
        <time>2018-05-25T16:26:00 02:00</time>
      </trkpt>
      <trkpt lat="45.2433" lon="5.01047">
        <ele>333.3</ele>
        <time>2018-05-25T16:25:57 02:00</time>
      </trkpt>
      <trkpt lat="45.24299" lon="5.01048">
        <ele>335.7</ele>
        <time>2018-05-25T16:25:54 02:00</time>
      </trkpt>
      <trkpt lat="45.24271" lon="5.01037">
        <ele>337.5</ele>
        <time>2018-05-25T16:25:51 02:00</time>
      </trkpt>
      <trkpt lat="45.24252" lon="5.01009">
        <ele>339.1</ele>
        <time>2018-05-25T16:25:48 02:00</time>
      </trkpt>
      <trkpt lat="45.24239" lon="5.00978">
        <ele>340.6</ele>
        <time>2018-05-25T16:25:45 02:00</time>
      </trkpt>
      <trkpt lat="45.24235" lon="5.00937">
        <ele>341.4</ele>
        <time>2018-05-25T16:25:41 02:00</time>
      </trkpt>
      <trkpt lat="45.24225" lon="5.00902">
        <ele>343.5</ele>
        <time>2018-05-25T16:25:37 02:00</time>
      </trkpt>
      <trkpt lat="45.24201" lon="5.00904">
        <ele>346.3</ele>
        <time>2018-05-25T16:25:33 02:00</time>
      </trkpt>
      <trkpt lat="45.24205" lon="5.00939">
        <ele>346</ele>
        <time>2018-05-25T16:25:29 02:00</time>
      </trkpt>
      <trkpt lat="45.24211" lon="5.00978">
        <ele>345.2</ele>
        <time>2018-05-25T16:25:26 02:00</time>
      </trkpt>
      <trkpt lat="45.24203" lon="5.01019">
        <ele>347.7</ele>
        <time>2018-05-25T16:25:23 02:00</time>
      </trkpt>
      <trkpt lat="45.24177" lon="5.01037">
        <ele>349.9</ele>
        <time>2018-05-25T16:25:20 02:00</time>
      </trkpt>
      <trkpt lat="45.2415" lon="5.01043">
        <ele>351.7</ele>
        <time>2018-05-25T16:25:17 02:00</time>
      </trkpt>
      <trkpt lat="45.24121" lon="5.01048">
        <ele>353.4</ele>
        <time>2018-05-25T16:25:14 02:00</time>
      </trkpt>
      <trkpt lat="45.24093" lon="5.01054">
        <ele>355.3</ele>
        <time>2018-05-25T16:25:11 02:00</time>
      </trkpt>
      <trkpt lat="45.24064" lon="5.0106">
        <ele>357.1</ele>
        <time>2018-05-25T16:25:08 02:00</time>
      </trkpt>
      <trkpt lat="45.24037" lon="5.01066">
        <ele>359.5</ele>
        <time>2018-05-25T16:25:05 02:00</time>
      </trkpt>
      <trkpt lat="45.24013" lon="5.01071">
        <ele>362.1</ele>
        <time>2018-05-25T16:25:02 02:00</time>
      </trkpt>
      <trkpt lat="45.23983" lon="5.01075">
        <ele>364.9</ele>
        <time>2018-05-25T16:24:58 02:00</time>
      </trkpt>
      <trkpt lat="45.23955" lon="5.01077">
        <ele>366.6</ele>
        <time>2018-05-25T16:24:53 02:00</time>
      </trkpt>
      <trkpt lat="45.23931" lon="5.01084">
        <ele>367</ele>
        <time>2018-05-25T16:24:47 02:00</time>
      </trkpt>
      <trkpt lat="45.23908" lon="5.01087">
        <ele>366.7</ele>
        <time>2018-05-25T16:24:40 02:00</time>
      </trkpt>
      <trkpt lat="45.23884" lon="5.01096">
        <ele>365.8</ele>
        <time>2018-05-25T16:24:33 02:00</time>
      </trkpt>
      <trkpt lat="45.23873" lon="5.01128">
        <ele>366</ele>
        <time>2018-05-25T16:24:27 02:00</time>
      </trkpt>
      <trkpt lat="45.23868" lon="5.01161">
        <ele>367.6</ele>
        <time>2018-05-25T16:24:22 02:00</time>
      </trkpt>
      <trkpt lat="45.23854" lon="5.01186">
        <ele>367.2</ele>
        <time>2018-05-25T16:24:16 02:00</time>
      </trkpt>
      <trkpt lat="45.23829" lon="5.01186">
        <ele>367</ele>
        <time>2018-05-25T16:24:11 02:00</time>
      </trkpt>
      <trkpt lat="45.23804" lon="5.01186">
        <ele>366.9</ele>
        <time>2018-05-25T16:24:07 02:00</time>
      </trkpt>
      <trkpt lat="45.23776" lon="5.01183">
        <ele>366.4</ele>
        <time>2018-05-25T16:24:03 02:00</time>
      </trkpt>
      <trkpt lat="45.23747" lon="5.01181">
        <ele>368.7</ele>
        <time>2018-05-25T16:23:58 02:00</time>
      </trkpt>
      <trkpt lat="45.23724" lon="5.01194">
        <ele>369.8</ele>
        <time>2018-05-25T16:23:52 02:00</time>
      </trkpt>
      <trkpt lat="45.237" lon="5.01206">
        <ele>368.9</ele>
        <time>2018-05-25T16:23:48 02:00</time>
      </trkpt>
      <trkpt lat="45.23678" lon="5.01221">
        <ele>370</ele>
        <time>2018-05-25T16:23:45 02:00</time>
      </trkpt>
      <trkpt lat="45.23655" lon="5.01238">
        <ele>369.8</ele>
        <time>2018-05-25T16:23:42 02:00</time>
      </trkpt>
      <trkpt lat="45.23631" lon="5.01254">
        <ele>369.8</ele>
        <time>2018-05-25T16:23:39 02:00</time>
      </trkpt>
      <trkpt lat="45.23606" lon="5.01261">
        <ele>373.1</ele>
        <time>2018-05-25T16:23:36 02:00</time>
      </trkpt>
      <trkpt lat="45.23579" lon="5.0127">
        <ele>376.4</ele>
        <time>2018-05-25T16:23:33 02:00</time>
      </trkpt>
      <trkpt lat="45.2355" lon="5.01285">
        <ele>382.1</ele>
        <time>2018-05-25T16:23:30 02:00</time>
      </trkpt>
      <trkpt lat="45.23524" lon="5.01298">
        <ele>388</ele>
        <time>2018-05-25T16:23:27 02:00</time>
      </trkpt>
      <trkpt lat="45.23499" lon="5.01308">
        <ele>393.3</ele>
        <time>2018-05-25T16:23:24 02:00</time>
      </trkpt>
      <trkpt lat="45.23468" lon="5.01321">
        <ele>396.8</ele>
        <time>2018-05-25T16:23:21 02:00</time>
      </trkpt>
      <trkpt lat="45.23446" lon="5.01335">
        <ele>399.1</ele>
        <time>2018-05-25T16:23:18 02:00</time>
      </trkpt>
      <trkpt lat="45.23424" lon="5.01355">
        <ele>402.8</ele>
        <time>2018-05-25T16:23:15 02:00</time>
      </trkpt>
      <trkpt lat="45.23403" lon="5.01383">
        <ele>406.4</ele>
        <time>2018-05-25T16:23:11 02:00</time>
      </trkpt>
      <trkpt lat="45.23381" lon="5.01409">
        <ele>408.7</ele>
        <time>2018-05-25T16:23:07 02:00</time>
      </trkpt>
      <trkpt lat="45.23367" lon="5.01435">
        <ele>409.7</ele>
        <time>2018-05-25T16:23:03 02:00</time>
      </trkpt>
      <trkpt lat="45.23355" lon="5.01467">
        <ele>410</ele>
        <time>2018-05-25T16:22:58 02:00</time>
      </trkpt>
      <trkpt lat="45.23342" lon="5.01498">
        <ele>410.4</ele>
        <time>2018-05-25T16:22:53 02:00</time>
      </trkpt>
      <trkpt lat="45.23324" lon="5.01525">
        <ele>410.4</ele>
        <time>2018-05-25T16:22:49 02:00</time>
      </trkpt>
      <trkpt lat="45.23298" lon="5.01549">
        <ele>411.2</ele>
        <time>2018-05-25T16:22:45 02:00</time>
      </trkpt>
      <trkpt lat="45.23278" lon="5.01571">
        <ele>412</ele>
        <time>2018-05-25T16:22:42 02:00</time>
      </trkpt>
      <trkpt lat="45.23257" lon="5.016">
        <ele>413.6</ele>
        <time>2018-05-25T16:22:38 02:00</time>
      </trkpt>
      <trkpt lat="45.23243" lon="5.01629">
        <ele>414.9</ele>
        <time>2018-05-25T16:22:34 02:00</time>
      </trkpt>
      <trkpt lat="45.23223" lon="5.01649">
        <ele>416.3</ele>
        <time>2018-05-25T16:22:31 02:00</time>
      </trkpt>
      <trkpt lat="45.23203" lon="5.01667">
        <ele>417</ele>
        <time>2018-05-25T16:22:28 02:00</time>
      </trkpt>
      <trkpt lat="45.23186" lon="5.01693">
        <ele>418.9</ele>
        <time>2018-05-25T16:22:25 02:00</time>
      </trkpt>
      <trkpt lat="45.23169" lon="5.0172">
        <ele>419.9</ele>
        <time>2018-05-25T16:22:22 02:00</time>
      </trkpt>
      <trkpt lat="45.23151" lon="5.01746">
        <ele>422.3</ele>
        <time>2018-05-25T16:22:19 02:00</time>
      </trkpt>
      <trkpt lat="45.23133" lon="5.01768">
        <ele>424.5</ele>
        <time>2018-05-25T16:22:16 02:00</time>
      </trkpt>
      <trkpt lat="45.23114" lon="5.01795">
        <ele>427.1</ele>
        <time>2018-05-25T16:22:12 02:00</time>
      </trkpt>
      <trkpt lat="45.23098" lon="5.01822">
        <ele>429.4</ele>
        <time>2018-05-25T16:22:09 02:00</time>
      </trkpt>
      <trkpt lat="45.23084" lon="5.01854">
        <ele>431.5</ele>
        <time>2018-05-25T16:22:06 02:00</time>
      </trkpt>
      <trkpt lat="45.23069" lon="5.01881">
        <ele>433.2</ele>
        <time>2018-05-25T16:22:03 02:00</time>
      </trkpt>
      <trkpt lat="45.23051" lon="5.01911">
        <ele>435.7</ele>
        <time>2018-05-25T16:21:59 02:00</time>
      </trkpt>
      <trkpt lat="45.23029" lon="5.01939">
        <ele>437.8</ele>
        <time>2018-05-25T16:21:55 02:00</time>
      </trkpt>
      <trkpt lat="45.23011" lon="5.01963">
        <ele>438.7</ele>
        <time>2018-05-25T16:21:51 02:00</time>
      </trkpt>
      <trkpt lat="45.22997" lon="5.01991">
        <ele>440.2</ele>
        <time>2018-05-25T16:21:46 02:00</time>
      </trkpt>
      <trkpt lat="45.23004" lon="5.02025">
        <ele>441.9</ele>
        <time>2018-05-25T16:21:42 02:00</time>
      </trkpt>
      <trkpt lat="45.23007" lon="5.02057">
        <ele>443</ele>
        <time>2018-05-25T16:21:39 02:00</time>
      </trkpt>
      <trkpt lat="45.23001" lon="5.02091">
        <ele>444.2</ele>
        <time>2018-05-25T16:21:36 02:00</time>
      </trkpt>
      <trkpt lat="45.22993" lon="5.02127">
        <ele>445.7</ele>
        <time>2018-05-25T16:21:33 02:00</time>
      </trkpt>
      <trkpt lat="45.22981" lon="5.02161">
        <ele>448.3</ele>
        <time>2018-05-25T16:21:30 02:00</time>
      </trkpt>
      <trkpt lat="45.22971" lon="5.02193">
        <ele>449.9</ele>
        <time>2018-05-25T16:21:27 02:00</time>
      </trkpt>
      <trkpt lat="45.22961" lon="5.02228">
        <ele>452.3</ele>
        <time>2018-05-25T16:21:24 02:00</time>
      </trkpt>
      <trkpt lat="45.22951" lon="5.02268">
        <ele>455.1</ele>
        <time>2018-05-25T16:21:21 02:00</time>
      </trkpt>
      <trkpt lat="45.2294" lon="5.02299">
        <ele>456.9</ele>
        <time>2018-05-25T16:21:18 02:00</time>
      </trkpt>
      <trkpt lat="45.22928" lon="5.02337">
        <ele>459.1</ele>
        <time>2018-05-25T16:21:14 02:00</time>
      </trkpt>
      <trkpt lat="45.22917" lon="5.0237">
        <ele>460</ele>
        <time>2018-05-25T16:21:10 02:00</time>
      </trkpt>
      <trkpt lat="45.22909" lon="5.02403">
        <ele>460.1</ele>
        <time>2018-05-25T16:21:00 02:00</time>
      </trkpt>
      <trkpt lat="45.22898" lon="5.02432">
        <ele>459.3</ele>
        <time>2018-05-25T16:20:43 02:00</time>
      </trkpt>
      <trkpt lat="45.22919" lon="5.02447">
        <ele>456.6</ele>
        <time>2018-05-25T16:20:24 02:00</time>
      </trkpt>
      <trkpt lat="45.2294" lon="5.02461">
        <ele>454.3</ele>
        <time>2018-05-25T16:20:05 02:00</time>
      </trkpt>
      <trkpt lat="45.22964" lon="5.02471">
        <ele>453.1</ele>
        <time>2018-05-25T16:19:41 02:00</time>
      </trkpt>
      <trkpt lat="45.22987" lon="5.02475">
        <ele>453.2</ele>
        <time>2018-05-25T16:19:23 02:00</time>
      </trkpt>
      <trkpt lat="45.23009" lon="5.02489">
        <ele>452.5</ele>
        <time>2018-05-25T16:19:08 02:00</time>
      </trkpt>
      <trkpt lat="45.23031" lon="5.02496">
        <ele>452.5</ele>
        <time>2018-05-25T16:18:55 02:00</time>
      </trkpt>
      <trkpt lat="45.23053" lon="5.02507">
        <ele>452.1</ele>
        <time>2018-05-25T16:18:37 02:00</time>
      </trkpt>
      <trkpt lat="45.23074" lon="5.02522">
        <ele>451</ele>
        <time>2018-05-25T16:18:24 02:00</time>
      </trkpt>
      <trkpt lat="45.23096" lon="5.02527">
        <ele>450.6</ele>
        <time>2018-05-25T16:18:10 02:00</time>
      </trkpt>
      <trkpt lat="45.23117" lon="5.02514">
        <ele>449.7</ele>
        <time>2018-05-25T16:17:52 02:00</time>
      </trkpt>
      <trkpt lat="45.23126" lon="5.02544">
        <ele>449.2</ele>
        <time>2018-05-25T16:17:35 02:00</time>
      </trkpt>
      <trkpt lat="45.2314" lon="5.02569">
        <ele>448.1</ele>
        <time>2018-05-25T16:17:08 02:00</time>
      </trkpt>
      <trkpt lat="45.23151" lon="5.02598">
        <ele>446.6</ele>
        <time>2018-05-25T16:16:58 02:00</time>
      </trkpt>
      <trkpt lat="45.2317" lon="5.02619">
        <ele>446.5</ele>
        <time>2018-05-25T16:16:50 02:00</time>
      </trkpt>
      <trkpt lat="45.2319" lon="5.02635">
        <ele>446</ele>
        <time>2018-05-25T16:16:43 02:00</time>
      </trkpt>
      <trkpt lat="45.23213" lon="5.02645">
        <ele>446.4</ele>
        <time>2018-05-25T16:16:35 02:00</time>
      </trkpt>
      <trkpt lat="45.2323" lon="5.02666">
        <ele>446</ele>
        <time>2018-05-25T16:16:27 02:00</time>
      </trkpt>
      <trkpt lat="45.23247" lon="5.02689">
        <ele>444.4</ele>
        <time>2018-05-25T16:16:17 02:00</time>
      </trkpt>
      <trkpt lat="45.23266" lon="5.02706">
        <ele>442.4</ele>
        <time>2018-05-25T16:15:47 02:00</time>
      </trkpt>
      <trkpt lat="45.23297" lon="5.02715">
        <ele>440.9</ele>
        <time>2018-05-25T16:15:12 02:00</time>
      </trkpt>
      <trkpt lat="45.23321" lon="5.02717">
        <ele>440.6</ele>
        <time>2018-05-25T16:15:01 02:00</time>
      </trkpt>
      <trkpt lat="45.23346" lon="5.02714">
        <ele>440.9</ele>
        <time>2018-05-25T16:14:53 02:00</time>
      </trkpt>
      <trkpt lat="45.23371" lon="5.02717">
        <ele>440.8</ele>
        <time>2018-05-25T16:14:43 02:00</time>
      </trkpt>
      <trkpt lat="45.23393" lon="5.02724">
        <ele>440.8</ele>
        <time>2018-05-25T16:14:31 02:00</time>
      </trkpt>
      <trkpt lat="45.23416" lon="5.02731">
        <ele>440.1</ele>
        <time>2018-05-25T16:14:20 02:00</time>
      </trkpt>
      <trkpt lat="45.23438" lon="5.02738">
        <ele>439.7</ele>
        <time>2018-05-25T16:14:11 02:00</time>
      </trkpt>
      <trkpt lat="45.2346" lon="5.02744">
        <ele>439.3</ele>
        <time>2018-05-25T16:14:01 02:00</time>
      </trkpt>
      <trkpt lat="45.23484" lon="5.02749">
        <ele>439</ele>
        <time>2018-05-25T16:13:48 02:00</time>
      </trkpt>
      <trkpt lat="45.23509" lon="5.02754">
        <ele>438.4</ele>
        <time>2018-05-25T16:13:38 02:00</time>
      </trkpt>
      <trkpt lat="45.23533" lon="5.02764">
        <ele>437.4</ele>
        <time>2018-05-25T16:13:25 02:00</time>
      </trkpt>
      <trkpt lat="45.23554" lon="5.02773">
        <ele>437</ele>
        <time>2018-05-25T16:13:12 02:00</time>
      </trkpt>
      <trkpt lat="45.23576" lon="5.02787">
        <ele>435.9</ele>
        <time>2018-05-25T16:12:57 02:00</time>
      </trkpt>
      <trkpt lat="45.23598" lon="5.02797">
        <ele>434.6</ele>
        <time>2018-05-25T16:12:48 02:00</time>
      </trkpt>
      <trkpt lat="45.23619" lon="5.02811">
        <ele>433.3</ele>
        <time>2018-05-25T16:12:36 02:00</time>
      </trkpt>
      <trkpt lat="45.23639" lon="5.02828">
        <ele>432</ele>
        <time>2018-05-25T16:12:27 02:00</time>
      </trkpt>
      <trkpt lat="45.23661" lon="5.02839">
        <ele>431.2</ele>
        <time>2018-05-25T16:12:18 02:00</time>
      </trkpt>
      <trkpt lat="45.23682" lon="5.02851">
        <ele>430.4</ele>
        <time>2018-05-25T16:12:06 02:00</time>
      </trkpt>
      <trkpt lat="45.23701" lon="5.0287">
        <ele>429.8</ele>
        <time>2018-05-25T16:11:57 02:00</time>
      </trkpt>
      <trkpt lat="45.23721" lon="5.02885">
        <ele>429.1</ele>
        <time>2018-05-25T16:11:48 02:00</time>
      </trkpt>
      <trkpt lat="45.23745" lon="5.029">
        <ele>427.3</ele>
        <time>2018-05-25T16:11:38 02:00</time>
      </trkpt>
      <trkpt lat="45.23765" lon="5.02917">
        <ele>426.5</ele>
        <time>2018-05-25T16:11:28 02:00</time>
      </trkpt>
      <trkpt lat="45.23785" lon="5.02937">
        <ele>425.7</ele>
        <time>2018-05-25T16:11:17 02:00</time>
      </trkpt>
      <trkpt lat="45.23806" lon="5.02954">
        <ele>424.7</ele>
        <time>2018-05-25T16:11:07 02:00</time>
      </trkpt>
      <trkpt lat="45.2383" lon="5.02964">
        <ele>424.3</ele>
        <time>2018-05-25T16:10:59 02:00</time>
      </trkpt>
      <trkpt lat="45.23854" lon="5.02973">
        <ele>424.7</ele>
        <time>2018-05-25T16:10:50 02:00</time>
      </trkpt>
      <trkpt lat="45.23878" lon="5.02977">
        <ele>424.8</ele>
        <time>2018-05-25T16:10:37 02:00</time>
      </trkpt>
      <trkpt lat="45.23898" lon="5.02991">
        <ele>424.2</ele>
        <time>2018-05-25T16:10:27 02:00</time>
      </trkpt>
      <trkpt lat="45.23919" lon="5.03002">
        <ele>423.8</ele>
        <time>2018-05-25T16:10:15 02:00</time>
      </trkpt>
      <trkpt lat="45.23942" lon="5.03007">
        <ele>422.8</ele>
        <time>2018-05-25T16:10:02 02:00</time>
      </trkpt>
      <trkpt lat="45.23964" lon="5.03017">
        <ele>421.9</ele>
        <time>2018-05-25T16:09:50 02:00</time>
      </trkpt>
      <trkpt lat="45.23987" lon="5.03027">
        <ele>421</ele>
        <time>2018-05-25T16:09:36 02:00</time>
      </trkpt>
      <trkpt lat="45.2401" lon="5.03033">
        <ele>420.4</ele>
        <time>2018-05-25T16:09:22 02:00</time>
      </trkpt>
      <trkpt lat="45.24033" lon="5.03034">
        <ele>419.4</ele>
        <time>2018-05-25T16:08:54 02:00</time>
      </trkpt>
      <trkpt lat="45.24057" lon="5.03034">
        <ele>417.9</ele>
        <time>2018-05-25T16:08:32 02:00</time>
      </trkpt>
      <trkpt lat="45.2408" lon="5.0304">
        <ele>415.4</ele>
        <time>2018-05-25T16:08:07 02:00</time>
      </trkpt>
      <trkpt lat="45.24102" lon="5.03048">
        <ele>411.7</ele>
        <time>2018-05-25T16:07:39 02:00</time>
      </trkpt>
      <trkpt lat="45.24125" lon="5.03052">
        <ele>407.9</ele>
        <time>2018-05-25T16:07:14 02:00</time>
      </trkpt>
      <trkpt lat="45.24147" lon="5.0305">
        <ele>404.4</ele>
        <time>2018-05-25T16:06:54 02:00</time>
      </trkpt>
      <trkpt lat="45.24171" lon="5.03048">
        <ele>401.4</ele>
        <time>2018-05-25T16:05:20 02:00</time>
      </trkpt>
      <trkpt lat="45.24193" lon="5.03044">
        <ele>399.3</ele>
        <time>2018-05-25T16:05:01 02:00</time>
      </trkpt>
      <trkpt lat="45.24217" lon="5.03043">
        <ele>397.5</ele>
        <time>2018-05-25T16:04:44 02:00</time>
      </trkpt>
      <trkpt lat="45.24241" lon="5.03039">
        <ele>395.9</ele>
        <time>2018-05-25T16:04:26 02:00</time>
      </trkpt>
      <trkpt lat="45.24258" lon="5.03017">
        <ele>393.3</ele>
        <time>2018-05-25T16:04:00 02:00</time>
      </trkpt>
      <trkpt lat="45.24279" lon="5.03003">
        <ele>391.3</ele>
        <time>2018-05-25T16:03:38 02:00</time>
      </trkpt>
      <trkpt lat="45.24301" lon="5.02991">
        <ele>388.8</ele>
        <time>2018-05-25T16:03:19 02:00</time>
      </trkpt>
      <trkpt lat="45.24322" lon="5.0298">
        <ele>387.1</ele>
        <time>2018-05-25T16:02:59 02:00</time>
      </trkpt>
      <trkpt lat="45.24343" lon="5.02965">
        <ele>384.5</ele>
        <time>2018-05-25T16:02:40 02:00</time>
      </trkpt>
      <trkpt lat="45.24362" lon="5.02945">
        <ele>382.1</ele>
        <time>2018-05-25T16:02:21 02:00</time>
      </trkpt>
      <trkpt lat="45.24379" lon="5.02922">
        <ele>380.2</ele>
        <time>2018-05-25T16:02:04 02:00</time>
      </trkpt>
      <trkpt lat="45.24396" lon="5.029">
        <ele>377.9</ele>
        <time>2018-05-25T16:01:49 02:00</time>
      </trkpt>
      <trkpt lat="45.24414" lon="5.0288">
        <ele>376.6</ele>
        <time>2018-05-25T16:01:35 02:00</time>
      </trkpt>
      <trkpt lat="45.24437" lon="5.0287">
        <ele>374.1</ele>
        <time>2018-05-25T16:01:20 02:00</time>
      </trkpt>
      <trkpt lat="45.2446" lon="5.02877">
        <ele>372.4</ele>
        <time>2018-05-25T16:01:03 02:00</time>
      </trkpt>
      <trkpt lat="45.24481" lon="5.02892">
        <ele>370.2</ele>
        <time>2018-05-25T16:00:44 02:00</time>
      </trkpt>
      <trkpt lat="45.24501" lon="5.0291">
        <ele>367.9</ele>
        <time>2018-05-25T16:00:23 02:00</time>
      </trkpt>
      <trkpt lat="45.2452" lon="5.02927">
        <ele>365.6</ele>
        <time>2018-05-25T16:00:04 02:00</time>
      </trkpt>
      <trkpt lat="45.2454" lon="5.02945">
        <ele>362.7</ele>
        <time>2018-05-25T15:59:44 02:00</time>
      </trkpt>
      <trkpt lat="45.2456" lon="5.02962">
        <ele>359.9</ele>
        <time>2018-05-25T15:59:23 02:00</time>
      </trkpt>
      <trkpt lat="45.24582" lon="5.02975">
        <ele>356.3</ele>
        <time>2018-05-25T15:59:05 02:00</time>
      </trkpt>
      <trkpt lat="45.24604" lon="5.02984">
        <ele>353.9</ele>
        <time>2018-05-25T15:58:52 02:00</time>
      </trkpt>
      <trkpt lat="45.24627" lon="5.02991">
        <ele>350.9</ele>
        <time>2018-05-25T15:58:38 02:00</time>
      </trkpt>
      <trkpt lat="45.24646" lon="5.03011">
        <ele>347.8</ele>
        <time>2018-05-25T15:58:25 02:00</time>
      </trkpt>
      <trkpt lat="45.24644" lon="5.03046">
        <ele>348.1</ele>
        <time>2018-05-25T15:58:18 02:00</time>
      </trkpt>
      <trkpt lat="45.24634" lon="5.03075">
        <ele>348.8</ele>
        <time>2018-05-25T15:58:13 02:00</time>
      </trkpt>
      <trkpt lat="45.24617" lon="5.03102">
        <ele>350.4</ele>
        <time>2018-05-25T15:58:09 02:00</time>
      </trkpt>
      <trkpt lat="45.24602" lon="5.03128">
        <ele>351.6</ele>
        <time>2018-05-25T15:58:05 02:00</time>
      </trkpt>
      <trkpt lat="45.24586" lon="5.03153">
        <ele>352.7</ele>
        <time>2018-05-25T15:58:01 02:00</time>
      </trkpt>
      <trkpt lat="45.24567" lon="5.03174">
        <ele>353.3</ele>
        <time>2018-05-25T15:57:56 02:00</time>
      </trkpt>
      <trkpt lat="45.24546" lon="5.03188">
        <ele>354.2</ele>
        <time>2018-05-25T15:57:51 02:00</time>
      </trkpt>
      <trkpt lat="45.24524" lon="5.032">
        <ele>354.6</ele>
        <time>2018-05-25T15:57:45 02:00</time>
      </trkpt>
      <trkpt lat="45.24499" lon="5.03209">
        <ele>354</ele>
        <time>2018-05-25T15:57:39 02:00</time>
      </trkpt>
      <trkpt lat="45.24472" lon="5.03218">
        <ele>354.7</ele>
        <time>2018-05-25T15:57:34 02:00</time>
      </trkpt>
      <trkpt lat="45.24449" lon="5.03229">
        <ele>355</ele>
        <time>2018-05-25T15:57:30 02:00</time>
      </trkpt>
      <trkpt lat="45.24426" lon="5.03249">
        <ele>355.1</ele>
        <time>2018-05-25T15:57:26 02:00</time>
      </trkpt>
      <trkpt lat="45.24407" lon="5.03271">
        <ele>354.7</ele>
        <time>2018-05-25T15:57:23 02:00</time>
      </trkpt>
      <trkpt lat="45.24386" lon="5.03295">
        <ele>355</ele>
        <time>2018-05-25T15:57:20 02:00</time>
      </trkpt>
      <trkpt lat="45.24362" lon="5.03318">
        <ele>356.1</ele>
        <time>2018-05-25T15:57:17 02:00</time>
      </trkpt>
      <trkpt lat="45.24336" lon="5.03336">
        <ele>356.4</ele>
        <time>2018-05-25T15:57:14 02:00</time>
      </trkpt>
      <trkpt lat="45.24307" lon="5.03352">
        <ele>359.6</ele>
        <time>2018-05-25T15:57:11 02:00</time>
      </trkpt>
      <trkpt lat="45.24279" lon="5.03358">
        <ele>361.6</ele>
        <time>2018-05-25T15:57:08 02:00</time>
      </trkpt>
      <trkpt lat="45.24253" lon="5.03357">
        <ele>363.2</ele>
        <time>2018-05-25T15:57:05 02:00</time>
      </trkpt>
      <trkpt lat="45.24229" lon="5.03355">
        <ele>365.2</ele>
        <time>2018-05-25T15:57:02 02:00</time>
      </trkpt>
      <trkpt lat="45.24206" lon="5.03354">
        <ele>365.5</ele>
        <time>2018-05-25T15:56:59 02:00</time>
      </trkpt>
      <trkpt lat="45.24184" lon="5.0335">
        <ele>367.2</ele>
        <time>2018-05-25T15:56:56 02:00</time>
      </trkpt>
      <trkpt lat="45.24159" lon="5.03348">
        <ele>369.3</ele>
        <time>2018-05-25T15:56:52 02:00</time>
      </trkpt>
      <trkpt lat="45.24133" lon="5.03352">
        <ele>369.3</ele>
        <time>2018-05-25T15:56:45 02:00</time>
      </trkpt>
      <trkpt lat="45.24108" lon="5.03354">
        <ele>369.5</ele>
        <time>2018-05-25T15:56:37 02:00</time>
      </trkpt>
      <trkpt lat="45.24085" lon="5.03364">
        <ele>368.2</ele>
        <time>2018-05-25T15:56:28 02:00</time>
      </trkpt>
      <trkpt lat="45.2406" lon="5.03373">
        <ele>368.3</ele>
        <time>2018-05-25T15:56:21 02:00</time>
      </trkpt>
      <trkpt lat="45.24035" lon="5.03381">
        <ele>366.9</ele>
        <time>2018-05-25T15:56:13 02:00</time>
      </trkpt>
      <trkpt lat="45.2401" lon="5.03386">
        <ele>366.4</ele>
        <time>2018-05-25T15:56:06 02:00</time>
      </trkpt>
      <trkpt lat="45.23985" lon="5.03388">
        <ele>365.1</ele>
        <time>2018-05-25T15:55:59 02:00</time>
      </trkpt>
      <trkpt lat="45.23961" lon="5.03388">
        <ele>364.2</ele>
        <time>2018-05-25T15:55:52 02:00</time>
      </trkpt>
      <trkpt lat="45.23936" lon="5.03396">
        <ele>363.2</ele>
        <time>2018-05-25T15:55:45 02:00</time>
      </trkpt>
      <trkpt lat="45.23916" lon="5.03414">
        <ele>362.3</ele>
        <time>2018-05-25T15:55:40 02:00</time>
      </trkpt>
      <trkpt lat="45.23895" lon="5.03424">
        <ele>362</ele>
        <time>2018-05-25T15:55:36 02:00</time>
      </trkpt>
      <trkpt lat="45.23869" lon="5.03438">
        <ele>362.1</ele>
        <time>2018-05-25T15:55:31 02:00</time>
      </trkpt>
      <trkpt lat="45.23846" lon="5.03447">
        <ele>362.2</ele>
        <time>2018-05-25T15:55:27 02:00</time>
      </trkpt>
      <trkpt lat="45.2382" lon="5.03455">
        <ele>362.4</ele>
        <time>2018-05-25T15:55:22 02:00</time>
      </trkpt>
      <trkpt lat="45.23796" lon="5.03459">
        <ele>363</ele>
        <time>2018-05-25T15:55:17 02:00</time>
      </trkpt>
      <trkpt lat="45.23772" lon="5.03461">
        <ele>364.3</ele>
        <time>2018-05-25T15:55:12 02:00</time>
      </trkpt>
      <trkpt lat="45.23746" lon="5.03452">
        <ele>367.4</ele>
        <time>2018-05-25T15:55:06 02:00</time>
      </trkpt>
      <trkpt lat="45.23721" lon="5.03445">
        <ele>369.8</ele>
        <time>2018-05-25T15:55:00 02:00</time>
      </trkpt>
      <trkpt lat="45.23698" lon="5.03436">
        <ele>370.1</ele>
        <time>2018-05-25T15:54:54 02:00</time>
      </trkpt>
      <trkpt lat="45.23682" lon="5.03411">
        <ele>370.2</ele>
        <time>2018-05-25T15:54:49 02:00</time>
      </trkpt>
      <trkpt lat="45.23668" lon="5.03383">
        <ele>370.6</ele>
        <time>2018-05-25T15:54:43 02:00</time>
      </trkpt>
      <trkpt lat="45.23657" lon="5.03352">
        <ele>369.8</ele>
        <time>2018-05-25T15:54:34 02:00</time>
      </trkpt>
      <trkpt lat="45.23646" lon="5.0332">
        <ele>368.7</ele>
        <time>2018-05-25T15:54:26 02:00</time>
      </trkpt>
      <trkpt lat="45.23632" lon="5.03295">
        <ele>366.6</ele>
        <time>2018-05-25T15:54:15 02:00</time>
      </trkpt>
      <trkpt lat="45.23613" lon="5.03273">
        <ele>363.8</ele>
        <time>2018-05-25T15:54:07 02:00</time>
      </trkpt>
      <trkpt lat="45.23588" lon="5.03259">
        <ele>360.9</ele>
        <time>2018-05-25T15:54:01 02:00</time>
      </trkpt>
      <trkpt lat="45.23566" lon="5.03243">
        <ele>360.2</ele>
        <time>2018-05-25T15:53:51 02:00</time>
      </trkpt>
      <trkpt lat="45.23548" lon="5.03224">
        <ele>361.3</ele>
        <time>2018-05-25T15:53:45 02:00</time>
      </trkpt>
      <trkpt lat="45.23517" lon="5.03216">
        <ele>360.5</ele>
        <time>2018-05-25T15:53:41 02:00</time>
      </trkpt>
      <trkpt lat="45.23486" lon="5.03206">
        <ele>360.4</ele>
        <time>2018-05-25T15:53:35 02:00</time>
      </trkpt>
      <trkpt lat="45.23463" lon="5.03195">
        <ele>360.6</ele>
        <time>2018-05-25T15:53:28 02:00</time>
      </trkpt>
      <trkpt lat="45.23444" lon="5.03178">
        <ele>361.8</ele>
        <time>2018-05-25T15:53:21 02:00</time>
      </trkpt>
      <trkpt lat="45.23423" lon="5.03162">
        <ele>362.6</ele>
        <time>2018-05-25T15:53:16 02:00</time>
      </trkpt>
      <trkpt lat="45.23406" lon="5.03139">
        <ele>364.1</ele>
        <time>2018-05-25T15:53:11 02:00</time>
      </trkpt>
      <trkpt lat="45.23388" lon="5.03115">
        <ele>367.4</ele>
        <time>2018-05-25T15:53:06 02:00</time>
      </trkpt>
      <trkpt lat="45.23364" lon="5.03102">
        <ele>369.7</ele>
        <time>2018-05-25T15:52:59 02:00</time>
      </trkpt>
      <trkpt lat="45.23341" lon="5.03103">
        <ele>370.2</ele>
        <time>2018-05-25T15:52:47 02:00</time>
      </trkpt>
      <trkpt lat="45.2332" lon="5.03113">
        <ele>369.4</ele>
        <time>2018-05-25T15:52:32 02:00</time>
      </trkpt>
      <trkpt lat="45.23297" lon="5.03119">
        <ele>369.5</ele>
        <time>2018-05-25T15:52:24 02:00</time>
      </trkpt>
      <trkpt lat="45.23272" lon="5.03124">
        <ele>369.6</ele>
        <time>2018-05-25T15:52:14 02:00</time>
      </trkpt>
      <trkpt lat="45.23248" lon="5.03128">
        <ele>369.3</ele>
        <time>2018-05-25T15:52:04 02:00</time>
      </trkpt>
      <trkpt lat="45.23226" lon="5.03137">
        <ele>369.1</ele>
        <time>2018-05-25T15:51:50 02:00</time>
      </trkpt>
      <trkpt lat="45.23204" lon="5.03146">
        <ele>369.5</ele>
        <time>2018-05-25T15:50:24 02:00</time>
      </trkpt>
      <trkpt lat="45.23181" lon="5.03143">
        <ele>369.9</ele>
        <time>2018-05-25T15:50:14 02:00</time>
      </trkpt>
      <trkpt lat="45.23162" lon="5.03162">
        <ele>369.7</ele>
        <time>2018-05-25T15:49:58 02:00</time>
      </trkpt>
      <trkpt lat="45.23147" lon="5.03186">
        <ele>370.9</ele>
        <time>2018-05-25T15:49:50 02:00</time>
      </trkpt>
      <trkpt lat="45.23127" lon="5.03205">
        <ele>372.3</ele>
        <time>2018-05-25T15:49:45 02:00</time>
      </trkpt>
      <trkpt lat="45.23109" lon="5.03228">
        <ele>373.9</ele>
        <time>2018-05-25T15:49:39 02:00</time>
      </trkpt>
      <trkpt lat="45.23096" lon="5.03258">
        <ele>374.3</ele>
        <time>2018-05-25T15:49:33 02:00</time>
      </trkpt>
      <trkpt lat="45.2308" lon="5.03288">
        <ele>375.8</ele>
        <time>2018-05-25T15:49:28 02:00</time>
      </trkpt>
      <trkpt lat="45.23061" lon="5.03315">
        <ele>376.3</ele>
        <time>2018-05-25T15:49:23 02:00</time>
      </trkpt>
      <trkpt lat="45.23046" lon="5.03339">
        <ele>377.2</ele>
        <time>2018-05-25T15:49:19 02:00</time>
      </trkpt>
      <trkpt lat="45.23042" lon="5.03375">
        <ele>378.3</ele>
        <time>2018-05-25T15:49:14 02:00</time>
      </trkpt>
      <trkpt lat="45.23049" lon="5.03418">
        <ele>379.8</ele>
        <time>2018-05-25T15:49:11 02:00</time>
      </trkpt>
      <trkpt lat="45.23056" lon="5.03453">
        <ele>383</ele>
        <time>2018-05-25T15:49:09 02:00</time>
      </trkpt>
      <trkpt lat="45.23063" lon="5.03487">
        <ele>388.1</ele>
        <time>2018-05-25T15:49:07 02:00</time>
      </trkpt>
      <trkpt lat="45.23066" lon="5.03529">
        <ele>392.6</ele>
        <time>2018-05-25T15:49:04 02:00</time>
      </trkpt>
      <trkpt lat="45.23066" lon="5.03564">
        <ele>395.6</ele>
        <time>2018-05-25T15:49:01 02:00</time>
      </trkpt>
      <trkpt lat="45.23065" lon="5.03604">
        <ele>398.9</ele>
        <time>2018-05-25T15:48:56 02:00</time>
      </trkpt>
      <trkpt lat="45.23084" lon="5.03582">
        <ele>401</ele>
        <time>2018-05-25T15:48:51 02:00</time>
      </trkpt>
      <trkpt lat="45.2311" lon="5.03563">
        <ele>402.4</ele>
        <time>2018-05-25T15:48:47 02:00</time>
      </trkpt>
      <trkpt lat="45.23131" lon="5.03552">
        <ele>403.1</ele>
        <time>2018-05-25T15:48:44 02:00</time>
      </trkpt>
      <trkpt lat="45.23159" lon="5.03539">
        <ele>403.9</ele>
        <time>2018-05-25T15:48:40 02:00</time>
      </trkpt>
      <trkpt lat="45.23181" lon="5.03538">
        <ele>404.5</ele>
        <time>2018-05-25T15:48:36 02:00</time>
      </trkpt>
      <trkpt lat="45.23197" lon="5.03563">
        <ele>403.6</ele>
        <time>2018-05-25T15:48:32 02:00</time>
      </trkpt>
      <trkpt lat="45.23194" lon="5.03595">
        <ele>404</ele>
        <time>2018-05-25T15:48:29 02:00</time>
      </trkpt>
      <trkpt lat="45.23171" lon="5.03623">
        <ele>408.7</ele>
        <time>2018-05-25T15:48:26 02:00</time>
      </trkpt>
      <trkpt lat="45.23154" lon="5.03646">
        <ele>412.2</ele>
        <time>2018-05-25T15:48:24 02:00</time>
      </trkpt>
      <trkpt lat="45.23136" lon="5.03686">
        <ele>417.4</ele>
        <time>2018-05-25T15:48:21 02:00</time>
      </trkpt>
      <trkpt lat="45.23129" lon="5.03732">
        <ele>422.1</ele>
        <time>2018-05-25T15:48:18 02:00</time>
      </trkpt>
      <trkpt lat="45.23123" lon="5.03776">
        <ele>425.5</ele>
        <time>2018-05-25T15:48:15 02:00</time>
      </trkpt>
      <trkpt lat="45.23123" lon="5.03814">
        <ele>429.6</ele>
        <time>2018-05-25T15:48:12 02:00</time>
      </trkpt>
      <trkpt lat="45.23121" lon="5.03854">
        <ele>431.7</ele>
        <time>2018-05-25T15:48:08 02:00</time>
      </trkpt>
      <trkpt lat="45.23114" lon="5.03889">
        <ele>433.1</ele>
        <time>2018-05-25T15:48:03 02:00</time>
      </trkpt>
      <trkpt lat="45.23102" lon="5.03922">
        <ele>434.1</ele>
        <time>2018-05-25T15:47:56 02:00</time>
      </trkpt>
      <trkpt lat="45.23094" lon="5.03956">
        <ele>434.1</ele>
        <time>2018-05-25T15:47:40 02:00</time>
      </trkpt>
      <trkpt lat="45.23117" lon="5.0396">
        <ele>432.4</ele>
        <time>2018-05-25T15:47:19 02:00</time>
      </trkpt>
      <trkpt lat="45.2314" lon="5.03965">
        <ele>429.8</ele>
        <time>2018-05-25T15:46:58 02:00</time>
      </trkpt>
      <trkpt lat="45.23163" lon="5.03974">
        <ele>427.1</ele>
        <time>2018-05-25T15:46:36 02:00</time>
      </trkpt>
      <trkpt lat="45.23184" lon="5.03987">
        <ele>424.2</ele>
        <time>2018-05-25T15:46:08 02:00</time>
      </trkpt>
      <trkpt lat="45.23204" lon="5.04004">
        <ele>420.5</ele>
        <time>2018-05-25T15:45:41 02:00</time>
      </trkpt>
      <trkpt lat="45.23225" lon="5.04017">
        <ele>416.9</ele>
        <time>2018-05-25T15:45:19 02:00</time>
      </trkpt>
      <trkpt lat="45.23248" lon="5.04026">
        <ele>413.4</ele>
        <time>2018-05-25T15:44:59 02:00</time>
      </trkpt>
      <trkpt lat="45.23271" lon="5.04033">
        <ele>411.3</ele>
        <time>2018-05-25T15:44:40 02:00</time>
      </trkpt>
      <trkpt lat="45.23295" lon="5.04036">
        <ele>409.1</ele>
        <time>2018-05-25T15:44:20 02:00</time>
      </trkpt>
      <trkpt lat="45.23317" lon="5.04045">
        <ele>406.9</ele>
        <time>2018-05-25T15:44:01 02:00</time>
      </trkpt>
      <trkpt lat="45.23339" lon="5.04051">
        <ele>405.2</ele>
        <time>2018-05-25T15:43:39 02:00</time>
      </trkpt>
      <trkpt lat="45.2336" lon="5.04037">
        <ele>402.8</ele>
        <time>2018-05-25T15:43:25 02:00</time>
      </trkpt>
      <trkpt lat="45.23382" lon="5.04024">
        <ele>400.9</ele>
        <time>2018-05-25T15:43:06 02:00</time>
      </trkpt>
      <trkpt lat="45.23406" lon="5.0402">
        <ele>399</ele>
        <time>2018-05-25T15:42:51 02:00</time>
      </trkpt>
      <trkpt lat="45.23429" lon="5.04017">
        <ele>397.5</ele>
        <time>2018-05-25T15:42:38 02:00</time>
      </trkpt>
      <trkpt lat="45.23451" lon="5.04013">
        <ele>395.4</ele>
        <time>2018-05-25T15:42:20 02:00</time>
      </trkpt>
      <trkpt lat="45.23475" lon="5.04015">
        <ele>394</ele>
        <time>2018-05-25T15:42:07 02:00</time>
      </trkpt>
      <trkpt lat="45.23499" lon="5.04014">
        <ele>392.5</ele>
        <time>2018-05-25T15:41:53 02:00</time>
      </trkpt>
      <trkpt lat="45.23522" lon="5.04009">
        <ele>390.4</ele>
        <time>2018-05-25T15:41:40 02:00</time>
      </trkpt>
      <trkpt lat="45.23545" lon="5.04001">
        <ele>388.4</ele>
        <time>2018-05-25T15:41:24 02:00</time>
      </trkpt>
      <trkpt lat="45.23567" lon="5.03993">
        <ele>386.5</ele>
        <time>2018-05-25T15:41:02 02:00</time>
      </trkpt>
      <trkpt lat="45.23591" lon="5.03988">
        <ele>384.4</ele>
        <time>2018-05-25T15:40:27 02:00</time>
      </trkpt>
      <trkpt lat="45.23614" lon="5.03983">
        <ele>382.1</ele>
        <time>2018-05-25T15:40:10 02:00</time>
      </trkpt>
      <trkpt lat="45.23638" lon="5.03979">
        <ele>380.3</ele>
        <time>2018-05-25T15:39:52 02:00</time>
      </trkpt>
      <trkpt lat="45.23659" lon="5.03993">
        <ele>379.3</ele>
        <time>2018-05-25T15:39:35 02:00</time>
      </trkpt>
      <trkpt lat="45.23674" lon="5.0402">
        <ele>377.8</ele>
        <time>2018-05-25T15:39:16 02:00</time>
      </trkpt>
      <trkpt lat="45.23673" lon="5.04052">
        <ele>376.7</ele>
        <time>2018-05-25T15:38:50 02:00</time>
      </trkpt>
      <trkpt lat="45.23649" lon="5.04058">
        <ele>378.2</ele>
        <time>2018-05-25T15:38:44 02:00</time>
      </trkpt>
      <trkpt lat="45.23629" lon="5.04075">
        <ele>379.3</ele>
        <time>2018-05-25T15:38:29 02:00</time>
      </trkpt>
      <trkpt lat="45.23641" lon="5.04104">
        <ele>376.4</ele>
        <time>2018-05-25T15:38:02 02:00</time>
      </trkpt>
      <trkpt lat="45.23653" lon="5.04132">
        <ele>373.5</ele>
        <time>2018-05-25T15:37:40 02:00</time>
      </trkpt>
      <trkpt lat="45.23664" lon="5.04162">
        <ele>371.3</ele>
        <time>2018-05-25T15:37:23 02:00</time>
      </trkpt>
      <trkpt lat="45.23677" lon="5.0419">
        <ele>367.1</ele>
        <time>2018-05-25T15:36:47 02:00</time>
      </trkpt>
      <trkpt lat="45.23687" lon="5.04218">
        <ele>364</ele>
        <time>2018-05-25T15:36:27 02:00</time>
      </trkpt>
      <trkpt lat="45.23699" lon="5.04248">
        <ele>364.1</ele>
        <time>2018-05-25T15:36:24 02:00</time>
      </trkpt>
      <trkpt lat="45.2371" lon="5.04284">
        <ele>367.4</ele>
        <time>2018-05-25T15:36:21 02:00</time>
      </trkpt>
      <trkpt lat="45.2372" lon="5.04321">
        <ele>370</ele>
        <time>2018-05-25T15:36:18 02:00</time>
      </trkpt>
      <trkpt lat="45.23731" lon="5.04357">
        <ele>373.6</ele>
        <time>2018-05-25T15:36:15 02:00</time>
      </trkpt>
      <trkpt lat="45.23737" lon="5.04392">
        <ele>376.8</ele>
        <time>2018-05-25T15:36:12 02:00</time>
      </trkpt>
      <trkpt lat="45.2374" lon="5.04428">
        <ele>380.8</ele>
        <time>2018-05-25T15:36:09 02:00</time>
      </trkpt>
      <trkpt lat="45.23741" lon="5.0446">
        <ele>383.7</ele>
        <time>2018-05-25T15:36:06 02:00</time>
      </trkpt>
      <trkpt lat="45.23742" lon="5.04496">
        <ele>386.5</ele>
        <time>2018-05-25T15:36:02 02:00</time>
      </trkpt>
      <trkpt lat="45.23743" lon="5.04534">
        <ele>388.3</ele>
        <time>2018-05-25T15:35:57 02:00</time>
      </trkpt>
      <trkpt lat="45.23747" lon="5.04568">
        <ele>389.6</ele>
        <time>2018-05-25T15:35:48 02:00</time>
      </trkpt>
      <trkpt lat="45.23752" lon="5.04605">
        <ele>392.2</ele>
        <time>2018-05-25T15:35:36 02:00</time>
      </trkpt>
      <trkpt lat="45.2373" lon="5.04617">
        <ele>394.3</ele>
        <time>2018-05-25T15:35:31 02:00</time>
      </trkpt>
      <trkpt lat="45.23718" lon="5.04645">
        <ele>397.7</ele>
        <time>2018-05-25T15:35:26 02:00</time>
      </trkpt>
      <trkpt lat="45.23691" lon="5.04656">
        <ele>397.6</ele>
        <time>2018-05-25T15:34:47 02:00</time>
      </trkpt>
      <trkpt lat="45.23668" lon="5.04659">
        <ele>396.5</ele>
        <time>2018-05-25T15:34:43 02:00</time>
      </trkpt>
      <trkpt lat="45.23639" lon="5.04659">
        <ele>395.4</ele>
        <time>2018-05-25T15:34:39 02:00</time>
      </trkpt>
      <trkpt lat="45.23614" lon="5.04657">
        <ele>395.9</ele>
        <time>2018-05-25T15:34:36 02:00</time>
      </trkpt>
      <trkpt lat="45.23586" lon="5.04655">
        <ele>397.5</ele>
        <time>2018-05-25T15:34:33 02:00</time>
      </trkpt>
      <trkpt lat="45.23557" lon="5.04652">
        <ele>399.8</ele>
        <time>2018-05-25T15:34:30 02:00</time>
      </trkpt>
      <trkpt lat="45.2353" lon="5.04652">
        <ele>404</ele>
        <time>2018-05-25T15:34:27 02:00</time>
      </trkpt>
      <trkpt lat="45.23507" lon="5.04648">
        <ele>406.6</ele>
        <time>2018-05-25T15:34:24 02:00</time>
      </trkpt>
      <trkpt lat="45.23479" lon="5.04638">
        <ele>409.4</ele>
        <time>2018-05-25T15:34:20 02:00</time>
      </trkpt>
      <trkpt lat="45.23454" lon="5.04637">
        <ele>413.8</ele>
        <time>2018-05-25T15:34:16 02:00</time>
      </trkpt>
      <trkpt lat="45.23427" lon="5.04641">
        <ele>417.7</ele>
        <time>2018-05-25T15:34:12 02:00</time>
      </trkpt>
      <trkpt lat="45.23401" lon="5.04645">
        <ele>419.5</ele>
        <time>2018-05-25T15:34:08 02:00</time>
      </trkpt>
      <trkpt lat="45.23374" lon="5.04653">
        <ele>420.5</ele>
        <time>2018-05-25T15:34:04 02:00</time>
      </trkpt>
      <trkpt lat="45.23346" lon="5.0466">
        <ele>422.3</ele>
        <time>2018-05-25T15:34:00 02:00</time>
      </trkpt>
      <trkpt lat="45.23321" lon="5.04665">
        <ele>424.1</ele>
        <time>2018-05-25T15:33:56 02:00</time>
      </trkpt>
      <trkpt lat="45.23296" lon="5.04669">
        <ele>425.6</ele>
        <time>2018-05-25T15:33:52 02:00</time>
      </trkpt>
      <trkpt lat="45.23269" lon="5.04671">
        <ele>426.5</ele>
        <time>2018-05-25T15:33:47 02:00</time>
      </trkpt>
      <trkpt lat="45.23244" lon="5.04672">
        <ele>426.8</ele>
        <time>2018-05-25T15:33:42 02:00</time>
      </trkpt>
      <trkpt lat="45.23218" lon="5.04669">
        <ele>427.4</ele>
        <time>2018-05-25T15:33:37 02:00</time>
      </trkpt>
      <trkpt lat="45.23194" lon="5.04668">
        <ele>428.2</ele>
        <time>2018-05-25T15:33:31 02:00</time>
      </trkpt>
      <trkpt lat="45.23171" lon="5.04668">
        <ele>428.1</ele>
        <time>2018-05-25T15:33:23 02:00</time>
      </trkpt>
      <trkpt lat="45.23149" lon="5.0467">
        <ele>427.1</ele>
        <time>2018-05-25T15:33:18 02:00</time>
      </trkpt>
      <trkpt lat="45.23123" lon="5.0467">
        <ele>425.7</ele>
        <time>2018-05-25T15:33:14 02:00</time>
      </trkpt>
      <trkpt lat="45.23099" lon="5.04669">
        <ele>425.7</ele>
        <time>2018-05-25T15:33:11 02:00</time>
      </trkpt>
      <trkpt lat="45.23074" lon="5.04668">
        <ele>426.9</ele>
        <time>2018-05-25T15:33:08 02:00</time>
      </trkpt>
      <trkpt lat="45.23047" lon="5.04676">
        <ele>429.7</ele>
        <time>2018-05-25T15:33:05 02:00</time>
      </trkpt>
      <trkpt lat="45.23021" lon="5.04683">
        <ele>433.2</ele>
        <time>2018-05-25T15:33:02 02:00</time>
      </trkpt>
      <trkpt lat="45.22993" lon="5.04688">
        <ele>437.3</ele>
        <time>2018-05-25T15:32:58 02:00</time>
      </trkpt>
      <trkpt lat="45.22966" lon="5.04693">
        <ele>441.4</ele>
        <time>2018-05-25T15:32:54 02:00</time>
      </trkpt>
      <trkpt lat="45.22944" lon="5.047">
        <ele>444.8</ele>
        <time>2018-05-25T15:32:51 02:00</time>
      </trkpt>
      <trkpt lat="45.22921" lon="5.04704">
        <ele>448</ele>
        <time>2018-05-25T15:32:47 02:00</time>
      </trkpt>
      <trkpt lat="45.22894" lon="5.04707">
        <ele>449.6</ele>
        <time>2018-05-25T15:32:43 02:00</time>
      </trkpt>
      <trkpt lat="45.22871" lon="5.04711">
        <ele>451.7</ele>
        <time>2018-05-25T15:32:40 02:00</time>
      </trkpt>
      <trkpt lat="45.22846" lon="5.04713">
        <ele>454</ele>
        <time>2018-05-25T15:32:37 02:00</time>
      </trkpt>
      <trkpt lat="45.2282" lon="5.04719">
        <ele>456.6</ele>
        <time>2018-05-25T15:32:34 02:00</time>
      </trkpt>
      <trkpt lat="45.22793" lon="5.04725">
        <ele>459.7</ele>
        <time>2018-05-25T15:32:31 02:00</time>
      </trkpt>
      <trkpt lat="45.22767" lon="5.04727">
        <ele>463.2</ele>
        <time>2018-05-25T15:32:28 02:00</time>
      </trkpt>
      <trkpt lat="45.22738" lon="5.04726">
        <ele>466.8</ele>
        <time>2018-05-25T15:32:24 02:00</time>
      </trkpt>
      <trkpt lat="45.22709" lon="5.04728">
        <ele>469.7</ele>
        <time>2018-05-25T15:32:20 02:00</time>
      </trkpt>
      <trkpt lat="45.22687" lon="5.04734">
        <ele>472.2</ele>
        <time>2018-05-25T15:32:17 02:00</time>
      </trkpt>
      <trkpt lat="45.22664" lon="5.04743">
        <ele>475.1</ele>
        <time>2018-05-25T15:32:14 02:00</time>
      </trkpt>
      <trkpt lat="45.2264" lon="5.04752">
        <ele>478.1</ele>
        <time>2018-05-25T15:32:11 02:00</time>
      </trkpt>
      <trkpt lat="45.22612" lon="5.04762">
        <ele>481.2</ele>
        <time>2018-05-25T15:32:07 02:00</time>
      </trkpt>
      <trkpt lat="45.22586" lon="5.04775">
        <ele>483.7</ele>
        <time>2018-05-25T15:32:03 02:00</time>
      </trkpt>
      <trkpt lat="45.22561" lon="5.04784">
        <ele>485.8</ele>
        <time>2018-05-25T15:31:59 02:00</time>
      </trkpt>
      <trkpt lat="45.22533" lon="5.04788">
        <ele>489.3</ele>
        <time>2018-05-25T15:31:54 02:00</time>
      </trkpt>
      <trkpt lat="45.22518" lon="5.04813">
        <ele>490.3</ele>
        <time>2018-05-25T15:30:46 02:00</time>
      </trkpt>
      <trkpt lat="45.2254" lon="5.04823">
        <ele>488.3</ele>
        <time>2018-05-25T15:30:38 02:00</time>
      </trkpt>
      <trkpt lat="45.22564" lon="5.04831">
        <ele>486.7</ele>
        <time>2018-05-25T15:30:30 02:00</time>
      </trkpt>
      <trkpt lat="45.22586" lon="5.04844">
        <ele>485.9</ele>
        <time>2018-05-25T15:30:22 02:00</time>
      </trkpt>
      <trkpt lat="45.2261" lon="5.04857">
        <ele>485.8</ele>
        <time>2018-05-25T15:30:14 02:00</time>
      </trkpt>
      <trkpt lat="45.22632" lon="5.04866">
        <ele>485.2</ele>
        <time>2018-05-25T15:30:08 02:00</time>
      </trkpt>
      <trkpt lat="45.22654" lon="5.04873">
        <ele>484.5</ele>
        <time>2018-05-25T15:30:02 02:00</time>
      </trkpt>
      <trkpt lat="45.22678" lon="5.04881">
        <ele>483.9</ele>
        <time>2018-05-25T15:29:54 02:00</time>
      </trkpt>
      <trkpt lat="45.22701" lon="5.04897">
        <ele>483.6</ele>
        <time>2018-05-25T15:29:45 02:00</time>
      </trkpt>
      <trkpt lat="45.22723" lon="5.04912">
        <ele>483</ele>
        <time>2018-05-25T15:29:36 02:00</time>
      </trkpt>
      <trkpt lat="45.22744" lon="5.04927">
        <ele>481.8</ele>
        <time>2018-05-25T15:29:28 02:00</time>
      </trkpt>
      <trkpt lat="45.22767" lon="5.04939">
        <ele>481.8</ele>
        <time>2018-05-25T15:29:21 02:00</time>
      </trkpt>
      <trkpt lat="45.22789" lon="5.04946">
        <ele>481.9</ele>
        <time>2018-05-25T15:29:15 02:00</time>
      </trkpt>
      <trkpt lat="45.22814" lon="5.04957">
        <ele>481.9</ele>
        <time>2018-05-25T15:29:08 02:00</time>
      </trkpt>
      <trkpt lat="45.22837" lon="5.04971">
        <ele>482.2</ele>
        <time>2018-05-25T15:29:02 02:00</time>
      </trkpt>
      <trkpt lat="45.2286" lon="5.04985">
        <ele>482.5</ele>
        <time>2018-05-25T15:28:56 02:00</time>
      </trkpt>
      <trkpt lat="45.22882" lon="5.04999">
        <ele>482.8</ele>
        <time>2018-05-25T15:28:50 02:00</time>
      </trkpt>
      <trkpt lat="45.22902" lon="5.0502">
        <ele>483</ele>
        <time>2018-05-25T15:28:43 02:00</time>
      </trkpt>
      <trkpt lat="45.22917" lon="5.05044">
        <ele>482.4</ele>
        <time>2018-05-25T15:28:36 02:00</time>
      </trkpt>
      <trkpt lat="45.22938" lon="5.05064">
        <ele>482.4</ele>
        <time>2018-05-25T15:28:27 02:00</time>
      </trkpt>
      <trkpt lat="45.22951" lon="5.05094">
        <ele>481.6</ele>
        <time>2018-05-25T15:28:20 02:00</time>
      </trkpt>
      <trkpt lat="45.22967" lon="5.05119">
        <ele>481.3</ele>
        <time>2018-05-25T15:28:11 02:00</time>
      </trkpt>
      <trkpt lat="45.2298" lon="5.05146">
        <ele>481.1</ele>
        <time>2018-05-25T15:27:59 02:00</time>
      </trkpt>
      <trkpt lat="45.22991" lon="5.05175">
        <ele>480.5</ele>
        <time>2018-05-25T15:27:52 02:00</time>
      </trkpt>
      <trkpt lat="45.23004" lon="5.05203">
        <ele>480.1</ele>
        <time>2018-05-25T15:27:47 02:00</time>
      </trkpt>
      <trkpt lat="45.23012" lon="5.05237">
        <ele>479.7</ele>
        <time>2018-05-25T15:27:42 02:00</time>
      </trkpt>
      <trkpt lat="45.23018" lon="5.05268">
        <ele>480.2</ele>
        <time>2018-05-25T15:27:37 02:00</time>
      </trkpt>
      <trkpt lat="45.23027" lon="5.05301">
        <ele>480.9</ele>
        <time>2018-05-25T15:27:32 02:00</time>
      </trkpt>
      <trkpt lat="45.23036" lon="5.05333">
        <ele>481.6</ele>
        <time>2018-05-25T15:27:27 02:00</time>
      </trkpt>
      <trkpt lat="45.23042" lon="5.05365">
        <ele>482</ele>
        <time>2018-05-25T15:27:21 02:00</time>
      </trkpt>
      <trkpt lat="45.23045" lon="5.05399">
        <ele>482</ele>
        <time>2018-05-25T15:27:14 02:00</time>
      </trkpt>
      <trkpt lat="45.23053" lon="5.05432">
        <ele>481.3</ele>
        <time>2018-05-25T15:27:06 02:00</time>
      </trkpt>
      <trkpt lat="45.23066" lon="5.05461">
        <ele>480.8</ele>
        <time>2018-05-25T15:26:58 02:00</time>
      </trkpt>
      <trkpt lat="45.23083" lon="5.05487">
        <ele>479.9</ele>
        <time>2018-05-25T15:26:50 02:00</time>
      </trkpt>
      <trkpt lat="45.23099" lon="5.05511">
        <ele>479</ele>
        <time>2018-05-25T15:26:42 02:00</time>
      </trkpt>
      <trkpt lat="45.23112" lon="5.0554">
        <ele>477.1</ele>
        <time>2018-05-25T15:26:35 02:00</time>
      </trkpt>
      <trkpt lat="45.23133" lon="5.05554">
        <ele>476.1</ele>
        <time>2018-05-25T15:26:29 02:00</time>
      </trkpt>
      <trkpt lat="45.2316" lon="5.05562">
        <ele>475.4</ele>
        <time>2018-05-25T15:26:25 02:00</time>
      </trkpt>
      <trkpt lat="45.23183" lon="5.05568">
        <ele>474.7</ele>
        <time>2018-05-25T15:26:20 02:00</time>
      </trkpt>
      <trkpt lat="45.23206" lon="5.05568">
        <ele>474.6</ele>
        <time>2018-05-25T15:26:16 02:00</time>
      </trkpt>
      <trkpt lat="45.2323" lon="5.05561">
        <ele>475.2</ele>
        <time>2018-05-25T15:26:11 02:00</time>
      </trkpt>
      <trkpt lat="45.23255" lon="5.05551">
        <ele>475.4</ele>
        <time>2018-05-25T15:26:06 02:00</time>
      </trkpt>
      <trkpt lat="45.23278" lon="5.05541">
        <ele>476.1</ele>
        <time>2018-05-25T15:26:01 02:00</time>
      </trkpt>
      <trkpt lat="45.23304" lon="5.05543">
        <ele>476.4</ele>
        <time>2018-05-25T15:25:54 02:00</time>
      </trkpt>
      <trkpt lat="45.23324" lon="5.05562">
        <ele>475.6</ele>
        <time>2018-05-25T15:25:49 02:00</time>
      </trkpt>
      <trkpt lat="45.23348" lon="5.05574">
        <ele>475.5</ele>
        <time>2018-05-25T15:25:44 02:00</time>
      </trkpt>
      <trkpt lat="45.23369" lon="5.05592">
        <ele>476.2</ele>
        <time>2018-05-25T15:25:39 02:00</time>
      </trkpt>
      <trkpt lat="45.23385" lon="5.0562">
        <ele>476.3</ele>
        <time>2018-05-25T15:25:34 02:00</time>
      </trkpt>
      <trkpt lat="45.23399" lon="5.05652">
        <ele>476.2</ele>
        <time>2018-05-25T15:25:29 02:00</time>
      </trkpt>
      <trkpt lat="45.2341" lon="5.05684">
        <ele>476.4</ele>
        <time>2018-05-25T15:25:24 02:00</time>
      </trkpt>
      <trkpt lat="45.23422" lon="5.05716">
        <ele>476.5</ele>
        <time>2018-05-25T15:25:19 02:00</time>
      </trkpt>
      <trkpt lat="45.23431" lon="5.0575">
        <ele>476.6</ele>
        <time>2018-05-25T15:25:14 02:00</time>
      </trkpt>
      <trkpt lat="45.23442" lon="5.05784">
        <ele>476.7</ele>
        <time>2018-05-25T15:25:09 02:00</time>
      </trkpt>
      <trkpt lat="45.23451" lon="5.05814">
        <ele>477.7</ele>
        <time>2018-05-25T15:25:05 02:00</time>
      </trkpt>
      <trkpt lat="45.23461" lon="5.05845">
        <ele>478.7</ele>
        <time>2018-05-25T15:25:01 02:00</time>
      </trkpt>
      <trkpt lat="45.23468" lon="5.05875">
        <ele>479.5</ele>
        <time>2018-05-25T15:24:57 02:00</time>
      </trkpt>
      <trkpt lat="45.23475" lon="5.05912">
        <ele>480.2</ele>
        <time>2018-05-25T15:24:52 02:00</time>
      </trkpt>
      <trkpt lat="45.23483" lon="5.05944">
        <ele>480.7</ele>
        <time>2018-05-25T15:24:47 02:00</time>
      </trkpt>
      <trkpt lat="45.23489" lon="5.05975">
        <ele>480.8</ele>
        <time>2018-05-25T15:24:42 02:00</time>
      </trkpt>
      <trkpt lat="45.23495" lon="5.06009">
        <ele>481.2</ele>
        <time>2018-05-25T15:24:36 02:00</time>
      </trkpt>
      <trkpt lat="45.23502" lon="5.06045">
        <ele>480.6</ele>
        <time>2018-05-25T15:24:29 02:00</time>
      </trkpt>
      <trkpt lat="45.23515" lon="5.06077">
        <ele>481.2</ele>
        <time>2018-05-25T15:24:15 02:00</time>
      </trkpt>
      <trkpt lat="45.23516" lon="5.0611">
        <ele>481.1</ele>
        <time>2018-05-25T15:24:02 02:00</time>
      </trkpt>
      <trkpt lat="45.23507" lon="5.06141">
        <ele>480.6</ele>
        <time>2018-05-25T15:23:51 02:00</time>
      </trkpt>
      <trkpt lat="45.23496" lon="5.06169">
        <ele>480.4</ele>
        <time>2018-05-25T15:23:40 02:00</time>
      </trkpt>
      <trkpt lat="45.23483" lon="5.06195">
        <ele>479.1</ele>
        <time>2018-05-25T15:23:26 02:00</time>
      </trkpt>
      <trkpt lat="45.23462" lon="5.06212">
        <ele>477.2</ele>
        <time>2018-05-25T15:23:06 02:00</time>
      </trkpt>
      <trkpt lat="45.23445" lon="5.06234">
        <ele>475.1</ele>
        <time>2018-05-25T15:22:43 02:00</time>
      </trkpt>
      <trkpt lat="45.2343" lon="5.06259">
        <ele>473</ele>
        <time>2018-05-25T15:22:23 02:00</time>
      </trkpt>
      <trkpt lat="45.23423" lon="5.06291">
        <ele>472.2</ele>
        <time>2018-05-25T15:21:10 02:00</time>
      </trkpt>
      <trkpt lat="45.23418" lon="5.06323">
        <ele>470.7</ele>
        <time>2018-05-25T15:20:48 02:00</time>
      </trkpt>
      <trkpt lat="45.23411" lon="5.06353">
        <ele>468.2</ele>
        <time>2018-05-25T15:20:29 02:00</time>
      </trkpt>
      <trkpt lat="45.23404" lon="5.06384">
        <ele>466</ele>
        <time>2018-05-25T15:20:13 02:00</time>
      </trkpt>
      <trkpt lat="45.23398" lon="5.06415">
        <ele>463.1</ele>
        <time>2018-05-25T15:19:56 02:00</time>
      </trkpt>
      <trkpt lat="45.23382" lon="5.0644">
        <ele>459.1</ele>
        <time>2018-05-25T15:19:42 02:00</time>
      </trkpt>
      <trkpt lat="45.23359" lon="5.06444">
        <ele>455.8</ele>
        <time>2018-05-25T15:19:22 02:00</time>
      </trkpt>
      <trkpt lat="45.23337" lon="5.06436">
        <ele>454.2</ele>
        <time>2018-05-25T15:19:16 02:00</time>
      </trkpt>
      <trkpt lat="45.23315" lon="5.0642">
        <ele>454.2</ele>
        <time>2018-05-25T15:19:13 02:00</time>
      </trkpt>
      <trkpt lat="45.23293" lon="5.06401">
        <ele>454.7</ele>
        <time>2018-05-25T15:19:10 02:00</time>
      </trkpt>
      <trkpt lat="45.23271" lon="5.06387">
        <ele>456.8</ele>
        <time>2018-05-25T15:19:06 02:00</time>
      </trkpt>
      <trkpt lat="45.23245" lon="5.0638">
        <ele>459.7</ele>
        <time>2018-05-25T15:19:01 02:00</time>
      </trkpt>
      <trkpt lat="45.23222" lon="5.0638">
        <ele>461.4</ele>
        <time>2018-05-25T15:18:57 02:00</time>
      </trkpt>
      <trkpt lat="45.23193" lon="5.06375">
        <ele>464.1</ele>
        <time>2018-05-25T15:18:53 02:00</time>
      </trkpt>
      <trkpt lat="45.23165" lon="5.06379">
        <ele>466.6</ele>
        <time>2018-05-25T15:18:48 02:00</time>
      </trkpt>
      <trkpt lat="45.2314" lon="5.0638">
        <ele>467.6</ele>
        <time>2018-05-25T15:18:44 02:00</time>
      </trkpt>
      <trkpt lat="45.23117" lon="5.06392">
        <ele>469.3</ele>
        <time>2018-05-25T15:18:40 02:00</time>
      </trkpt>
      <trkpt lat="45.23094" lon="5.06404">
        <ele>470.6</ele>
        <time>2018-05-25T15:18:35 02:00</time>
      </trkpt>
      <trkpt lat="45.23071" lon="5.06411">
        <ele>471.3</ele>
        <time>2018-05-25T15:18:30 02:00</time>
      </trkpt>
      <trkpt lat="45.23047" lon="5.06418">
        <ele>471.8</ele>
        <time>2018-05-25T15:18:25 02:00</time>
      </trkpt>
      <trkpt lat="45.2302" lon="5.06425">
        <ele>471.9</ele>
        <time>2018-05-25T15:18:20 02:00</time>
      </trkpt>
      <trkpt lat="45.22997" lon="5.06429">
        <ele>472.3</ele>
        <time>2018-05-25T15:18:16 02:00</time>
      </trkpt>
      <trkpt lat="45.22972" lon="5.06445">
        <ele>474</ele>
        <time>2018-05-25T15:18:11 02:00</time>
      </trkpt>
      <trkpt lat="45.22956" lon="5.06474">
        <ele>476.1</ele>
        <time>2018-05-25T15:18:05 02:00</time>
      </trkpt>
      <trkpt lat="45.22936" lon="5.06488">
        <ele>476.7</ele>
        <time>2018-05-25T15:17:54 02:00</time>
      </trkpt>
      <trkpt lat="45.2294" lon="5.06521">
        <ele>479.4</ele>
        <time>2018-05-25T15:17:49 02:00</time>
      </trkpt>
      <trkpt lat="45.22939" lon="5.06562">
        <ele>482.6</ele>
        <time>2018-05-25T15:17:45 02:00</time>
      </trkpt>
      <trkpt lat="45.2294" lon="5.066">
        <ele>486.1</ele>
        <time>2018-05-25T15:17:41 02:00</time>
      </trkpt>
      <trkpt lat="45.22948" lon="5.06631">
        <ele>488.4</ele>
        <time>2018-05-25T15:17:37 02:00</time>
      </trkpt>
      <trkpt lat="45.22966" lon="5.06651">
        <ele>489.9</ele>
        <time>2018-05-25T15:17:32 02:00</time>
      </trkpt>
      <trkpt lat="45.22989" lon="5.06656">
        <ele>490.2</ele>
        <time>2018-05-25T15:17:26 02:00</time>
      </trkpt>
      <trkpt lat="45.23012" lon="5.06657">
        <ele>490.1</ele>
        <time>2018-05-25T15:17:19 02:00</time>
      </trkpt>
      <trkpt lat="45.23037" lon="5.06658">
        <ele>489.9</ele>
        <time>2018-05-25T15:17:11 02:00</time>
      </trkpt>
      <trkpt lat="45.23062" lon="5.0666">
        <ele>489.8</ele>
        <time>2018-05-25T15:17:04 02:00</time>
      </trkpt>
      <trkpt lat="45.23086" lon="5.06665">
        <ele>489.9</ele>
        <time>2018-05-25T15:16:57 02:00</time>
      </trkpt>
      <trkpt lat="45.23111" lon="5.06668">
        <ele>490</ele>
        <time>2018-05-25T15:16:50 02:00</time>
      </trkpt>
      <trkpt lat="45.23136" lon="5.06671">
        <ele>489.1</ele>
        <time>2018-05-25T15:16:43 02:00</time>
      </trkpt>
      <trkpt lat="45.23158" lon="5.0668">
        <ele>488.3</ele>
        <time>2018-05-25T15:16:37 02:00</time>
      </trkpt>
      <trkpt lat="45.2318" lon="5.0669">
        <ele>488.3</ele>
        <time>2018-05-25T15:16:31 02:00</time>
      </trkpt>
      <trkpt lat="45.23205" lon="5.06699">
        <ele>488.8</ele>
        <time>2018-05-25T15:16:25 02:00</time>
      </trkpt>
      <trkpt lat="45.2323" lon="5.06705">
        <ele>488.4</ele>
        <time>2018-05-25T15:16:19 02:00</time>
      </trkpt>
      <trkpt lat="45.23256" lon="5.06713">
        <ele>488.7</ele>
        <time>2018-05-25T15:16:13 02:00</time>
      </trkpt>
      <trkpt lat="45.2328" lon="5.06722">
        <ele>489</ele>
        <time>2018-05-25T15:16:06 02:00</time>
      </trkpt>
      <trkpt lat="45.23305" lon="5.06732">
        <ele>489.4</ele>
        <time>2018-05-25T15:16:01 02:00</time>
      </trkpt>
      <trkpt lat="45.23327" lon="5.06742">
        <ele>489.5</ele>
        <time>2018-05-25T15:15:56 02:00</time>
      </trkpt>
      <trkpt lat="45.23349" lon="5.06749">
        <ele>489.9</ele>
        <time>2018-05-25T15:15:50 02:00</time>
      </trkpt>
      <trkpt lat="45.23372" lon="5.06761">
        <ele>490.1</ele>
        <time>2018-05-25T15:15:44 02:00</time>
      </trkpt>
      <trkpt lat="45.23396" lon="5.0678">
        <ele>490.9</ele>
        <time>2018-05-25T15:15:37 02:00</time>
      </trkpt>
      <trkpt lat="45.23417" lon="5.06795">
        <ele>491.2</ele>
        <time>2018-05-25T15:15:31 02:00</time>
      </trkpt>
      <trkpt lat="45.23433" lon="5.06821">
        <ele>492.5</ele>
        <time>2018-05-25T15:15:26 02:00</time>
      </trkpt>
      <trkpt lat="45.23455" lon="5.06841">
        <ele>493</ele>
        <time>2018-05-25T15:15:19 02:00</time>
      </trkpt>
      <trkpt lat="45.23478" lon="5.0684">
        <ele>492.2</ele>
        <time>2018-05-25T15:15:09 02:00</time>
      </trkpt>
      <trkpt lat="45.23502" lon="5.06843">
        <ele>491.2</ele>
        <time>2018-05-25T15:15:00 02:00</time>
      </trkpt>
      <trkpt lat="45.23521" lon="5.06863">
        <ele>490.5</ele>
        <time>2018-05-25T15:14:52 02:00</time>
      </trkpt>
      <trkpt lat="45.2352" lon="5.06898">
        <ele>491.5</ele>
        <time>2018-05-25T15:14:43 02:00</time>
      </trkpt>
      <trkpt lat="45.23507" lon="5.06927">
        <ele>491.7</ele>
        <time>2018-05-25T15:14:34 02:00</time>
      </trkpt>
      <trkpt lat="45.2349" lon="5.06949">
        <ele>492.4</ele>
        <time>2018-05-25T15:14:23 02:00</time>
      </trkpt>
      <trkpt lat="45.23501" lon="5.06979">
        <ele>492</ele>
        <time>2018-05-25T15:14:13 02:00</time>
      </trkpt>
      <trkpt lat="45.23515" lon="5.07006">
        <ele>491.6</ele>
        <time>2018-05-25T15:14:05 02:00</time>
      </trkpt>
      <trkpt lat="45.23527" lon="5.07034">
        <ele>492</ele>
        <time>2018-05-25T15:13:58 02:00</time>
      </trkpt>
      <trkpt lat="45.2355" lon="5.07048">
        <ele>492</ele>
        <time>2018-05-25T15:13:49 02:00</time>
      </trkpt>
      <trkpt lat="45.23569" lon="5.07028">
        <ele>492.5</ele>
        <time>2018-05-25T15:13:39 02:00</time>
      </trkpt>
      <trkpt lat="45.23593" lon="5.07032">
        <ele>493.5</ele>
        <time>2018-05-25T15:13:05 02:00</time>
      </trkpt>
      <trkpt lat="45.23615" lon="5.07027">
        <ele>494.1</ele>
        <time>2018-05-25T15:12:57 02:00</time>
      </trkpt>
      <trkpt lat="45.23639" lon="5.07024">
        <ele>494.9</ele>
        <time>2018-05-25T15:12:46 02:00</time>
      </trkpt>
      <trkpt lat="45.23662" lon="5.07015">
        <ele>496.2</ele>
        <time>2018-05-25T15:12:33 02:00</time>
      </trkpt>
      <trkpt lat="45.23686" lon="5.07005">
        <ele>496.7</ele>
        <time>2018-05-25T15:12:21 02:00</time>
      </trkpt>
      <trkpt lat="45.23703" lon="5.06984">
        <ele>497</ele>
        <time>2018-05-25T15:11:49 02:00</time>
      </trkpt>
      <trkpt lat="45.23724" lon="5.0697">
        <ele>496.9</ele>
        <time>2018-05-25T15:11:39 02:00</time>
      </trkpt>
      <trkpt lat="45.23745" lon="5.06959">
        <ele>496.5</ele>
        <time>2018-05-25T15:11:29 02:00</time>
      </trkpt>
      <trkpt lat="45.23767" lon="5.0695">
        <ele>496.1</ele>
        <time>2018-05-25T15:11:19 02:00</time>
      </trkpt>
      <trkpt lat="45.2379" lon="5.06938">
        <ele>495.4</ele>
        <time>2018-05-25T15:11:10 02:00</time>
      </trkpt>
      <trkpt lat="45.23813" lon="5.06928">
        <ele>494.7</ele>
        <time>2018-05-25T15:10:59 02:00</time>
      </trkpt>
      <trkpt lat="45.23836" lon="5.06925">
        <ele>493.8</ele>
        <time>2018-05-25T15:10:49 02:00</time>
      </trkpt>
      <trkpt lat="45.23859" lon="5.06918">
        <ele>492.1</ele>
        <time>2018-05-25T15:10:38 02:00</time>
      </trkpt>
      <trkpt lat="45.23871" lon="5.06946">
        <ele>490.9</ele>
        <time>2018-05-25T15:10:07 02:00</time>
      </trkpt>
      <trkpt lat="45.23867" lon="5.06983">
        <ele>491.2</ele>
        <time>2018-05-25T15:10:02 02:00</time>
      </trkpt>
      <trkpt lat="45.23863" lon="5.07019">
        <ele>492.4</ele>
        <time>2018-05-25T15:09:57 02:00</time>
      </trkpt>
      <trkpt lat="45.2386" lon="5.07057">
        <ele>495</ele>
        <time>2018-05-25T15:09:52 02:00</time>
      </trkpt>
      <trkpt lat="45.23856" lon="5.07092">
        <ele>495.7</ele>
        <time>2018-05-25T15:09:47 02:00</time>
      </trkpt>
      <trkpt lat="45.2385" lon="5.07129">
        <ele>497.6</ele>
        <time>2018-05-25T15:09:42 02:00</time>
      </trkpt>
      <trkpt lat="45.23846" lon="5.07163">
        <ele>498.5</ele>
        <time>2018-05-25T15:09:37 02:00</time>
      </trkpt>
      <trkpt lat="45.23841" lon="5.07194">
        <ele>498.5</ele>
        <time>2018-05-25T15:09:32 02:00</time>
      </trkpt>
      <trkpt lat="45.23837" lon="5.07229">
        <ele>496.8</ele>
        <time>2018-05-25T15:09:26 02:00</time>
      </trkpt>
      <trkpt lat="45.23831" lon="5.07262">
        <ele>496.6</ele>
        <time>2018-05-25T15:09:20 02:00</time>
      </trkpt>
      <trkpt lat="45.23825" lon="5.07297">
        <ele>495.8</ele>
        <time>2018-05-25T15:09:14 02:00</time>
      </trkpt>
      <trkpt lat="45.23818" lon="5.07329">
        <ele>495.2</ele>
        <time>2018-05-25T15:09:09 02:00</time>
      </trkpt>
      <trkpt lat="45.23813" lon="5.07365">
        <ele>494.2</ele>
        <time>2018-05-25T15:09:04 02:00</time>
      </trkpt>
      <trkpt lat="45.23803" lon="5.074">
        <ele>492.8</ele>
        <time>2018-05-25T15:08:59 02:00</time>
      </trkpt>
      <trkpt lat="45.23794" lon="5.07431">
        <ele>492.6</ele>
        <time>2018-05-25T15:08:55 02:00</time>
      </trkpt>
      <trkpt lat="45.23788" lon="5.07463">
        <ele>492.4</ele>
        <time>2018-05-25T15:08:51 02:00</time>
      </trkpt>
      <trkpt lat="45.23785" lon="5.07497">
        <ele>492.5</ele>
        <time>2018-05-25T15:08:47 02:00</time>
      </trkpt>
      <trkpt lat="45.2378" lon="5.07532">
        <ele>490.8</ele>
        <time>2018-05-25T15:08:43 02:00</time>
      </trkpt>
      <trkpt lat="45.23775" lon="5.07567">
        <ele>490.1</ele>
        <time>2018-05-25T15:08:39 02:00</time>
      </trkpt>
      <trkpt lat="45.23771" lon="5.07601">
        <ele>489.5</ele>
        <time>2018-05-25T15:08:35 02:00</time>
      </trkpt>
      <trkpt lat="45.23772" lon="5.07639">
        <ele>488.2</ele>
        <time>2018-05-25T15:08:30 02:00</time>
      </trkpt>
      <trkpt lat="45.23773" lon="5.07672">
        <ele>487.3</ele>
        <time>2018-05-25T15:08:25 02:00</time>
      </trkpt>
      <trkpt lat="45.23775" lon="5.07706">
        <ele>486.7</ele>
        <time>2018-05-25T15:08:16 02:00</time>
      </trkpt>
      <trkpt lat="45.23788" lon="5.07738">
        <ele>486</ele>
        <time>2018-05-25T15:08:10 02:00</time>
      </trkpt>
      <trkpt lat="45.23805" lon="5.07768">
        <ele>486</ele>
        <time>2018-05-25T15:08:05 02:00</time>
      </trkpt>
      <trkpt lat="45.23815" lon="5.07802">
        <ele>486.9</ele>
        <time>2018-05-25T15:07:59 02:00</time>
      </trkpt>
      <trkpt lat="45.23825" lon="5.07835">
        <ele>488.1</ele>
        <time>2018-05-25T15:07:53 02:00</time>
      </trkpt>
      <trkpt lat="45.23837" lon="5.07866">
        <ele>490.5</ele>
        <time>2018-05-25T15:07:47 02:00</time>
      </trkpt>
      <trkpt lat="45.23846" lon="5.07898">
        <ele>493.1</ele>
        <time>2018-05-25T15:07:40 02:00</time>
      </trkpt>
      <trkpt lat="45.23854" lon="5.07931">
        <ele>495.8</ele>
        <time>2018-05-25T15:07:33 02:00</time>
      </trkpt>
      <trkpt lat="45.23865" lon="5.0796">
        <ele>497.4</ele>
        <time>2018-05-25T15:07:26 02:00</time>
      </trkpt>
      <trkpt lat="45.23879" lon="5.07991">
        <ele>498</ele>
        <time>2018-05-25T15:07:18 02:00</time>
      </trkpt>
      <trkpt lat="45.23893" lon="5.08016">
        <ele>497.7</ele>
        <time>2018-05-25T15:07:11 02:00</time>
      </trkpt>
      <trkpt lat="45.23907" lon="5.08045">
        <ele>496.7</ele>
        <time>2018-05-25T15:07:04 02:00</time>
      </trkpt>
      <trkpt lat="45.23923" lon="5.08072">
        <ele>496.4</ele>
        <time>2018-05-25T15:06:58 02:00</time>
      </trkpt>
      <trkpt lat="45.2394" lon="5.08101">
        <ele>496.8</ele>
        <time>2018-05-25T15:06:51 02:00</time>
      </trkpt>
      <trkpt lat="45.23956" lon="5.08125">
        <ele>498</ele>
        <time>2018-05-25T15:06:44 02:00</time>
      </trkpt>
      <trkpt lat="45.23971" lon="5.08149">
        <ele>499.4</ele>
        <time>2018-05-25T15:06:37 02:00</time>
      </trkpt>
      <trkpt lat="45.23994" lon="5.08158">
        <ele>499.4</ele>
        <time>2018-05-25T15:06:33 02:00</time>
      </trkpt>
      <trkpt lat="45.24018" lon="5.08175">
        <ele>499.8</ele>
        <time>2018-05-25T15:06:26 02:00</time>
      </trkpt>
      <trkpt lat="45.24038" lon="5.08195">
        <ele>500.8</ele>
        <time>2018-05-25T15:06:21 02:00</time>
      </trkpt>
      <trkpt lat="45.2406" lon="5.08213">
        <ele>502.2</ele>
        <time>2018-05-25T15:06:16 02:00</time>
      </trkpt>
      <trkpt lat="45.24085" lon="5.08226">
        <ele>503.1</ele>
        <time>2018-05-25T15:06:11 02:00</time>
      </trkpt>
      <trkpt lat="45.24106" lon="5.08237">
        <ele>503.8</ele>
        <time>2018-05-25T15:06:04 02:00</time>
      </trkpt>
      <trkpt lat="45.24129" lon="5.08246">
        <ele>504.7</ele>
        <time>2018-05-25T15:05:57 02:00</time>
      </trkpt>
      <trkpt lat="45.24158" lon="5.08257">
        <ele>505.7</ele>
        <time>2018-05-25T15:05:50 02:00</time>
      </trkpt>
      <trkpt lat="45.2418" lon="5.08268">
        <ele>506</ele>
        <time>2018-05-25T15:05:42 02:00</time>
      </trkpt>
      <trkpt lat="45.24203" lon="5.0828">
        <ele>506</ele>
        <time>2018-05-25T15:05:35 02:00</time>
      </trkpt>
      <trkpt lat="45.24232" lon="5.08293">
        <ele>506</ele>
        <time>2018-05-25T15:05:29 02:00</time>
      </trkpt>
      <trkpt lat="45.24256" lon="5.08301">
        <ele>506</ele>
        <time>2018-05-25T15:05:19 02:00</time>
      </trkpt>
      <trkpt lat="45.24279" lon="5.08308">
        <ele>506</ele>
        <time>2018-05-25T15:05:08 02:00</time>
      </trkpt>
      <trkpt lat="45.24304" lon="5.08305">
        <ele>506</ele>
        <time>2018-05-25T15:04:57 02:00</time>
      </trkpt>
      <trkpt lat="45.24329" lon="5.08296">
        <ele>506</ele>
        <time>2018-05-25T15:04:43 02:00</time>
      </trkpt>
      <trkpt lat="45.24352" lon="5.08285">
        <ele>505.8</ele>
        <time>2018-05-25T15:04:30 02:00</time>
      </trkpt>
      <trkpt lat="45.24376" lon="5.08278">
        <ele>505.5</ele>
        <time>2018-05-25T15:04:19 02:00</time>
      </trkpt>
      <trkpt lat="45.24399" lon="5.08271">
        <ele>504.9</ele>
        <time>2018-05-25T15:04:09 02:00</time>
      </trkpt>
      <trkpt lat="45.24422" lon="5.08265">
        <ele>504.2</ele>
        <time>2018-05-25T15:04:00 02:00</time>
      </trkpt>
      <trkpt lat="45.24443" lon="5.08251">
        <ele>504</ele>
        <time>2018-05-25T15:03:49 02:00</time>
      </trkpt>
      <trkpt lat="45.24465" lon="5.08243">
        <ele>503</ele>
        <time>2018-05-25T15:03:36 02:00</time>
      </trkpt>
      <trkpt lat="45.24488" lon="5.08245">
        <ele>501.4</ele>
        <time>2018-05-25T15:03:22 02:00</time>
      </trkpt>
      <trkpt lat="45.24512" lon="5.08248">
        <ele>499.3</ele>
        <time>2018-05-25T15:03:05 02:00</time>
      </trkpt>
      <trkpt lat="45.24536" lon="5.08251">
        <ele>497.3</ele>
        <time>2018-05-25T15:02:50 02:00</time>
      </trkpt>
      <trkpt lat="45.2456" lon="5.08259">
        <ele>495</ele>
        <time>2018-05-25T15:02:37 02:00</time>
      </trkpt>
      <trkpt lat="45.24583" lon="5.08266">
        <ele>492.9</ele>
        <time>2018-05-25T15:02:22 02:00</time>
      </trkpt>
      <trkpt lat="45.24606" lon="5.0827">
        <ele>490.9</ele>
        <time>2018-05-25T15:02:06 02:00</time>
      </trkpt>
      <trkpt lat="45.24629" lon="5.08273">
        <ele>489.7</ele>
        <time>2018-05-25T15:01:51 02:00</time>
      </trkpt>
      <trkpt lat="45.24653" lon="5.08276">
        <ele>488.6</ele>
        <time>2018-05-25T15:01:29 02:00</time>
      </trkpt>
      <trkpt lat="45.24675" lon="5.08276">
        <ele>487.9</ele>
        <time>2018-05-25T15:01:11 02:00</time>
      </trkpt>
      <trkpt lat="45.24699" lon="5.08277">
        <ele>486.9</ele>
        <time>2018-05-25T15:00:52 02:00</time>
      </trkpt>
      <trkpt lat="45.24722" lon="5.08282">
        <ele>485.7</ele>
        <time>2018-05-25T15:00:36 02:00</time>
      </trkpt>
      <trkpt lat="45.24745" lon="5.08283">
        <ele>484</ele>
        <time>2018-05-25T15:00:20 02:00</time>
      </trkpt>
      <trkpt lat="45.24768" lon="5.0828">
        <ele>482.6</ele>
        <time>2018-05-25T15:00:06 02:00</time>
      </trkpt>
      <trkpt lat="45.24791" lon="5.08279">
        <ele>480.5</ele>
        <time>2018-05-25T14:59:48 02:00</time>
      </trkpt>
      <trkpt lat="45.24814" lon="5.08278">
        <ele>478.1</ele>
        <time>2018-05-25T14:59:36 02:00</time>
      </trkpt>
      <trkpt lat="45.24837" lon="5.08278">
        <ele>475.4</ele>
        <time>2018-05-25T14:59:20 02:00</time>
      </trkpt>
      <trkpt lat="45.2486" lon="5.0827">
        <ele>472.1</ele>
        <time>2018-05-25T14:59:00 02:00</time>
      </trkpt>
      <trkpt lat="45.24882" lon="5.08263">
        <ele>469.4</ele>
        <time>2018-05-25T14:58:36 02:00</time>
      </trkpt>
      <trkpt lat="45.24905" lon="5.08256">
        <ele>467.5</ele>
        <time>2018-05-25T14:58:17 02:00</time>
      </trkpt>
      <trkpt lat="45.24926" lon="5.08243">
        <ele>466.8</ele>
        <time>2018-05-25T14:57:54 02:00</time>
      </trkpt>
      <trkpt lat="45.2495" lon="5.08242">
        <ele>464.5</ele>
        <time>2018-05-25T14:57:40 02:00</time>
      </trkpt>
      <trkpt lat="45.24971" lon="5.08227">
        <ele>464.5</ele>
        <time>2018-05-25T14:57:35 02:00</time>
      </trkpt>
      <trkpt lat="45.24987" lon="5.08198">
        <ele>467.5</ele>
        <time>2018-05-25T14:57:29 02:00</time>
      </trkpt>
      <trkpt lat="45.25001" lon="5.08172">
        <ele>467.7</ele>
        <time>2018-05-25T14:57:19 02:00</time>
      </trkpt>
      <trkpt lat="45.25019" lon="5.08149">
        <ele>466.4</ele>
        <time>2018-05-25T14:57:08 02:00</time>
      </trkpt>
      <trkpt lat="45.25037" lon="5.08125">
        <ele>464.8</ele>
        <time>2018-05-25T14:56:53 02:00</time>
      </trkpt>
      <trkpt lat="45.25056" lon="5.08103">
        <ele>463.7</ele>
        <time>2018-05-25T14:56:42 02:00</time>
      </trkpt>
      <trkpt lat="45.25073" lon="5.0808">
        <ele>462.8</ele>
        <time>2018-05-25T14:56:29 02:00</time>
      </trkpt>
      <trkpt lat="45.25088" lon="5.08054">
        <ele>461</ele>
        <time>2018-05-25T14:56:17 02:00</time>
      </trkpt>
      <trkpt lat="45.25103" lon="5.08029">
        <ele>459.8</ele>
        <time>2018-05-25T14:56:05 02:00</time>
      </trkpt>
      <trkpt lat="45.2512" lon="5.08006">
        <ele>458.8</ele>
        <time>2018-05-25T14:55:51 02:00</time>
      </trkpt>
      <trkpt lat="45.25136" lon="5.07984">
        <ele>457.7</ele>
        <time>2018-05-25T14:55:39 02:00</time>
      </trkpt>
      <trkpt lat="45.25152" lon="5.07961">
        <ele>456.4</ele>
        <time>2018-05-25T14:55:26 02:00</time>
      </trkpt>
      <trkpt lat="45.25167" lon="5.07936">
        <ele>454.7</ele>
        <time>2018-05-25T14:55:09 02:00</time>
      </trkpt>
      <trkpt lat="45.25182" lon="5.0791">
        <ele>453.2</ele>
        <time>2018-05-25T14:54:52 02:00</time>
      </trkpt>
      <trkpt lat="45.25201" lon="5.07891">
        <ele>451.2</ele>
        <time>2018-05-25T14:54:37 02:00</time>
      </trkpt>
      <trkpt lat="45.25219" lon="5.07871">
        <ele>449.7</ele>
        <time>2018-05-25T14:54:23 02:00</time>
      </trkpt>
      <trkpt lat="45.25237" lon="5.07849">
        <ele>447.9</ele>
        <time>2018-05-25T14:54:10 02:00</time>
      </trkpt>
      <trkpt lat="45.25256" lon="5.07831">
        <ele>447.1</ele>
        <time>2018-05-25T14:54:00 02:00</time>
      </trkpt>
      <trkpt lat="45.25275" lon="5.0781">
        <ele>447</ele>
        <time>2018-05-25T14:53:49 02:00</time>
      </trkpt>
      <trkpt lat="45.25289" lon="5.07783">
        <ele>446.2</ele>
        <time>2018-05-25T14:53:39 02:00</time>
      </trkpt>
      <trkpt lat="45.25305" lon="5.07759">
        <ele>445.6</ele>
        <time>2018-05-25T14:53:30 02:00</time>
      </trkpt>
      <trkpt lat="45.25318" lon="5.07731">
        <ele>445.2</ele>
        <time>2018-05-25T14:53:18 02:00</time>
      </trkpt>
      <trkpt lat="45.25333" lon="5.07705">
        <ele>444.7</ele>
        <time>2018-05-25T14:53:05 02:00</time>
      </trkpt>
      <trkpt lat="45.25345" lon="5.07674">
        <ele>443.2</ele>
        <time>2018-05-25T14:52:53 02:00</time>
      </trkpt>
      <trkpt lat="45.25356" lon="5.07644">
        <ele>442.1</ele>
        <time>2018-05-25T14:52:41 02:00</time>
      </trkpt>
      <trkpt lat="45.25372" lon="5.07619">
        <ele>440.6</ele>
        <time>2018-05-25T14:52:25 02:00</time>
      </trkpt>
      <trkpt lat="45.25387" lon="5.07592">
        <ele>438.6</ele>
        <time>2018-05-25T14:52:08 02:00</time>
      </trkpt>
      <trkpt lat="45.25399" lon="5.07564">
        <ele>436.6</ele>
        <time>2018-05-25T14:51:50 02:00</time>
      </trkpt>
      <trkpt lat="45.25412" lon="5.07537">
        <ele>434</ele>
        <time>2018-05-25T14:51:30 02:00</time>
      </trkpt>
      <trkpt lat="45.25425" lon="5.0751">
        <ele>430.8</ele>
        <time>2018-05-25T14:51:04 02:00</time>
      </trkpt>
      <trkpt lat="45.25441" lon="5.07487">
        <ele>427.7</ele>
        <time>2018-05-25T14:50:43 02:00</time>
      </trkpt>
      <trkpt lat="45.25459" lon="5.07465">
        <ele>424.9</ele>
        <time>2018-05-25T14:50:21 02:00</time>
      </trkpt>
      <trkpt lat="45.25471" lon="5.07438">
        <ele>422.3</ele>
        <time>2018-05-25T14:50:00 02:00</time>
      </trkpt>
      <trkpt lat="45.2549" lon="5.07419">
        <ele>419.7</ele>
        <time>2018-05-25T14:49:43 02:00</time>
      </trkpt>
      <trkpt lat="45.25504" lon="5.07393">
        <ele>416.3</ele>
        <time>2018-05-25T14:49:21 02:00</time>
      </trkpt>
      <trkpt lat="45.25514" lon="5.07363">
        <ele>412.3</ele>
        <time>2018-05-25T14:49:03 02:00</time>
      </trkpt>
      <trkpt lat="45.25528" lon="5.07338">
        <ele>408.7</ele>
        <time>2018-05-25T14:48:48 02:00</time>
      </trkpt>
      <trkpt lat="45.25544" lon="5.07315">
        <ele>405.2</ele>
        <time>2018-05-25T14:48:37 02:00</time>
      </trkpt>
      <trkpt lat="45.25544" lon="5.07282">
        <ele>403.6</ele>
        <time>2018-05-25T14:48:27 02:00</time>
      </trkpt>
      <trkpt lat="45.25519" lon="5.07279">
        <ele>404</ele>
        <time>2018-05-25T14:48:21 02:00</time>
      </trkpt>
      <trkpt lat="45.25493" lon="5.07276">
        <ele>403.8</ele>
        <time>2018-05-25T14:48:16 02:00</time>
      </trkpt>
      <trkpt lat="45.25471" lon="5.07271">
        <ele>403.3</ele>
        <time>2018-05-25T14:48:12 02:00</time>
      </trkpt>
      <trkpt lat="45.25448" lon="5.07266">
        <ele>403.1</ele>
        <time>2018-05-25T14:48:08 02:00</time>
      </trkpt>
      <trkpt lat="45.25425" lon="5.07262">
        <ele>403.1</ele>
        <time>2018-05-25T14:48:04 02:00</time>
      </trkpt>
      <trkpt lat="45.25398" lon="5.07254">
        <ele>403.1</ele>
        <time>2018-05-25T14:47:59 02:00</time>
      </trkpt>
      <trkpt lat="45.25375" lon="5.07245">
        <ele>403</ele>
        <time>2018-05-25T14:47:54 02:00</time>
      </trkpt>
      <trkpt lat="45.25352" lon="5.07238">
        <ele>402.8</ele>
        <time>2018-05-25T14:47:49 02:00</time>
      </trkpt>
      <trkpt lat="45.25328" lon="5.07226">
        <ele>402.3</ele>
        <time>2018-05-25T14:47:44 02:00</time>
      </trkpt>
      <trkpt lat="45.25301" lon="5.07224">
        <ele>402.1</ele>
        <time>2018-05-25T14:47:39 02:00</time>
      </trkpt>
      <trkpt lat="45.25276" lon="5.07228">
        <ele>402.4</ele>
        <time>2018-05-25T14:47:35 02:00</time>
      </trkpt>
      <trkpt lat="45.25253" lon="5.07234">
        <ele>402.5</ele>
        <time>2018-05-25T14:47:32 02:00</time>
      </trkpt>
      <trkpt lat="45.25226" lon="5.07222">
        <ele>403.7</ele>
        <time>2018-05-25T14:47:28 02:00</time>
      </trkpt>
      <trkpt lat="45.25216" lon="5.07188">
        <ele>405.1</ele>
        <time>2018-05-25T14:47:24 02:00</time>
      </trkpt>
      <trkpt lat="45.25211" lon="5.07154">
        <ele>405.6</ele>
        <time>2018-05-25T14:47:20 02:00</time>
      </trkpt>
      <trkpt lat="45.25208" lon="5.07121">
        <ele>406.1</ele>
        <time>2018-05-25T14:47:16 02:00</time>
      </trkpt>
      <trkpt lat="45.25203" lon="5.07088">
        <ele>407.4</ele>
        <time>2018-05-25T14:47:12 02:00</time>
      </trkpt>
      <trkpt lat="45.25197" lon="5.07057">
        <ele>408.3</ele>
        <time>2018-05-25T14:47:08 02:00</time>
      </trkpt>
      <trkpt lat="45.25194" lon="5.07025">
        <ele>409.1</ele>
        <time>2018-05-25T14:47:02 02:00</time>
      </trkpt>
      <trkpt lat="45.25201" lon="5.06992">
        <ele>408.9</ele>
        <time>2018-05-25T14:46:52 02:00</time>
      </trkpt>
      <trkpt lat="45.25204" lon="5.06958">
        <ele>409</ele>
        <time>2018-05-25T14:46:38 02:00</time>
      </trkpt>
      <trkpt lat="45.25225" lon="5.06941">
        <ele>406.7</ele>
        <time>2018-05-25T14:44:46 02:00</time>
      </trkpt>
      <trkpt lat="45.25247" lon="5.06926">
        <ele>405.5</ele>
        <time>2018-05-25T14:44:33 02:00</time>
      </trkpt>
      <trkpt lat="45.25268" lon="5.06912">
        <ele>404</ele>
        <time>2018-05-25T14:44:20 02:00</time>
      </trkpt>
      <trkpt lat="45.25289" lon="5.06899">
        <ele>402.4</ele>
        <time>2018-05-25T14:44:07 02:00</time>
      </trkpt>
      <trkpt lat="45.25311" lon="5.06884">
        <ele>401.8</ele>
        <time>2018-05-25T14:43:58 02:00</time>
      </trkpt>
      <trkpt lat="45.25333" lon="5.06872">
        <ele>401.4</ele>
        <time>2018-05-25T14:43:50 02:00</time>
      </trkpt>
      <trkpt lat="45.25355" lon="5.06865">
        <ele>401.1</ele>
        <time>2018-05-25T14:43:43 02:00</time>
      </trkpt>
      <trkpt lat="45.25377" lon="5.06854">
        <ele>401.1</ele>
        <time>2018-05-25T14:43:34 02:00</time>
      </trkpt>
      <trkpt lat="45.25398" lon="5.06841">
        <ele>400.5</ele>
        <time>2018-05-25T14:43:26 02:00</time>
      </trkpt>
      <trkpt lat="45.25413" lon="5.06818">
        <ele>399.4</ele>
        <time>2018-05-25T14:43:17 02:00</time>
      </trkpt>
      <trkpt lat="45.25433" lon="5.06796">
        <ele>398.9</ele>
        <time>2018-05-25T14:43:09 02:00</time>
      </trkpt>
      <trkpt lat="45.25452" lon="5.06776">
        <ele>397.9</ele>
        <time>2018-05-25T14:42:59 02:00</time>
      </trkpt>
      <trkpt lat="45.25469" lon="5.06753">
        <ele>397.1</ele>
        <time>2018-05-25T14:42:46 02:00</time>
      </trkpt>
      <trkpt lat="45.25487" lon="5.06734">
        <ele>396.4</ele>
        <time>2018-05-25T14:42:35 02:00</time>
      </trkpt>
      <trkpt lat="45.25507" lon="5.06712">
        <ele>395.5</ele>
        <time>2018-05-25T14:42:25 02:00</time>
      </trkpt>
      <trkpt lat="45.25526" lon="5.06692">
        <ele>394.9</ele>
        <time>2018-05-25T14:42:15 02:00</time>
      </trkpt>
      <trkpt lat="45.25543" lon="5.06671">
        <ele>393.5</ele>
        <time>2018-05-25T14:42:06 02:00</time>
      </trkpt>
      <trkpt lat="45.2556" lon="5.06648">
        <ele>392.5</ele>
        <time>2018-05-25T14:41:55 02:00</time>
      </trkpt>
      <trkpt lat="45.25576" lon="5.06626">
        <ele>391</ele>
        <time>2018-05-25T14:41:43 02:00</time>
      </trkpt>
      <trkpt lat="45.25593" lon="5.06604">
        <ele>390.5</ele>
        <time>2018-05-25T14:41:28 02:00</time>
      </trkpt>
      <trkpt lat="45.25606" lon="5.06576">
        <ele>390.6</ele>
        <time>2018-05-25T14:41:06 02:00</time>
      </trkpt>
      <trkpt lat="45.25626" lon="5.06556">
        <ele>390.4</ele>
        <time>2018-05-25T14:40:49 02:00</time>
      </trkpt>
      <trkpt lat="45.25646" lon="5.0654">
        <ele>389.8</ele>
        <time>2018-05-25T14:40:35 02:00</time>
      </trkpt>
      <trkpt lat="45.25666" lon="5.06523">
        <ele>388.3</ele>
        <time>2018-05-25T14:40:24 02:00</time>
      </trkpt>
      <trkpt lat="45.25686" lon="5.06504">
        <ele>386.8</ele>
        <time>2018-05-25T14:40:13 02:00</time>
      </trkpt>
      <trkpt lat="45.25705" lon="5.06482">
        <ele>385.4</ele>
        <time>2018-05-25T14:39:54 02:00</time>
      </trkpt>
      <trkpt lat="45.25726" lon="5.06465">
        <ele>383.7</ele>
        <time>2018-05-25T14:39:37 02:00</time>
      </trkpt>
      <trkpt lat="45.25748" lon="5.06452">
        <ele>381.1</ele>
        <time>2018-05-25T14:39:18 02:00</time>
      </trkpt>
      <trkpt lat="45.25771" lon="5.06438">
        <ele>377.6</ele>
        <time>2018-05-25T14:39:00 02:00</time>
      </trkpt>
      <trkpt lat="45.25791" lon="5.06426">
        <ele>375.1</ele>
        <time>2018-05-25T14:38:43 02:00</time>
      </trkpt>
      <trkpt lat="45.25809" lon="5.06407">
        <ele>372.8</ele>
        <time>2018-05-25T14:38:22 02:00</time>
      </trkpt>
      <trkpt lat="45.25829" lon="5.06389">
        <ele>370.7</ele>
        <time>2018-05-25T14:38:11 02:00</time>
      </trkpt>
      <trkpt lat="45.25848" lon="5.06371">
        <ele>368.4</ele>
        <time>2018-05-25T14:37:57 02:00</time>
      </trkpt>
      <trkpt lat="45.25869" lon="5.06356">
        <ele>365.8</ele>
        <time>2018-05-25T14:37:31 02:00</time>
      </trkpt>
      <trkpt lat="45.25889" lon="5.06342">
        <ele>363.3</ele>
        <time>2018-05-25T14:36:15 02:00</time>
      </trkpt>
      <trkpt lat="45.25915" lon="5.06341">
        <ele>360.2</ele>
        <time>2018-05-25T14:35:36 02:00</time>
      </trkpt>
      <trkpt lat="45.25937" lon="5.06334">
        <ele>355.7</ele>
        <time>2018-05-25T14:35:14 02:00</time>
      </trkpt>
      <trkpt lat="45.25959" lon="5.06326">
        <ele>350.3</ele>
        <time>2018-05-25T14:34:50 02:00</time>
      </trkpt>
      <trkpt lat="45.25982" lon="5.06327">
        <ele>346.3</ele>
        <time>2018-05-25T14:34:23 02:00</time>
      </trkpt>
      <trkpt lat="45.26004" lon="5.06327">
        <ele>343.5</ele>
        <time>2018-05-25T14:34:01 02:00</time>
      </trkpt>
      <trkpt lat="45.26027" lon="5.06329">
        <ele>341.9</ele>
        <time>2018-05-25T14:33:41 02:00</time>
      </trkpt>
      <trkpt lat="45.26051" lon="5.06329">
        <ele>340.3</ele>
        <time>2018-05-25T14:33:28 02:00</time>
      </trkpt>
      <trkpt lat="45.26072" lon="5.06317">
        <ele>338.2</ele>
        <time>2018-05-25T14:33:15 02:00</time>
      </trkpt>
      <trkpt lat="45.26094" lon="5.06305">
        <ele>336.3</ele>
        <time>2018-05-25T14:32:55 02:00</time>
      </trkpt>
      <trkpt lat="45.26116" lon="5.06296">
        <ele>335.1</ele>
        <time>2018-05-25T14:32:43 02:00</time>
      </trkpt>
      <trkpt lat="45.26137" lon="5.06284">
        <ele>334.1</ele>
        <time>2018-05-25T14:32:26 02:00</time>
      </trkpt>
      <trkpt lat="45.26159" lon="5.06269">
        <ele>332.4</ele>
        <time>2018-05-25T14:32:09 02:00</time>
      </trkpt>
      <trkpt lat="45.26156" lon="5.06238">
        <ele>332.9</ele>
        <time>2018-05-25T14:32:05 02:00</time>
      </trkpt>
      <trkpt lat="45.26153" lon="5.06204">
        <ele>333.9</ele>
        <time>2018-05-25T14:32:00 02:00</time>
      </trkpt>
      <trkpt lat="45.26148" lon="5.06169">
        <ele>334.7</ele>
        <time>2018-05-25T14:31:54 02:00</time>
      </trkpt>
      <trkpt lat="45.26143" lon="5.06137">
        <ele>333.7</ele>
        <time>2018-05-25T14:31:49 02:00</time>
      </trkpt>
      <trkpt lat="45.26139" lon="5.06105">
        <ele>333.8</ele>
        <time>2018-05-25T14:31:44 02:00</time>
      </trkpt>
      <trkpt lat="45.26129" lon="5.06073">
        <ele>334.5</ele>
        <time>2018-05-25T14:31:39 02:00</time>
      </trkpt>
      <trkpt lat="45.26117" lon="5.06043">
        <ele>334.1</ele>
        <time>2018-05-25T14:31:34 02:00</time>
      </trkpt>
      <trkpt lat="45.26105" lon="5.06013">
        <ele>333.7</ele>
        <time>2018-05-25T14:31:29 02:00</time>
      </trkpt>
      <trkpt lat="45.26095" lon="5.05981">
        <ele>334.4</ele>
        <time>2018-05-25T14:31:24 02:00</time>
      </trkpt>
      <trkpt lat="45.26086" lon="5.0595">
        <ele>333.2</ele>
        <time>2018-05-25T14:31:20 02:00</time>
      </trkpt>
      <trkpt lat="45.26075" lon="5.05916">
        <ele>334.1</ele>
        <time>2018-05-25T14:31:16 02:00</time>
      </trkpt>
      <trkpt lat="45.26064" lon="5.05884">
        <ele>334.2</ele>
        <time>2018-05-25T14:31:12 02:00</time>
      </trkpt>
      <trkpt lat="45.2605" lon="5.05858">
        <ele>334.7</ele>
        <time>2018-05-25T14:31:08 02:00</time>
      </trkpt>
      <trkpt lat="45.26039" lon="5.05826">
        <ele>335.6</ele>
        <time>2018-05-25T14:31:03 02:00</time>
      </trkpt>
      <trkpt lat="45.26033" lon="5.0579">
        <ele>335.4</ele>
        <time>2018-05-25T14:30:58 02:00</time>
      </trkpt>
      <trkpt lat="45.26025" lon="5.05755">
        <ele>336.2</ele>
        <time>2018-05-25T14:30:53 02:00</time>
      </trkpt>
      <trkpt lat="45.26012" lon="5.05723">
        <ele>337.2</ele>
        <time>2018-05-25T14:30:47 02:00</time>
      </trkpt>
      <trkpt lat="45.25993" lon="5.05694">
        <ele>337.2</ele>
        <time>2018-05-25T14:30:41 02:00</time>
      </trkpt>
      <trkpt lat="45.25978" lon="5.05666">
        <ele>336.8</ele>
        <time>2018-05-25T14:30:36 02:00</time>
      </trkpt>
      <trkpt lat="45.25963" lon="5.05639">
        <ele>337.3</ele>
        <time>2018-05-25T14:30:31 02:00</time>
      </trkpt>
      <trkpt lat="45.25949" lon="5.05612">
        <ele>336.9</ele>
        <time>2018-05-25T14:30:26 02:00</time>
      </trkpt>
      <trkpt lat="45.25936" lon="5.05584">
        <ele>336.7</ele>
        <time>2018-05-25T14:30:21 02:00</time>
      </trkpt>
      <trkpt lat="45.25923" lon="5.0555">
        <ele>336.4</ele>
        <time>2018-05-25T14:30:15 02:00</time>
      </trkpt>
      <trkpt lat="45.25914" lon="5.05517">
        <ele>336.2</ele>
        <time>2018-05-25T14:30:10 02:00</time>
      </trkpt>
      <trkpt lat="45.25905" lon="5.05482">
        <ele>336.2</ele>
        <time>2018-05-25T14:30:04 02:00</time>
      </trkpt>
      <trkpt lat="45.25898" lon="5.05451">
        <ele>335.8</ele>
        <time>2018-05-25T14:29:59 02:00</time>
      </trkpt>
      <trkpt lat="45.25893" lon="5.05414">
        <ele>335.6</ele>
        <time>2018-05-25T14:29:53 02:00</time>
      </trkpt>
      <trkpt lat="45.25887" lon="5.05378">
        <ele>335.2</ele>
        <time>2018-05-25T14:29:47 02:00</time>
      </trkpt>
      <trkpt lat="45.25883" lon="5.05346">
        <ele>334.9</ele>
        <time>2018-05-25T14:29:42 02:00</time>
      </trkpt>
      <trkpt lat="45.25876" lon="5.05309">
        <ele>334.5</ele>
        <time>2018-05-25T14:29:36 02:00</time>
      </trkpt>
      <trkpt lat="45.25873" lon="5.05272">
        <ele>334.2</ele>
        <time>2018-05-25T14:29:30 02:00</time>
      </trkpt>
      <trkpt lat="45.25879" lon="5.05236">
        <ele>334.5</ele>
        <time>2018-05-25T14:29:24 02:00</time>
      </trkpt>
      <trkpt lat="45.25885" lon="5.05204">
        <ele>334.2</ele>
        <time>2018-05-25T14:29:18 02:00</time>
      </trkpt>
      <trkpt lat="45.25886" lon="5.05169">
        <ele>334.1</ele>
        <time>2018-05-25T14:29:12 02:00</time>
      </trkpt>
      <trkpt lat="45.25885" lon="5.05134">
        <ele>333.2</ele>
        <time>2018-05-25T14:29:06 02:00</time>
      </trkpt>
      <trkpt lat="45.25884" lon="5.05101">
        <ele>333.2</ele>
        <time>2018-05-25T14:29:00 02:00</time>
      </trkpt>
      <trkpt lat="45.25881" lon="5.05068">
        <ele>332.7</ele>
        <time>2018-05-25T14:28:53 02:00</time>
      </trkpt>
      <trkpt lat="45.25876" lon="5.05035">
        <ele>332.5</ele>
        <time>2018-05-25T14:28:45 02:00</time>
      </trkpt>
      <trkpt lat="45.25867" lon="5.05006">
        <ele>331.8</ele>
        <time>2018-05-25T14:28:37 02:00</time>
      </trkpt>
      <trkpt lat="45.25866" lon="5.04974">
        <ele>329.8</ele>
        <time>2018-05-25T14:28:11 02:00</time>
      </trkpt>
      <trkpt lat="45.25888" lon="5.04964">
        <ele>327.2</ele>
        <time>2018-05-25T14:27:53 02:00</time>
      </trkpt>
      <trkpt lat="45.25909" lon="5.04949">
        <ele>323.2</ele>
        <time>2018-05-25T14:27:37 02:00</time>
      </trkpt>
      <trkpt lat="45.25912" lon="5.04915">
        <ele>320.5</ele>
        <time>2018-05-25T14:27:25 02:00</time>
      </trkpt>
      <trkpt lat="45.25907" lon="5.04884">
        <ele>320.5</ele>
        <time>2018-05-25T14:27:17 02:00</time>
      </trkpt>
      <trkpt lat="45.25906" lon="5.04847">
        <ele>319.9</ele>
        <time>2018-05-25T14:27:09 02:00</time>
      </trkpt>
      <trkpt lat="45.25918" lon="5.04818">
        <ele>319</ele>
        <time>2018-05-25T14:27:00 02:00</time>
      </trkpt>
      <trkpt lat="45.25934" lon="5.04792">
        <ele>318.4</ele>
        <time>2018-05-25T14:26:52 02:00</time>
      </trkpt>
      <trkpt lat="45.25953" lon="5.04769">
        <ele>317.5</ele>
        <time>2018-05-25T14:26:45 02:00</time>
      </trkpt>
      <trkpt lat="45.25974" lon="5.04753">
        <ele>317</ele>
        <time>2018-05-25T14:26:39 02:00</time>
      </trkpt>
      <trkpt lat="45.25995" lon="5.04735">
        <ele>317</ele>
        <time>2018-05-25T14:26:32 02:00</time>
      </trkpt>
      <trkpt lat="45.26017" lon="5.0472">
        <ele>315.7</ele>
        <time>2018-05-25T14:26:25 02:00</time>
      </trkpt>
      <trkpt lat="45.26039" lon="5.04706">
        <ele>314.6</ele>
        <time>2018-05-25T14:26:17 02:00</time>
      </trkpt>
      <trkpt lat="45.26055" lon="5.0468">
        <ele>314</ele>
        <time>2018-05-25T14:26:11 02:00</time>
      </trkpt>
      <trkpt lat="45.2606" lon="5.04644">
        <ele>313.5</ele>
        <time>2018-05-25T14:26:05 02:00</time>
      </trkpt>
      <trkpt lat="45.26063" lon="5.04609">
        <ele>313.5</ele>
        <time>2018-05-25T14:25:59 02:00</time>
      </trkpt>
      <trkpt lat="45.26058" lon="5.04573">
        <ele>313.5</ele>
        <time>2018-05-25T14:25:51 02:00</time>
      </trkpt>
      <trkpt lat="45.26062" lon="5.04542">
        <ele>312.7</ele>
        <time>2018-05-25T14:25:41 02:00</time>
      </trkpt>
      <trkpt lat="45.26073" lon="5.04513">
        <ele>312.1</ele>
        <time>2018-05-25T14:25:35 02:00</time>
      </trkpt>
      <trkpt lat="45.26081" lon="5.04482">
        <ele>312.1</ele>
        <time>2018-05-25T14:25:30 02:00</time>
      </trkpt>
      <trkpt lat="45.26087" lon="5.04452">
        <ele>312</ele>
        <time>2018-05-25T14:25:25 02:00</time>
      </trkpt>
      <trkpt lat="45.26105" lon="5.04428">
        <ele>312</ele>
        <time>2018-05-25T14:25:18 02:00</time>
      </trkpt>
      <trkpt lat="45.26114" lon="5.04398">
        <ele>311.3</ele>
        <time>2018-05-25T14:25:12 02:00</time>
      </trkpt>
      <trkpt lat="45.26117" lon="5.04364">
        <ele>310.3</ele>
        <time>2018-05-25T14:25:07 02:00</time>
      </trkpt>
      <trkpt lat="45.26116" lon="5.04332">
        <ele>310</ele>
        <time>2018-05-25T14:25:03 02:00</time>
      </trkpt>
      <trkpt lat="45.26112" lon="5.04296">
        <ele>310</ele>
        <time>2018-05-25T14:24:58 02:00</time>
      </trkpt>
      <trkpt lat="45.261" lon="5.04268">
        <ele>310.3</ele>
        <time>2018-05-25T14:24:54 02:00</time>
      </trkpt>
      <trkpt lat="45.26085" lon="5.04239">
        <ele>311.5</ele>
        <time>2018-05-25T14:24:50 02:00</time>
      </trkpt>
      <trkpt lat="45.26074" lon="5.04205">
        <ele>311.3</ele>
        <time>2018-05-25T14:24:46 02:00</time>
      </trkpt>
      <trkpt lat="45.26062" lon="5.04169">
        <ele>311.8</ele>
        <time>2018-05-25T14:24:41 02:00</time>
      </trkpt>
      <trkpt lat="45.26052" lon="5.04138">
        <ele>311</ele>
        <time>2018-05-25T14:24:36 02:00</time>
      </trkpt>
      <trkpt lat="45.26038" lon="5.04111">
        <ele>311</ele>
        <time>2018-05-25T14:24:31 02:00</time>
      </trkpt>
      <trkpt lat="45.26022" lon="5.04081">
        <ele>309.9</ele>
        <time>2018-05-25T14:24:25 02:00</time>
      </trkpt>
      <trkpt lat="45.26023" lon="5.0405">
        <ele>308.9</ele>
        <time>2018-05-25T14:24:18 02:00</time>
      </trkpt>
      <trkpt lat="45.26024" lon="5.04017">
        <ele>307.6</ele>
        <time>2018-05-25T14:24:13 02:00</time>
      </trkpt>
      <trkpt lat="45.26004" lon="5.03999">
        <ele>306.2</ele>
        <time>2018-05-25T14:24:07 02:00</time>
      </trkpt>
      <trkpt lat="45.25984" lon="5.03983">
        <ele>306.8</ele>
        <time>2018-05-25T14:24:01 02:00</time>
      </trkpt>
      <trkpt lat="45.2596" lon="5.03973">
        <ele>307.5</ele>
        <time>2018-05-25T14:23:56 02:00</time>
      </trkpt>
      <trkpt lat="45.25935" lon="5.03968">
        <ele>307.6</ele>
        <time>2018-05-25T14:23:51 02:00</time>
      </trkpt>
      <trkpt lat="45.25915" lon="5.03946">
        <ele>306.9</ele>
        <time>2018-05-25T14:23:43 02:00</time>
      </trkpt>
      <trkpt lat="45.25906" lon="5.03911">
        <ele>306</ele>
        <time>2018-05-25T14:23:37 02:00</time>
      </trkpt>
      <trkpt lat="45.2589" lon="5.0388">
        <ele>306</ele>
        <time>2018-05-25T14:23:31 02:00</time>
      </trkpt>
      <trkpt lat="45.25876" lon="5.03854">
        <ele>305.9</ele>
        <time>2018-05-25T14:23:24 02:00</time>
      </trkpt>
      <trkpt lat="45.25869" lon="5.0382">
        <ele>305.7</ele>
        <time>2018-05-25T14:23:16 02:00</time>
      </trkpt>
      <trkpt lat="45.25867" lon="5.03786">
        <ele>305.6</ele>
        <time>2018-05-25T14:23:10 02:00</time>
      </trkpt>
      <trkpt lat="45.25867" lon="5.03754">
        <ele>304.7</ele>
        <time>2018-05-25T14:23:04 02:00</time>
      </trkpt>
      <trkpt lat="45.25858" lon="5.03719">
        <ele>304</ele>
        <time>2018-05-25T14:22:56 02:00</time>
      </trkpt>
      <trkpt lat="45.25859" lon="5.03683">
        <ele>302.7</ele>
        <time>2018-05-25T14:22:51 02:00</time>
      </trkpt>
      <trkpt lat="45.25846" lon="5.03649">
        <ele>302.5</ele>
        <time>2018-05-25T14:22:46 02:00</time>
      </trkpt>
      <trkpt lat="45.25829" lon="5.03626">
        <ele>303.2</ele>
        <time>2018-05-25T14:22:39 02:00</time>
      </trkpt>
      <trkpt lat="45.25813" lon="5.036">
        <ele>303.7</ele>
        <time>2018-05-25T14:22:31 02:00</time>
      </trkpt>
      <trkpt lat="45.25804" lon="5.03566">
        <ele>303.4</ele>
        <time>2018-05-25T14:22:26 02:00</time>
      </trkpt>
      <trkpt lat="45.25799" lon="5.03529">
        <ele>302</ele>
        <time>2018-05-25T14:22:19 02:00</time>
      </trkpt>
      <trkpt lat="45.25792" lon="5.03495">
        <ele>300.9</ele>
        <time>2018-05-25T14:22:11 02:00</time>
      </trkpt>
      <trkpt lat="45.25776" lon="5.03469">
        <ele>300.2</ele>
        <time>2018-05-25T14:22:04 02:00</time>
      </trkpt>
      <trkpt lat="45.25759" lon="5.03446">
        <ele>300.4</ele>
        <time>2018-05-25T14:21:58 02:00</time>
      </trkpt>
      <trkpt lat="45.25742" lon="5.03421">
        <ele>300</ele>
        <time>2018-05-25T14:21:50 02:00</time>
      </trkpt>
      <trkpt lat="45.25727" lon="5.03394">
        <ele>300.2</ele>
        <time>2018-05-25T14:21:43 02:00</time>
      </trkpt>
      <trkpt lat="45.25713" lon="5.03369">
        <ele>300.5</ele>
        <time>2018-05-25T14:21:36 02:00</time>
      </trkpt>
      <trkpt lat="45.25693" lon="5.03353">
        <ele>300.3</ele>
        <time>2018-05-25T14:21:30 02:00</time>
      </trkpt>
      <trkpt lat="45.25669" lon="5.03343">
        <ele>300.1</ele>
        <time>2018-05-25T14:21:18 02:00</time>
      </trkpt>
      <trkpt lat="45.25648" lon="5.03332">
        <ele>300</ele>
        <time>2018-05-25T14:21:12 02:00</time>
      </trkpt>
      <trkpt lat="45.25629" lon="5.03315">
        <ele>300.1</ele>
        <time>2018-05-25T14:21:07 02:00</time>
      </trkpt>
      <trkpt lat="45.25606" lon="5.033">
        <ele>300</ele>
        <time>2018-05-25T14:20:59 02:00</time>
      </trkpt>
      <trkpt lat="45.25609" lon="5.03267">
        <ele>300</ele>
        <time>2018-05-25T14:20:51 02:00</time>
      </trkpt>
      <trkpt lat="45.25611" lon="5.03232">
        <ele>300</ele>
        <time>2018-05-25T14:20:43 02:00</time>
      </trkpt>
      <trkpt lat="45.25612" lon="5.032">
        <ele>300.8</ele>
        <time>2018-05-25T14:20:36 02:00</time>
      </trkpt>
      <trkpt lat="45.25606" lon="5.03168">
        <ele>301</ele>
        <time>2018-05-25T14:20:30 02:00</time>
      </trkpt>
      <trkpt lat="45.25592" lon="5.03135">
        <ele>300.9</ele>
        <time>2018-05-25T14:20:24 02:00</time>
      </trkpt>
      <trkpt lat="45.25573" lon="5.03112">
        <ele>300.4</ele>
        <time>2018-05-25T14:20:15 02:00</time>
      </trkpt>
      <trkpt lat="45.25566" lon="5.03077">
        <ele>300</ele>
        <time>2018-05-25T14:20:06 02:00</time>
      </trkpt>
      <trkpt lat="45.25548" lon="5.03055">
        <ele>300</ele>
        <time>2018-05-25T14:19:56 02:00</time>
      </trkpt>
      <trkpt lat="45.25533" lon="5.03026">
        <ele>299</ele>
        <time>2018-05-25T14:19:49 02:00</time>
      </trkpt>
      <trkpt lat="45.25522" lon="5.02995">
        <ele>298.9</ele>
        <time>2018-05-25T14:19:43 02:00</time>
      </trkpt>
      <trkpt lat="45.2552" lon="5.02962">
        <ele>298.6</ele>
        <time>2018-05-25T14:19:37 02:00</time>
      </trkpt>
      <trkpt lat="45.25517" lon="5.02926">
        <ele>298.7</ele>
        <time>2018-05-25T14:19:31 02:00</time>
      </trkpt>
      <trkpt lat="45.25528" lon="5.02893">
        <ele>299</ele>
        <time>2018-05-25T14:19:24 02:00</time>
      </trkpt>
      <trkpt lat="45.25548" lon="5.02873">
        <ele>299</ele>
        <time>2018-05-25T14:19:16 02:00</time>
      </trkpt>
      <trkpt lat="45.25572" lon="5.0287">
        <ele>299</ele>
        <time>2018-05-25T14:19:04 02:00</time>
      </trkpt>
      <trkpt lat="45.2559" lon="5.02892">
        <ele>299</ele>
        <time>2018-05-25T14:15:22 02:00</time>
      </trkpt>
      <trkpt lat="45.2561" lon="5.02907">
        <ele>299</ele>
        <time>2018-05-25T14:14:38 02:00</time>
      </trkpt>
      <trkpt lat="45.25631" lon="5.0292">
        <ele>299.7</ele>
        <time>2018-05-25T14:14:28 02:00</time>
      </trkpt>
    </trkseg>
  </trk>
</gpx>